<?xml version="1.0" encoding="UTF-8" standalone="no" ?>
<gpx xmlns="http://www.topografix.com/GPX/1/1" xmlns:xsi="http://www.w3.org/2001/XMLSchema-instance" xsi:schemaLocation="http://www.topografix.com/GPX/1/1 http://www.topografix.com/GPX/1/1/gpx.xsd" version="1.1" creator="VisuGPX - https://www.visugpx.com">
  <metadata>
    <name>Sortie à VTT Tamié, La Belle Étoile,  col de L alpete,  Albertville</name>
  </metadata>
  <trk>
    <name><![CDATA[Sortie à VTT Tamié, La Belle Étoile,  col de L alpete,  Albertville]]></name>
    <trkseg>
      <trkpt lat="45.68253" lon="6.33373">
        <ele>891.533348</ele>
        <time>2021-06-23T10:55:23.470Z</time>
      </trkpt>
      <trkpt lat="45.68257" lon="6.33346">
        <ele>891.533348</ele>
        <time>2021-06-23T10:55:25.343Z</time>
      </trkpt>
      <trkpt lat="45.68252" lon="6.33358">
        <ele>891.533348</ele>
        <time>2021-06-23T10:57:10.117Z</time>
      </trkpt>
      <trkpt lat="45.6825" lon="6.33371">
        <ele>891.533348</ele>
        <time>2021-06-23T10:57:59.123Z</time>
      </trkpt>
      <trkpt lat="45.68241" lon="6.33369">
        <ele>891.533348</ele>
        <time>2021-06-23T10:58:16.166Z</time>
      </trkpt>
      <trkpt lat="45.68231" lon="6.33364">
        <ele>891.533348</ele>
        <time>2021-06-23T10:58:28.138Z</time>
      </trkpt>
      <trkpt lat="45.68224" lon="6.33356">
        <ele>891.533348</ele>
        <time>2021-06-23T10:58:35.125Z</time>
      </trkpt>
      <trkpt lat="45.68222" lon="6.33342">
        <ele>891.533348</ele>
        <time>2021-06-23T10:58:40.125Z</time>
      </trkpt>
      <trkpt lat="45.68216" lon="6.33329">
        <ele>891.533348</ele>
        <time>2021-06-23T10:58:47.122Z</time>
      </trkpt>
      <trkpt lat="45.68211" lon="6.33317">
        <ele>892.055792</ele>
        <time>2021-06-23T10:58:50.128Z</time>
      </trkpt>
      <trkpt lat="45.68207" lon="6.33306">
        <ele>892.715739</ele>
        <time>2021-06-23T10:58:54.124Z</time>
      </trkpt>
      <trkpt lat="45.68202" lon="6.33293">
        <ele>893.404956</ele>
        <time>2021-06-23T10:58:59.126Z</time>
      </trkpt>
      <trkpt lat="45.682" lon="6.33281">
        <ele>894.044657</ele>
        <time>2021-06-23T10:59:04.133Z</time>
      </trkpt>
      <trkpt lat="45.68199" lon="6.33266">
        <ele>894.780253</ele>
        <time>2021-06-23T10:59:09.131Z</time>
      </trkpt>
      <trkpt lat="45.68195" lon="6.33248">
        <ele>895.688721</ele>
        <time>2021-06-23T10:59:17.122Z</time>
      </trkpt>
      <trkpt lat="45.68192" lon="6.33236">
        <ele>896.320281</ele>
        <time>2021-06-23T10:59:22.118Z</time>
      </trkpt>
      <trkpt lat="45.68184" lon="6.33229">
        <ele>896.966343</ele>
        <time>2021-06-23T10:59:30.118Z</time>
      </trkpt>
      <trkpt lat="45.68178" lon="6.33216">
        <ele>897.702267</ele>
        <time>2021-06-23T10:59:35.126Z</time>
      </trkpt>
      <trkpt lat="45.68175" lon="6.33203">
        <ele>898.390627</ele>
        <time>2021-06-23T10:59:40.131Z</time>
      </trkpt>
      <trkpt lat="45.68171" lon="6.33191">
        <ele>899.027287</ele>
        <time>2021-06-23T10:59:46.116Z</time>
      </trkpt>
      <trkpt lat="45.68164" lon="6.33181">
        <ele>899.691294</ele>
        <time>2021-06-23T10:59:51.125Z</time>
      </trkpt>
      <trkpt lat="45.68158" lon="6.33172">
        <ele>900.323085</ele>
        <time>2021-06-23T10:59:58.119Z</time>
      </trkpt>
      <trkpt lat="45.68149" lon="6.33162">
        <ele>901.097991</ele>
        <time>2021-06-23T11:00:08.129Z</time>
      </trkpt>
      <trkpt lat="45.6814" lon="6.33155">
        <ele>901.811668</ele>
        <time>2021-06-23T11:00:14.136Z</time>
      </trkpt>
      <trkpt lat="45.68131" lon="6.33148">
        <ele>902.544739</ele>
        <time>2021-06-23T11:00:18.128Z</time>
      </trkpt>
      <trkpt lat="45.68122" lon="6.33141">
        <ele>903.257238</ele>
        <time>2021-06-23T11:00:24.129Z</time>
      </trkpt>
      <trkpt lat="45.68114" lon="6.33133">
        <ele>903.910184</ele>
        <time>2021-06-23T11:00:30.102Z</time>
      </trkpt>
      <trkpt lat="45.68107" lon="6.33122">
        <ele>905.136894</ele>
        <time>2021-06-23T11:00:36.124Z</time>
      </trkpt>
      <trkpt lat="45.681" lon="6.33112">
        <ele>906.240707</ele>
        <time>2021-06-23T11:00:42.123Z</time>
      </trkpt>
      <trkpt lat="45.68094" lon="6.33101">
        <ele>907.42246</ele>
        <time>2021-06-23T11:00:47.123Z</time>
      </trkpt>
      <trkpt lat="45.6809" lon="6.3309">
        <ele>908.503981</ele>
        <time>2021-06-23T11:00:54.117Z</time>
      </trkpt>
      <trkpt lat="45.68086" lon="6.33078">
        <ele>909.586896</ele>
        <time>2021-06-23T11:01:06.129Z</time>
      </trkpt>
      <trkpt lat="45.68083" lon="6.33066">
        <ele>910.67271</ele>
        <time>2021-06-23T11:01:17.122Z</time>
      </trkpt>
      <trkpt lat="45.68081" lon="6.33051">
        <ele>911.886143</ele>
        <time>2021-06-23T11:01:23.127Z</time>
      </trkpt>
      <trkpt lat="45.68081" lon="6.33037">
        <ele>913.055956</ele>
        <time>2021-06-23T11:01:32.139Z</time>
      </trkpt>
      <trkpt lat="45.68077" lon="6.33023">
        <ele>914.34668</ele>
        <time>2021-06-23T11:01:39.158Z</time>
      </trkpt>
      <trkpt lat="45.68073" lon="6.33009">
        <ele>915.550554</ele>
        <time>2021-06-23T11:01:43.146Z</time>
      </trkpt>
      <trkpt lat="45.68065" lon="6.32995">
        <ele>917.031068</ele>
        <time>2021-06-23T11:01:46.140Z</time>
      </trkpt>
      <trkpt lat="45.68058" lon="6.32984">
        <ele>918.293446</ele>
        <time>2021-06-23T11:01:49.132Z</time>
      </trkpt>
      <trkpt lat="45.68051" lon="6.32975">
        <ele>919.392656</ele>
        <time>2021-06-23T11:01:52.135Z</time>
      </trkpt>
      <trkpt lat="45.68042" lon="6.32962">
        <ele>920.951949</ele>
        <time>2021-06-23T11:01:56.119Z</time>
      </trkpt>
      <trkpt lat="45.68039" lon="6.32949">
        <ele>922.140603</ele>
        <time>2021-06-23T11:02:00.140Z</time>
      </trkpt>
      <trkpt lat="45.68033" lon="6.32938">
        <ele>923.309245</ele>
        <time>2021-06-23T11:02:05.123Z</time>
      </trkpt>
      <trkpt lat="45.68028" lon="6.32927">
        <ele>924.429735</ele>
        <time>2021-06-23T11:02:12.124Z</time>
      </trkpt>
      <trkpt lat="45.68024" lon="6.32914">
        <ele>925.562712</ele>
        <time>2021-06-23T11:02:17.128Z</time>
      </trkpt>
      <trkpt lat="45.68022" lon="6.32899">
        <ele>926.195357</ele>
        <time>2021-06-23T11:02:22.132Z</time>
      </trkpt>
      <trkpt lat="45.68018" lon="6.32886">
        <ele>926.824067</ele>
        <time>2021-06-23T11:02:28.119Z</time>
      </trkpt>
      <trkpt lat="45.68013" lon="6.32875">
        <ele>927.396026</ele>
        <time>2021-06-23T11:02:33.124Z</time>
      </trkpt>
      <trkpt lat="45.68006" lon="6.32866">
        <ele>927.985461</ele>
        <time>2021-06-23T11:02:38.129Z</time>
      </trkpt>
      <trkpt lat="45.67996" lon="6.32857">
        <ele>928.680526</ele>
        <time>2021-06-23T11:02:43.127Z</time>
      </trkpt>
      <trkpt lat="45.67989" lon="6.32849">
        <ele>929.241595</ele>
        <time>2021-06-23T11:02:47.128Z</time>
      </trkpt>
      <trkpt lat="45.67981" lon="6.32841">
        <ele>929.837334</ele>
        <time>2021-06-23T11:02:52.128Z</time>
      </trkpt>
      <trkpt lat="45.67975" lon="6.32831">
        <ele>930.404158</ele>
        <time>2021-06-23T11:03:01.130Z</time>
      </trkpt>
      <trkpt lat="45.6797" lon="6.3282">
        <ele>930.966186</ele>
        <time>2021-06-23T11:03:07.134Z</time>
      </trkpt>
      <trkpt lat="45.67962" lon="6.32814">
        <ele>931.53391</ele>
        <time>2021-06-23T11:03:13.125Z</time>
      </trkpt>
      <trkpt lat="45.67954" lon="6.32804">
        <ele>932.148681</ele>
        <time>2021-06-23T11:03:19.125Z</time>
      </trkpt>
      <trkpt lat="45.67946" lon="6.32794">
        <ele>932.804042</ele>
        <time>2021-06-23T11:03:25.127Z</time>
      </trkpt>
      <trkpt lat="45.67938" lon="6.32786">
        <ele>933.404447</ele>
        <time>2021-06-23T11:03:32.127Z</time>
      </trkpt>
      <trkpt lat="45.67934" lon="6.32774">
        <ele>933.969713</ele>
        <time>2021-06-23T11:03:38.127Z</time>
      </trkpt>
      <trkpt lat="45.6793" lon="6.3276">
        <ele>934.620349</ele>
        <time>2021-06-23T11:03:43.123Z</time>
      </trkpt>
      <trkpt lat="45.67925" lon="6.32748">
        <ele>935.23098</ele>
        <time>2021-06-23T11:03:48.135Z</time>
      </trkpt>
      <trkpt lat="45.67922" lon="6.32736">
        <ele>935.783269</ele>
        <time>2021-06-23T11:03:54.123Z</time>
      </trkpt>
      <trkpt lat="45.67915" lon="6.32725">
        <ele>936.388244</ele>
        <time>2021-06-23T11:03:59.115Z</time>
      </trkpt>
      <trkpt lat="45.67909" lon="6.32714">
        <ele>936.532458</ele>
        <time>2021-06-23T11:04:06.129Z</time>
      </trkpt>
      <trkpt lat="45.67902" lon="6.32702">
        <ele>936.478529</ele>
        <time>2021-06-23T11:04:11.119Z</time>
      </trkpt>
      <trkpt lat="45.67896" lon="6.32693">
        <ele>936.432727</ele>
        <time>2021-06-23T11:04:17.121Z</time>
      </trkpt>
      <trkpt lat="45.67891" lon="6.32682">
        <ele>936.387839</ele>
        <time>2021-06-23T11:04:23.122Z</time>
      </trkpt>
      <trkpt lat="45.67885" lon="6.3267">
        <ele>936.337813</ele>
        <time>2021-06-23T11:04:30.120Z</time>
      </trkpt>
      <trkpt lat="45.6788" lon="6.32659">
        <ele>936.288977</ele>
        <time>2021-06-23T11:04:36.121Z</time>
      </trkpt>
      <trkpt lat="45.67874" lon="6.32648">
        <ele>936.242417</ele>
        <time>2021-06-23T11:04:41.142Z</time>
      </trkpt>
      <trkpt lat="45.6787" lon="6.32636">
        <ele>936.197254</ele>
        <time>2021-06-23T11:04:45.122Z</time>
      </trkpt>
      <trkpt lat="45.67864" lon="6.32626">
        <ele>936.148783</ele>
        <time>2021-06-23T11:04:49.122Z</time>
      </trkpt>
      <trkpt lat="45.67856" lon="6.32618">
        <ele>936.10147</ele>
        <time>2021-06-23T11:04:54.119Z</time>
      </trkpt>
      <trkpt lat="45.67851" lon="6.32607">
        <ele>936.053487</ele>
        <time>2021-06-23T11:04:59.121Z</time>
      </trkpt>
      <trkpt lat="45.67846" lon="6.32592">
        <ele>935.997272</ele>
        <time>2021-06-23T11:05:04.118Z</time>
      </trkpt>
      <trkpt lat="45.67842" lon="6.32578">
        <ele>935.944191</ele>
        <time>2021-06-23T11:05:10.129Z</time>
      </trkpt>
      <trkpt lat="45.67836" lon="6.32566">
        <ele>935.893908</ele>
        <time>2021-06-23T11:05:16.123Z</time>
      </trkpt>
      <trkpt lat="45.6783" lon="6.32556">
        <ele>935.847922</ele>
        <time>2021-06-23T11:05:23.135Z</time>
      </trkpt>
      <trkpt lat="45.67822" lon="6.32549">
        <ele>935.801617</ele>
        <time>2021-06-23T11:05:28.117Z</time>
      </trkpt>
      <trkpt lat="45.67816" lon="6.32539">
        <ele>935.754515</ele>
        <time>2021-06-23T11:05:33.118Z</time>
      </trkpt>
      <trkpt lat="45.67811" lon="6.32526">
        <ele>935.704986</ele>
        <time>2021-06-23T11:05:39.124Z</time>
      </trkpt>
      <trkpt lat="45.67806" lon="6.32514">
        <ele>935.840217</ele>
        <time>2021-06-23T11:05:44.133Z</time>
      </trkpt>
      <trkpt lat="45.678" lon="6.32504">
        <ele>936.399207</ele>
        <time>2021-06-23T11:05:49.131Z</time>
      </trkpt>
      <trkpt lat="45.67793" lon="6.32493">
        <ele>936.990713</ele>
        <time>2021-06-23T11:05:54.119Z</time>
      </trkpt>
      <trkpt lat="45.67788" lon="6.3248">
        <ele>937.599986</ele>
        <time>2021-06-23T11:06:00.123Z</time>
      </trkpt>
      <trkpt lat="45.67779" lon="6.32472">
        <ele>938.240043</ele>
        <time>2021-06-23T11:06:06.117Z</time>
      </trkpt>
      <trkpt lat="45.67771" lon="6.32463">
        <ele>938.78726</ele>
        <time>2021-06-23T11:06:12.114Z</time>
      </trkpt>
      <trkpt lat="45.67764" lon="6.32453">
        <ele>939.390275</ele>
        <time>2021-06-23T11:06:18.116Z</time>
      </trkpt>
      <trkpt lat="45.67759" lon="6.32442">
        <ele>939.955244</ele>
        <time>2021-06-23T11:06:26.119Z</time>
      </trkpt>
      <trkpt lat="45.67752" lon="6.32432">
        <ele>940.535752</ele>
        <time>2021-06-23T11:06:32.119Z</time>
      </trkpt>
      <trkpt lat="45.67744" lon="6.32423">
        <ele>941.11156</ele>
        <time>2021-06-23T11:06:38.112Z</time>
      </trkpt>
      <trkpt lat="45.67738" lon="6.32411">
        <ele>941.689866</ele>
        <time>2021-06-23T11:06:43.118Z</time>
      </trkpt>
      <trkpt lat="45.67732" lon="6.32401">
        <ele>942.254348</ele>
        <time>2021-06-23T11:06:50.115Z</time>
      </trkpt>
      <trkpt lat="45.67727" lon="6.32387">
        <ele>942.891853</ele>
        <time>2021-06-23T11:06:56.113Z</time>
      </trkpt>
      <trkpt lat="45.67719" lon="6.32376">
        <ele>943.567223</ele>
        <time>2021-06-23T11:07:01.118Z</time>
      </trkpt>
      <trkpt lat="45.67709" lon="6.32369">
        <ele>944.18465</ele>
        <time>2021-06-23T11:07:05.111Z</time>
      </trkpt>
      <trkpt lat="45.67701" lon="6.3236">
        <ele>944.767227</ele>
        <time>2021-06-23T11:07:10.122Z</time>
      </trkpt>
      <trkpt lat="45.67695" lon="6.3235">
        <ele>945.314727</ele>
        <time>2021-06-23T11:07:16.117Z</time>
      </trkpt>
      <trkpt lat="45.6769" lon="6.32337">
        <ele>945.938489</ele>
        <time>2021-06-23T11:07:21.124Z</time>
      </trkpt>
      <trkpt lat="45.67686" lon="6.32325">
        <ele>946.919339</ele>
        <time>2021-06-23T11:07:26.134Z</time>
      </trkpt>
      <trkpt lat="45.6768" lon="6.32315">
        <ele>948.353276</ele>
        <time>2021-06-23T11:07:31.132Z</time>
      </trkpt>
      <trkpt lat="45.67673" lon="6.32306">
        <ele>949.826702</ele>
        <time>2021-06-23T11:07:36.118Z</time>
      </trkpt>
      <trkpt lat="45.67664" lon="6.32299">
        <ele>951.393864</ele>
        <time>2021-06-23T11:07:43.121Z</time>
      </trkpt>
      <trkpt lat="45.67657" lon="6.32291">
        <ele>952.863045</ele>
        <time>2021-06-23T11:07:48.134Z</time>
      </trkpt>
      <trkpt lat="45.67652" lon="6.32279">
        <ele>954.309887</ele>
        <time>2021-06-23T11:07:53.119Z</time>
      </trkpt>
      <trkpt lat="45.67646" lon="6.32267">
        <ele>955.941922</ele>
        <time>2021-06-23T11:07:59.121Z</time>
      </trkpt>
      <trkpt lat="45.6764" lon="6.32256">
        <ele>957.411293</ele>
        <time>2021-06-23T11:08:04.122Z</time>
      </trkpt>
      <trkpt lat="45.67634" lon="6.32246">
        <ele>958.895524</ele>
        <time>2021-06-23T11:08:10.115Z</time>
      </trkpt>
      <trkpt lat="45.67626" lon="6.32236">
        <ele>960.479449</ele>
        <time>2021-06-23T11:08:16.125Z</time>
      </trkpt>
      <trkpt lat="45.67619" lon="6.32225">
        <ele>962.225916</ele>
        <time>2021-06-23T11:08:23.116Z</time>
      </trkpt>
      <trkpt lat="45.67614" lon="6.32213">
        <ele>963.734599</ele>
        <time>2021-06-23T11:08:30.124Z</time>
      </trkpt>
      <trkpt lat="45.67608" lon="6.32201">
        <ele>965.38057</ele>
        <time>2021-06-23T11:08:36.116Z</time>
      </trkpt>
      <trkpt lat="45.67599" lon="6.32192">
        <ele>966.97019</ele>
        <time>2021-06-23T11:08:42.121Z</time>
      </trkpt>
      <trkpt lat="45.67593" lon="6.32181">
        <ele>968.649762</ele>
        <time>2021-06-23T11:08:47.124Z</time>
      </trkpt>
      <trkpt lat="45.67586" lon="6.32168">
        <ele>970.379696</ele>
        <time>2021-06-23T11:08:51.115Z</time>
      </trkpt>
      <trkpt lat="45.6758" lon="6.32158">
        <ele>971.788399</ele>
        <time>2021-06-23T11:08:57.128Z</time>
      </trkpt>
      <trkpt lat="45.67576" lon="6.32144">
        <ele>973.443341</ele>
        <time>2021-06-23T11:09:02.120Z</time>
      </trkpt>
      <trkpt lat="45.6757" lon="6.32132">
        <ele>974.33711</ele>
        <time>2021-06-23T11:09:10.120Z</time>
      </trkpt>
      <trkpt lat="45.67562" lon="6.32121">
        <ele>974.307049</ele>
        <time>2021-06-23T11:09:16.124Z</time>
      </trkpt>
      <trkpt lat="45.67555" lon="6.3211">
        <ele>974.27786</ele>
        <time>2021-06-23T11:09:22.121Z</time>
      </trkpt>
      <trkpt lat="45.67549" lon="6.32099">
        <ele>974.248648</ele>
        <time>2021-06-23T11:09:28.121Z</time>
      </trkpt>
      <trkpt lat="45.67542" lon="6.32088">
        <ele>974.219602</ele>
        <time>2021-06-23T11:09:34.127Z</time>
      </trkpt>
      <trkpt lat="45.67535" lon="6.32079">
        <ele>974.191811</ele>
        <time>2021-06-23T11:09:40.139Z</time>
      </trkpt>
      <trkpt lat="45.67529" lon="6.32067">
        <ele>974.162328</ele>
        <time>2021-06-23T11:09:46.124Z</time>
      </trkpt>
      <trkpt lat="45.67522" lon="6.32055">
        <ele>974.131586</ele>
        <time>2021-06-23T11:09:52.119Z</time>
      </trkpt>
      <trkpt lat="45.67514" lon="6.32045">
        <ele>974.100622</ele>
        <time>2021-06-23T11:09:58.132Z</time>
      </trkpt>
      <trkpt lat="45.67507" lon="6.32034">
        <ele>974.071049</ele>
        <time>2021-06-23T11:10:04.111Z</time>
      </trkpt>
      <trkpt lat="45.67501" lon="6.32023">
        <ele>974.043189</ele>
        <time>2021-06-23T11:10:09.117Z</time>
      </trkpt>
      <trkpt lat="45.67494" lon="6.32014">
        <ele>974.016336</ele>
        <time>2021-06-23T11:10:14.116Z</time>
      </trkpt>
      <trkpt lat="45.67487" lon="6.32003">
        <ele>973.988123</ele>
        <time>2021-06-23T11:10:19.111Z</time>
      </trkpt>
      <trkpt lat="45.67479" lon="6.31998">
        <ele>973.961027</ele>
        <time>2021-06-23T11:10:24.126Z</time>
      </trkpt>
      <trkpt lat="45.6747" lon="6.31991">
        <ele>973.931585</ele>
        <time>2021-06-23T11:10:30.116Z</time>
      </trkpt>
      <trkpt lat="45.67463" lon="6.3198">
        <ele>973.903999</ele>
        <time>2021-06-23T11:10:36.115Z</time>
      </trkpt>
      <trkpt lat="45.67458" lon="6.31968">
        <ele>973.875339</ele>
        <time>2021-06-23T11:10:42.115Z</time>
      </trkpt>
      <trkpt lat="45.6745" lon="6.3196">
        <ele>973.848136</ele>
        <time>2021-06-23T11:10:47.109Z</time>
      </trkpt>
      <trkpt lat="45.67442" lon="6.31951">
        <ele>974.236039</ele>
        <time>2021-06-23T11:10:52.116Z</time>
      </trkpt>
      <trkpt lat="45.67433" lon="6.31943">
        <ele>974.903141</ele>
        <time>2021-06-23T11:10:58.113Z</time>
      </trkpt>
      <trkpt lat="45.67425" lon="6.31934">
        <ele>975.53946</ele>
        <time>2021-06-23T11:11:04.115Z</time>
      </trkpt>
      <trkpt lat="45.6742" lon="6.31922">
        <ele>976.15918</ele>
        <time>2021-06-23T11:11:09.117Z</time>
      </trkpt>
      <trkpt lat="45.67414" lon="6.31909">
        <ele>976.834945</ele>
        <time>2021-06-23T11:11:15.118Z</time>
      </trkpt>
      <trkpt lat="45.67407" lon="6.319">
        <ele>977.419883</ele>
        <time>2021-06-23T11:11:20.120Z</time>
      </trkpt>
      <trkpt lat="45.674" lon="6.3189">
        <ele>978.060489</ele>
        <time>2021-06-23T11:11:25.125Z</time>
      </trkpt>
      <trkpt lat="45.67398" lon="6.31876">
        <ele>978.699102</ele>
        <time>2021-06-23T11:11:45.143Z</time>
      </trkpt>
      <trkpt lat="45.67394" lon="6.31863">
        <ele>979.29044</ele>
        <time>2021-06-23T11:12:11.133Z</time>
      </trkpt>
      <trkpt lat="45.67388" lon="6.31854">
        <ele>979.865882</ele>
        <time>2021-06-23T11:12:20.125Z</time>
      </trkpt>
      <trkpt lat="45.67382" lon="6.31842">
        <ele>980.520081</ele>
        <time>2021-06-23T11:13:03.118Z</time>
      </trkpt>
      <trkpt lat="45.67382" lon="6.31829">
        <ele>981.102138</ele>
        <time>2021-06-23T11:13:16.128Z</time>
      </trkpt>
      <trkpt lat="45.67382" lon="6.31811">
        <ele>981.891357</ele>
        <time>2021-06-23T11:13:20.123Z</time>
      </trkpt>
      <trkpt lat="45.67386" lon="6.31798">
        <ele>982.5135</ele>
        <time>2021-06-23T11:13:44.121Z</time>
      </trkpt>
      <trkpt lat="45.67388" lon="6.31784">
        <ele>983.15406</ele>
        <time>2021-06-23T11:13:57.118Z</time>
      </trkpt>
      <trkpt lat="45.67402" lon="6.31765">
        <ele>984.391162</ele>
        <time>2021-06-23T11:14:55.136Z</time>
      </trkpt>
      <trkpt lat="45.67404" lon="6.31751">
        <ele>984.983197</ele>
        <time>2021-06-23T11:15:06.120Z</time>
      </trkpt>
      <trkpt lat="45.67414" lon="6.31749">
        <ele>986.330381</ele>
        <time>2021-06-23T11:15:15.118Z</time>
      </trkpt>
      <trkpt lat="45.67422" lon="6.31742">
        <ele>987.904838</ele>
        <time>2021-06-23T11:15:34.126Z</time>
      </trkpt>
      <trkpt lat="45.67431" lon="6.31737">
        <ele>989.431712</ele>
        <time>2021-06-23T11:15:56.131Z</time>
      </trkpt>
      <trkpt lat="45.67436" lon="6.31726">
        <ele>990.997247</ele>
        <time>2021-06-23T11:16:13.113Z</time>
      </trkpt>
      <trkpt lat="45.67443" lon="6.31715">
        <ele>992.649987</ele>
        <time>2021-06-23T11:16:27.120Z</time>
      </trkpt>
      <trkpt lat="45.67452" lon="6.3171">
        <ele>994.259918</ele>
        <time>2021-06-23T11:16:39.118Z</time>
      </trkpt>
      <trkpt lat="45.67445" lon="6.31701">
        <ele>995.796838</ele>
        <time>2021-06-23T11:16:53.128Z</time>
      </trkpt>
      <trkpt lat="45.67438" lon="6.31692">
        <ele>997.305583</ele>
        <time>2021-06-23T11:17:05.132Z</time>
      </trkpt>
      <trkpt lat="45.67433" lon="6.31681">
        <ele>998.87115</ele>
        <time>2021-06-23T11:17:16.126Z</time>
      </trkpt>
      <trkpt lat="45.67438" lon="6.31669">
        <ele>1000.437951</ele>
        <time>2021-06-23T11:17:38.120Z</time>
      </trkpt>
      <trkpt lat="45.67446" lon="6.31661">
        <ele>1002.078948</ele>
        <time>2021-06-23T11:17:44.122Z</time>
      </trkpt>
      <trkpt lat="45.67455" lon="6.31658">
        <ele>1003.63021</ele>
        <time>2021-06-23T11:17:52.113Z</time>
      </trkpt>
      <trkpt lat="45.67464" lon="6.31645">
        <ele>1005.671356</ele>
        <time>2021-06-23T11:18:17.122Z</time>
      </trkpt>
      <trkpt lat="45.67467" lon="6.31632">
        <ele>1007.264519</ele>
        <time>2021-06-23T11:18:33.115Z</time>
      </trkpt>
      <trkpt lat="45.67469" lon="6.31616">
        <ele>1009.137189</ele>
        <time>2021-06-23T11:18:41.107Z</time>
      </trkpt>
      <trkpt lat="45.67472" lon="6.31603">
        <ele>1010.767149</ele>
        <time>2021-06-23T11:18:48.129Z</time>
      </trkpt>
      <trkpt lat="45.67476" lon="6.31591">
        <ele>1012.262498</ele>
        <time>2021-06-23T11:18:56.115Z</time>
      </trkpt>
      <trkpt lat="45.6748" lon="6.31577">
        <ele>1013.989724</ele>
        <time>2021-06-23T11:19:13.112Z</time>
      </trkpt>
      <trkpt lat="45.67481" lon="6.31563">
        <ele>1014.994216</ele>
        <time>2021-06-23T11:19:21.112Z</time>
      </trkpt>
      <trkpt lat="45.67486" lon="6.31551">
        <ele>1015.424879</ele>
        <time>2021-06-23T11:19:39.135Z</time>
      </trkpt>
      <trkpt lat="45.67489" lon="6.31537">
        <ele>1015.850611</ele>
        <time>2021-06-23T11:19:46.136Z</time>
      </trkpt>
      <trkpt lat="45.67491" lon="6.31521">
        <ele>1016.323368</ele>
        <time>2021-06-23T11:19:50.117Z</time>
      </trkpt>
      <trkpt lat="45.67494" lon="6.31508">
        <ele>1016.733185</ele>
        <time>2021-06-23T11:19:55.115Z</time>
      </trkpt>
      <trkpt lat="45.67498" lon="6.31495">
        <ele>1017.152937</ele>
        <time>2021-06-23T11:20:02.111Z</time>
      </trkpt>
      <trkpt lat="45.67506" lon="6.31487">
        <ele>1017.543424</ele>
        <time>2021-06-23T11:20:07.117Z</time>
      </trkpt>
      <trkpt lat="45.67515" lon="6.31483">
        <ele>1017.949981</ele>
        <time>2021-06-23T11:20:14.116Z</time>
      </trkpt>
      <trkpt lat="45.67524" lon="6.31478">
        <ele>1018.350571</ele>
        <time>2021-06-23T11:20:20.119Z</time>
      </trkpt>
      <trkpt lat="45.67534" lon="6.31474">
        <ele>1018.807345</ele>
        <time>2021-06-23T11:20:27.117Z</time>
      </trkpt>
      <trkpt lat="45.67543" lon="6.31473">
        <ele>1019.191032</ele>
        <time>2021-06-23T11:20:32.130Z</time>
      </trkpt>
      <trkpt lat="45.67552" lon="6.31469">
        <ele>1019.580822</ele>
        <time>2021-06-23T11:20:37.127Z</time>
      </trkpt>
      <trkpt lat="45.67561" lon="6.31462">
        <ele>1020.02971</ele>
        <time>2021-06-23T11:20:43.115Z</time>
      </trkpt>
      <trkpt lat="45.67569" lon="6.31455">
        <ele>1020.42084</ele>
        <time>2021-06-23T11:20:48.126Z</time>
      </trkpt>
      <trkpt lat="45.67578" lon="6.31448">
        <ele>1020.821485</ele>
        <time>2021-06-23T11:20:53.119Z</time>
      </trkpt>
      <trkpt lat="45.67586" lon="6.3144">
        <ele>1021.23809</ele>
        <time>2021-06-23T11:20:57.115Z</time>
      </trkpt>
      <trkpt lat="45.67595" lon="6.31434">
        <ele>1021.660279</ele>
        <time>2021-06-23T11:21:01.113Z</time>
      </trkpt>
      <trkpt lat="45.67606" lon="6.3143">
        <ele>1022.132109</ele>
        <time>2021-06-23T11:21:06.114Z</time>
      </trkpt>
      <trkpt lat="45.67615" lon="6.31426">
        <ele>1022.59248</ele>
        <time>2021-06-23T11:21:11.117Z</time>
      </trkpt>
      <trkpt lat="45.67624" lon="6.31425">
        <ele>1023.066988</ele>
        <time>2021-06-23T11:21:16.132Z</time>
      </trkpt>
      <trkpt lat="45.67634" lon="6.3143">
        <ele>1023.584451</ele>
        <time>2021-06-23T11:21:21.118Z</time>
      </trkpt>
      <trkpt lat="45.67642" lon="6.31437">
        <ele>1024.059103</ele>
        <time>2021-06-23T11:21:25.122Z</time>
      </trkpt>
      <trkpt lat="45.67651" lon="6.31441">
        <ele>1024.585935</ele>
        <time>2021-06-23T11:21:31.110Z</time>
      </trkpt>
      <trkpt lat="45.67662" lon="6.3144">
        <ele>1025.148597</ele>
        <time>2021-06-23T11:21:36.115Z</time>
      </trkpt>
      <trkpt lat="45.6767" lon="6.31434">
        <ele>1025.62422</ele>
        <time>2021-06-23T11:21:41.139Z</time>
      </trkpt>
      <trkpt lat="45.67682" lon="6.31435">
        <ele>1026.22378</ele>
        <time>2021-06-23T11:21:45.120Z</time>
      </trkpt>
      <trkpt lat="45.67691" lon="6.31439">
        <ele>1026.721572</ele>
        <time>2021-06-23T11:21:47.120Z</time>
      </trkpt>
      <trkpt lat="45.67701" lon="6.31445">
        <ele>1027.304298</ele>
        <time>2021-06-23T11:21:50.110Z</time>
      </trkpt>
      <trkpt lat="45.6771" lon="6.31448">
        <ele>1027.780569</ele>
        <time>2021-06-23T11:21:53.111Z</time>
      </trkpt>
      <trkpt lat="45.67719" lon="6.31453">
        <ele>1028.294602</ele>
        <time>2021-06-23T11:21:56.117Z</time>
      </trkpt>
      <trkpt lat="45.67728" lon="6.31458">
        <ele>1028.810566</ele>
        <time>2021-06-23T11:21:59.108Z</time>
      </trkpt>
      <trkpt lat="45.67739" lon="6.3146">
        <ele>1029.358715</ele>
        <time>2021-06-23T11:22:02.121Z</time>
      </trkpt>
      <trkpt lat="45.67742" lon="6.31445">
        <ele>1029.936472</ele>
        <time>2021-06-23T11:22:08.087Z</time>
      </trkpt>
      <trkpt lat="45.67742" lon="6.31424">
        <ele>1030.708308</ele>
        <time>2021-06-23T11:22:11.109Z</time>
      </trkpt>
      <trkpt lat="45.67739" lon="6.31405">
        <ele>1031.431067</ele>
        <time>2021-06-23T11:22:12.118Z</time>
      </trkpt>
      <trkpt lat="45.67734" lon="6.31385">
        <ele>1031.75486</ele>
        <time>2021-06-23T11:22:13.113Z</time>
      </trkpt>
      <trkpt lat="45.67731" lon="6.3137">
        <ele>1031.773733</ele>
        <time>2021-06-23T11:22:14.119Z</time>
      </trkpt>
      <trkpt lat="45.67744" lon="6.31365">
        <ele>1031.796785</ele>
        <time>2021-06-23T11:22:19.114Z</time>
      </trkpt>
      <trkpt lat="45.67757" lon="6.31371">
        <ele>1031.81997</ele>
        <time>2021-06-23T11:22:22.109Z</time>
      </trkpt>
      <trkpt lat="45.67768" lon="6.31378">
        <ele>1031.840432</ele>
        <time>2021-06-23T11:22:25.108Z</time>
      </trkpt>
      <trkpt lat="45.67778" lon="6.31379">
        <ele>1031.858391</ele>
        <time>2021-06-23T11:22:29.122Z</time>
      </trkpt>
      <trkpt lat="45.67791" lon="6.31381">
        <ele>1031.880285</ele>
        <time>2021-06-23T11:22:31.142Z</time>
      </trkpt>
      <trkpt lat="45.678" lon="6.31384">
        <ele>1031.89634</ele>
        <time>2021-06-23T11:22:34.120Z</time>
      </trkpt>
      <trkpt lat="45.67811" lon="6.31389">
        <ele>1031.917334</ele>
        <time>2021-06-23T11:22:40.119Z</time>
      </trkpt>
      <trkpt lat="45.6782" lon="6.31398">
        <ele>1031.935782</ele>
        <time>2021-06-23T11:22:46.113Z</time>
      </trkpt>
      <trkpt lat="45.67828" lon="6.31407">
        <ele>1031.953346</ele>
        <time>2021-06-23T11:22:52.112Z</time>
      </trkpt>
      <trkpt lat="45.67838" lon="6.31412">
        <ele>1031.972688</ele>
        <time>2021-06-23T11:22:58.105Z</time>
      </trkpt>
      <trkpt lat="45.6785" lon="6.31413">
        <ele>1031.992577</ele>
        <time>2021-06-23T11:23:04.116Z</time>
      </trkpt>
      <trkpt lat="45.67859" lon="6.31419">
        <ele>1032.009045</ele>
        <time>2021-06-23T11:23:08.113Z</time>
      </trkpt>
      <trkpt lat="45.67869" lon="6.3142">
        <ele>1032.026328</ele>
        <time>2021-06-23T11:23:13.129Z</time>
      </trkpt>
      <trkpt lat="45.67878" lon="6.31419">
        <ele>1032.043236</ele>
        <time>2021-06-23T11:23:20.122Z</time>
      </trkpt>
      <trkpt lat="45.67887" lon="6.31415">
        <ele>1032.370559</ele>
        <time>2021-06-23T11:23:27.150Z</time>
      </trkpt>
      <trkpt lat="45.67894" lon="6.31405">
        <ele>1032.995127</ele>
        <time>2021-06-23T11:23:35.116Z</time>
      </trkpt>
      <trkpt lat="45.67899" lon="6.31393">
        <ele>1033.623143</ele>
        <time>2021-06-23T11:23:41.117Z</time>
      </trkpt>
      <trkpt lat="45.67907" lon="6.31385">
        <ele>1034.207947</ele>
        <time>2021-06-23T11:23:47.115Z</time>
      </trkpt>
      <trkpt lat="45.67916" lon="6.31392">
        <ele>1034.836281</ele>
        <time>2021-06-23T11:23:50.106Z</time>
      </trkpt>
      <trkpt lat="45.67924" lon="6.314">
        <ele>1035.469308</ele>
        <time>2021-06-23T11:23:53.122Z</time>
      </trkpt>
      <trkpt lat="45.67935" lon="6.3141">
        <ele>1036.283301</ele>
        <time>2021-06-23T11:23:57.116Z</time>
      </trkpt>
      <trkpt lat="45.67944" lon="6.31414">
        <ele>1036.874928</ele>
        <time>2021-06-23T11:24:03.116Z</time>
      </trkpt>
      <trkpt lat="45.67953" lon="6.31418">
        <ele>1037.438972</ele>
        <time>2021-06-23T11:24:09.124Z</time>
      </trkpt>
      <trkpt lat="45.67962" lon="6.31412">
        <ele>1038.106785</ele>
        <time>2021-06-23T11:24:15.126Z</time>
      </trkpt>
      <trkpt lat="45.67973" lon="6.31409">
        <ele>1038.786874</ele>
        <time>2021-06-23T11:24:20.124Z</time>
      </trkpt>
      <trkpt lat="45.67984" lon="6.31406">
        <ele>1039.492349</ele>
        <time>2021-06-23T11:24:28.116Z</time>
      </trkpt>
      <trkpt lat="45.67994" lon="6.31405">
        <ele>1040.130625</ele>
        <time>2021-06-23T11:24:33.119Z</time>
      </trkpt>
      <trkpt lat="45.68004" lon="6.31404">
        <ele>1040.726201</ele>
        <time>2021-06-23T11:24:40.118Z</time>
      </trkpt>
      <trkpt lat="45.68013" lon="6.31407">
        <ele>1041.284736</ele>
        <time>2021-06-23T11:24:45.113Z</time>
      </trkpt>
      <trkpt lat="45.68023" lon="6.31408">
        <ele>1041.949552</ele>
        <time>2021-06-23T11:24:51.117Z</time>
      </trkpt>
      <trkpt lat="45.68034" lon="6.31411">
        <ele>1042.605361</ele>
        <time>2021-06-23T11:24:58.127Z</time>
      </trkpt>
      <trkpt lat="45.68042" lon="6.31416">
        <ele>1043.197332</ele>
        <time>2021-06-23T11:25:02.118Z</time>
      </trkpt>
      <trkpt lat="45.68051" lon="6.31424">
        <ele>1044.616356</ele>
        <time>2021-06-23T11:25:08.128Z</time>
      </trkpt>
      <trkpt lat="45.68059" lon="6.31431">
        <ele>1045.971461</ele>
        <time>2021-06-23T11:25:13.122Z</time>
      </trkpt>
      <trkpt lat="45.68068" lon="6.31439">
        <ele>1047.519887</ele>
        <time>2021-06-23T11:25:19.118Z</time>
      </trkpt>
      <trkpt lat="45.68077" lon="6.31444">
        <ele>1049.02665</ele>
        <time>2021-06-23T11:25:25.112Z</time>
      </trkpt>
      <trkpt lat="45.68087" lon="6.31446">
        <ele>1050.448513</ele>
        <time>2021-06-23T11:25:32.119Z</time>
      </trkpt>
      <trkpt lat="45.68096" lon="6.31449">
        <ele>1051.855777</ele>
        <time>2021-06-23T11:25:38.114Z</time>
      </trkpt>
      <trkpt lat="45.68104" lon="6.31456">
        <ele>1053.292792</ele>
        <time>2021-06-23T11:25:40.119Z</time>
      </trkpt>
      <trkpt lat="45.68113" lon="6.31462">
        <ele>1054.658723</ele>
        <time>2021-06-23T11:25:45.114Z</time>
      </trkpt>
      <trkpt lat="45.68123" lon="6.31466">
        <ele>1056.199326</ele>
        <time>2021-06-23T11:25:51.122Z</time>
      </trkpt>
      <trkpt lat="45.68131" lon="6.31473">
        <ele>1057.579857</ele>
        <time>2021-06-23T11:25:57.145Z</time>
      </trkpt>
      <trkpt lat="45.68134" lon="6.3146">
        <ele>1058.990052</ele>
        <time>2021-06-23T11:26:14.121Z</time>
      </trkpt>
      <trkpt lat="45.68142" lon="6.31454">
        <ele>1060.35649</ele>
        <time>2021-06-23T11:26:29.116Z</time>
      </trkpt>
      <trkpt lat="45.68149" lon="6.31445">
        <ele>1061.800426</ele>
        <time>2021-06-23T11:26:54.150Z</time>
      </trkpt>
      <trkpt lat="45.68159" lon="6.31445">
        <ele>1063.22498</ele>
        <time>2021-06-23T11:27:04.121Z</time>
      </trkpt>
      <trkpt lat="45.68168" lon="6.3145">
        <ele>1064.604672</ele>
        <time>2021-06-23T11:27:12.120Z</time>
      </trkpt>
      <trkpt lat="45.68178" lon="6.31448">
        <ele>1066.12956</ele>
        <time>2021-06-23T11:27:23.112Z</time>
      </trkpt>
      <trkpt lat="45.68188" lon="6.3145">
        <ele>1067.661653</ele>
        <time>2021-06-23T11:27:27.118Z</time>
      </trkpt>
      <trkpt lat="45.68199" lon="6.31452">
        <ele>1069.273767</ele>
        <time>2021-06-23T11:27:32.131Z</time>
      </trkpt>
      <trkpt lat="45.68208" lon="6.31453">
        <ele>1070.501144</ele>
        <time>2021-06-23T11:27:38.119Z</time>
      </trkpt>
      <trkpt lat="45.68217" lon="6.31448">
        <ele>1071.523105</ele>
        <time>2021-06-23T11:27:49.114Z</time>
      </trkpt>
      <trkpt lat="45.68225" lon="6.31456">
        <ele>1072.573597</ele>
        <time>2021-06-23T11:28:26.118Z</time>
      </trkpt>
      <trkpt lat="45.68235" lon="6.31458">
        <ele>1073.689657</ele>
        <time>2021-06-23T11:28:33.138Z</time>
      </trkpt>
      <trkpt lat="45.68245" lon="6.31462">
        <ele>1074.803584</ele>
        <time>2021-06-23T11:28:40.139Z</time>
      </trkpt>
      <trkpt lat="45.68256" lon="6.31466">
        <ele>1075.95178</ele>
        <time>2021-06-23T11:28:46.142Z</time>
      </trkpt>
      <trkpt lat="45.68267" lon="6.31466">
        <ele>1077.129903</ele>
        <time>2021-06-23T11:28:55.123Z</time>
      </trkpt>
      <trkpt lat="45.68274" lon="6.31474">
        <ele>1078.198702</ele>
        <time>2021-06-23T11:29:00.134Z</time>
      </trkpt>
      <trkpt lat="45.68284" lon="6.31478">
        <ele>1079.235773</ele>
        <time>2021-06-23T11:29:08.137Z</time>
      </trkpt>
      <trkpt lat="45.68294" lon="6.31479">
        <ele>1080.328081</ele>
        <time>2021-06-23T11:29:13.131Z</time>
      </trkpt>
      <trkpt lat="45.68302" lon="6.31485">
        <ele>1081.375733</ele>
        <time>2021-06-23T11:29:22.121Z</time>
      </trkpt>
      <trkpt lat="45.68311" lon="6.31492">
        <ele>1082.473342</ele>
        <time>2021-06-23T11:29:28.130Z</time>
      </trkpt>
      <trkpt lat="45.68319" lon="6.31499">
        <ele>1083.464411</ele>
        <time>2021-06-23T11:29:33.122Z</time>
      </trkpt>
      <trkpt lat="45.68328" lon="6.31504">
        <ele>1084.520225</ele>
        <time>2021-06-23T11:29:39.128Z</time>
      </trkpt>
      <trkpt lat="45.68337" lon="6.31511">
        <ele>1085.616622</ele>
        <time>2021-06-23T11:29:45.131Z</time>
      </trkpt>
      <trkpt lat="45.68342" lon="6.31522">
        <ele>1086.613907</ele>
        <time>2021-06-23T11:30:09.117Z</time>
      </trkpt>
      <trkpt lat="45.68344" lon="6.31536">
        <ele>1087.664046</ele>
        <time>2021-06-23T11:30:39.143Z</time>
      </trkpt>
      <trkpt lat="45.68352" lon="6.31543">
        <ele>1088.665854</ele>
        <time>2021-06-23T11:30:48.138Z</time>
      </trkpt>
      <trkpt lat="45.68362" lon="6.31545">
        <ele>1089.578276</ele>
        <time>2021-06-23T11:30:54.128Z</time>
      </trkpt>
      <trkpt lat="45.68369" lon="6.31553">
        <ele>1090.084742</ele>
        <time>2021-06-23T11:31:10.123Z</time>
      </trkpt>
      <trkpt lat="45.68376" lon="6.31563">
        <ele>1090.613579</ele>
        <time>2021-06-23T11:31:34.144Z</time>
      </trkpt>
      <trkpt lat="45.68368" lon="6.31571">
        <ele>1091.1374</ele>
        <time>2021-06-23T11:32:04.124Z</time>
      </trkpt>
      <trkpt lat="45.68367" lon="6.31584">
        <ele>1091.643271</ele>
        <time>2021-06-23T11:32:19.147Z</time>
      </trkpt>
      <trkpt lat="45.68362" lon="6.31596">
        <ele>1092.189214</ele>
        <time>2021-06-23T11:32:39.133Z</time>
      </trkpt>
      <trkpt lat="45.68352" lon="6.31597">
        <ele>1092.759397</ele>
        <time>2021-06-23T11:32:44.134Z</time>
      </trkpt>
      <trkpt lat="45.68339" lon="6.3159">
        <ele>1093.539191</ele>
        <time>2021-06-23T11:32:50.133Z</time>
      </trkpt>
      <trkpt lat="45.68329" lon="6.31587">
        <ele>1094.081179</ele>
        <time>2021-06-23T11:32:53.127Z</time>
      </trkpt>
      <trkpt lat="45.68314" lon="6.31596">
        <ele>1095.019867</ele>
        <time>2021-06-23T11:33:02.131Z</time>
      </trkpt>
      <trkpt lat="45.68304" lon="6.31592">
        <ele>1095.606802</ele>
        <time>2021-06-23T11:33:07.134Z</time>
      </trkpt>
      <trkpt lat="45.68294" lon="6.31591">
        <ele>1096.147694</ele>
        <time>2021-06-23T11:33:13.147Z</time>
      </trkpt>
      <trkpt lat="45.68286" lon="6.31596">
        <ele>1096.654854</ele>
        <time>2021-06-23T11:33:17.163Z</time>
      </trkpt>
      <trkpt lat="45.68276" lon="6.316">
        <ele>1097.235282</ele>
        <time>2021-06-23T11:33:24.132Z</time>
      </trkpt>
      <trkpt lat="45.68266" lon="6.316">
        <ele>1097.776646</ele>
        <time>2021-06-23T11:33:28.143Z</time>
      </trkpt>
      <trkpt lat="45.68256" lon="6.31599">
        <ele>1098.379312</ele>
        <time>2021-06-23T11:33:34.134Z</time>
      </trkpt>
      <trkpt lat="45.68246" lon="6.31599">
        <ele>1098.942627</ele>
        <time>2021-06-23T11:33:40.137Z</time>
      </trkpt>
      <trkpt lat="45.68236" lon="6.31603">
        <ele>1099.535242</ele>
        <time>2021-06-23T11:33:48.133Z</time>
      </trkpt>
      <trkpt lat="45.68227" lon="6.31608">
        <ele>1100.852676</ele>
        <time>2021-06-23T11:33:55.131Z</time>
      </trkpt>
      <trkpt lat="45.68216" lon="6.31609">
        <ele>1102.451813</ele>
        <time>2021-06-23T11:34:00.139Z</time>
      </trkpt>
      <trkpt lat="45.68206" lon="6.31615">
        <ele>1103.997586</ele>
        <time>2021-06-23T11:34:05.143Z</time>
      </trkpt>
      <trkpt lat="45.68196" lon="6.31617">
        <ele>1105.440606</ele>
        <time>2021-06-23T11:34:10.136Z</time>
      </trkpt>
      <trkpt lat="45.68187" lon="6.31622">
        <ele>1106.778753</ele>
        <time>2021-06-23T11:34:40.147Z</time>
      </trkpt>
      <trkpt lat="45.68177" lon="6.31624">
        <ele>1108.302499</ele>
        <time>2021-06-23T11:34:48.128Z</time>
      </trkpt>
      <trkpt lat="45.68168" lon="6.31625">
        <ele>1109.647823</ele>
        <time>2021-06-23T11:34:52.157Z</time>
      </trkpt>
      <trkpt lat="45.68158" lon="6.31631">
        <ele>1111.13847</ele>
        <time>2021-06-23T11:34:59.149Z</time>
      </trkpt>
      <trkpt lat="45.68148" lon="6.31632">
        <ele>1112.599677</ele>
        <time>2021-06-23T11:35:05.145Z</time>
      </trkpt>
      <trkpt lat="45.6814" lon="6.31637">
        <ele>1113.90138</ele>
        <time>2021-06-23T11:35:12.147Z</time>
      </trkpt>
      <trkpt lat="45.6813" lon="6.3164">
        <ele>1115.335845</ele>
        <time>2021-06-23T11:35:17.158Z</time>
      </trkpt>
      <trkpt lat="45.68121" lon="6.31644">
        <ele>1116.698483</ele>
        <time>2021-06-23T11:35:23.145Z</time>
      </trkpt>
      <trkpt lat="45.68112" lon="6.31649">
        <ele>1118.051585</ele>
        <time>2021-06-23T11:35:29.144Z</time>
      </trkpt>
      <trkpt lat="45.68105" lon="6.31656">
        <ele>1119.372438</ele>
        <time>2021-06-23T11:35:36.138Z</time>
      </trkpt>
      <trkpt lat="45.68095" lon="6.31664">
        <ele>1120.970623</ele>
        <time>2021-06-23T11:35:42.135Z</time>
      </trkpt>
      <trkpt lat="45.68089" lon="6.31675">
        <ele>1122.367855</ele>
        <time>2021-06-23T11:35:48.141Z</time>
      </trkpt>
      <trkpt lat="45.68088" lon="6.31688">
        <ele>1123.73403</ele>
        <time>2021-06-23T11:35:57.151Z</time>
      </trkpt>
      <trkpt lat="45.68085" lon="6.31701">
        <ele>1125.090559</ele>
        <time>2021-06-23T11:36:28.141Z</time>
      </trkpt>
      <trkpt lat="45.68096" lon="6.31706">
        <ele>1126.443279</ele>
        <time>2021-06-23T11:36:49.141Z</time>
      </trkpt>
      <trkpt lat="45.68105" lon="6.31705">
        <ele>1127.600117</ele>
        <time>2021-06-23T11:36:56.136Z</time>
      </trkpt>
      <trkpt lat="45.68117" lon="6.31711">
        <ele>1129.049985</ele>
        <time>2021-06-23T11:37:00.137Z</time>
      </trkpt>
      <trkpt lat="45.68127" lon="6.31709">
        <ele>1130.215565</ele>
        <time>2021-06-23T11:37:08.153Z</time>
      </trkpt>
      <trkpt lat="45.68136" lon="6.31706">
        <ele>1131.322778</ele>
        <time>2021-06-23T11:37:14.141Z</time>
      </trkpt>
      <trkpt lat="45.68146" lon="6.31704">
        <ele>1132.529295</ele>
        <time>2021-06-23T11:37:20.136Z</time>
      </trkpt>
      <trkpt lat="45.68156" lon="6.31702">
        <ele>1133.751084</ele>
        <time>2021-06-23T11:37:27.160Z</time>
      </trkpt>
      <trkpt lat="45.68166" lon="6.3171">
        <ele>1135.034582</ele>
        <time>2021-06-23T11:37:34.143Z</time>
      </trkpt>
      <trkpt lat="45.68173" lon="6.3172">
        <ele>1136.25122</ele>
        <time>2021-06-23T11:37:38.142Z</time>
      </trkpt>
      <trkpt lat="45.68181" lon="6.31732">
        <ele>1137.581573</ele>
        <time>2021-06-23T11:37:43.126Z</time>
      </trkpt>
      <trkpt lat="45.68188" lon="6.31742">
        <ele>1138.737763</ele>
        <time>2021-06-23T11:37:48.125Z</time>
      </trkpt>
      <trkpt lat="45.68197" lon="6.31751">
        <ele>1140.022904</ele>
        <time>2021-06-23T11:37:53.161Z</time>
      </trkpt>
      <trkpt lat="45.68203" lon="6.31764">
        <ele>1141.339161</ele>
        <time>2021-06-23T11:37:57.131Z</time>
      </trkpt>
      <trkpt lat="45.68208" lon="6.31778">
        <ele>1142.54732</ele>
        <time>2021-06-23T11:38:01.132Z</time>
      </trkpt>
      <trkpt lat="45.68212" lon="6.31791">
        <ele>1143.715845</ele>
        <time>2021-06-23T11:38:05.185Z</time>
      </trkpt>
      <trkpt lat="45.68213" lon="6.31803">
        <ele>1144.781851</ele>
        <time>2021-06-23T11:38:13.142Z</time>
      </trkpt>
      <trkpt lat="45.68211" lon="6.31817">
        <ele>1145.941232</ele>
        <time>2021-06-23T11:38:29.146Z</time>
      </trkpt>
      <trkpt lat="45.68217" lon="6.31828">
        <ele>1147.001627</ele>
        <time>2021-06-23T11:38:36.125Z</time>
      </trkpt>
      <trkpt lat="45.68225" lon="6.31822">
        <ele>1148.024838</ele>
        <time>2021-06-23T11:38:54.132Z</time>
      </trkpt>
      <trkpt lat="45.68235" lon="6.31817">
        <ele>1149.091462</ele>
        <time>2021-06-23T11:39:01.143Z</time>
      </trkpt>
      <trkpt lat="45.68238" lon="6.31829">
        <ele>1150.043806</ele>
        <time>2021-06-23T11:39:10.133Z</time>
      </trkpt>
      <trkpt lat="45.68238" lon="6.31845">
        <ele>1151.163693</ele>
        <time>2021-06-23T11:39:16.137Z</time>
      </trkpt>
      <trkpt lat="45.68232" lon="6.31857">
        <ele>1152.212531</ele>
        <time>2021-06-23T11:39:22.132Z</time>
      </trkpt>
      <trkpt lat="45.68227" lon="6.31869">
        <ele>1153.252507</ele>
        <time>2021-06-23T11:39:27.132Z</time>
      </trkpt>
      <trkpt lat="45.68218" lon="6.31877">
        <ele>1154.358941</ele>
        <time>2021-06-23T11:39:32.131Z</time>
      </trkpt>
      <trkpt lat="45.68211" lon="6.31885">
        <ele>1155.315971</ele>
        <time>2021-06-23T11:39:37.136Z</time>
      </trkpt>
      <trkpt lat="45.68204" lon="6.31895">
        <ele>1156.348329</ele>
        <time>2021-06-23T11:39:44.139Z</time>
      </trkpt>
      <trkpt lat="45.68211" lon="6.31887">
        <ele>1157.326565</ele>
        <time>2021-06-23T11:40:34.125Z</time>
      </trkpt>
      <trkpt lat="45.6822" lon="6.31885">
        <ele>1158.282891</ele>
        <time>2021-06-23T11:40:44.129Z</time>
      </trkpt>
      <trkpt lat="45.68231" lon="6.31885">
        <ele>1159.339621</ele>
        <time>2021-06-23T11:40:53.124Z</time>
      </trkpt>
      <trkpt lat="45.68241" lon="6.31884">
        <ele>1160.421891</ele>
        <time>2021-06-23T11:41:02.121Z</time>
      </trkpt>
      <trkpt lat="45.68251" lon="6.31882">
        <ele>1161.459544</ele>
        <time>2021-06-23T11:41:11.124Z</time>
      </trkpt>
      <trkpt lat="45.68261" lon="6.31881">
        <ele>1162.498241</ele>
        <time>2021-06-23T11:41:20.131Z</time>
      </trkpt>
      <trkpt lat="45.68269" lon="6.31877">
        <ele>1163.449725</ele>
        <time>2021-06-23T11:41:30.126Z</time>
      </trkpt>
      <trkpt lat="45.68279" lon="6.31872">
        <ele>1164.472039</ele>
        <time>2021-06-23T11:41:37.135Z</time>
      </trkpt>
      <trkpt lat="45.68288" lon="6.31869">
        <ele>1165.51262</ele>
        <time>2021-06-23T11:41:45.147Z</time>
      </trkpt>
      <trkpt lat="45.68298" lon="6.31864">
        <ele>1165.999669</ele>
        <time>2021-06-23T11:41:59.127Z</time>
      </trkpt>
      <trkpt lat="45.68306" lon="6.31858">
        <ele>1166.462359</ele>
        <time>2021-06-23T11:42:10.116Z</time>
      </trkpt>
      <trkpt lat="45.68315" lon="6.31856">
        <ele>1166.910736</ele>
        <time>2021-06-23T11:42:15.134Z</time>
      </trkpt>
      <trkpt lat="45.68324" lon="6.31858">
        <ele>1167.358331</ele>
        <time>2021-06-23T11:42:21.126Z</time>
      </trkpt>
      <trkpt lat="45.68334" lon="6.31855">
        <ele>1167.826539</ele>
        <time>2021-06-23T11:42:28.126Z</time>
      </trkpt>
      <trkpt lat="45.68343" lon="6.3185">
        <ele>1168.339949</ele>
        <time>2021-06-23T11:42:38.126Z</time>
      </trkpt>
      <trkpt lat="45.68352" lon="6.31855">
        <ele>1168.788084</ele>
        <time>2021-06-23T11:42:43.132Z</time>
      </trkpt>
      <trkpt lat="45.68361" lon="6.31851">
        <ele>1169.262985</ele>
        <time>2021-06-23T11:42:51.128Z</time>
      </trkpt>
      <trkpt lat="45.68371" lon="6.3185">
        <ele>1169.749499</ele>
        <time>2021-06-23T11:42:57.144Z</time>
      </trkpt>
      <trkpt lat="45.6838" lon="6.31848">
        <ele>1170.191876</ele>
        <time>2021-06-23T11:43:03.135Z</time>
      </trkpt>
      <trkpt lat="45.68397" lon="6.31856">
        <ele>1171.064556</ele>
        <time>2021-06-23T11:43:10.122Z</time>
      </trkpt>
      <trkpt lat="45.68406" lon="6.3186">
        <ele>1171.514173</ele>
        <time>2021-06-23T11:43:16.114Z</time>
      </trkpt>
      <trkpt lat="45.68416" lon="6.31856">
        <ele>1172.005994</ele>
        <time>2021-06-23T11:43:22.129Z</time>
      </trkpt>
      <trkpt lat="45.68416" lon="6.31843">
        <ele>1172.457083</ele>
        <time>2021-06-23T11:43:30.124Z</time>
      </trkpt>
      <trkpt lat="45.68413" lon="6.31829">
        <ele>1172.945411</ele>
        <time>2021-06-23T11:43:37.119Z</time>
      </trkpt>
      <trkpt lat="45.68418" lon="6.31818">
        <ele>1173.38204</ele>
        <time>2021-06-23T11:43:44.116Z</time>
      </trkpt>
      <trkpt lat="45.68427" lon="6.3182">
        <ele>1173.854421</ele>
        <time>2021-06-23T11:43:50.115Z</time>
      </trkpt>
      <trkpt lat="45.68437" lon="6.31822">
        <ele>1174.469256</ele>
        <time>2021-06-23T11:43:56.114Z</time>
      </trkpt>
      <trkpt lat="45.68446" lon="6.31821">
        <ele>1176.092018</ele>
        <time>2021-06-23T11:44:01.126Z</time>
      </trkpt>
      <trkpt lat="45.68455" lon="6.31825">
        <ele>1177.70648</ele>
        <time>2021-06-23T11:44:06.116Z</time>
      </trkpt>
      <trkpt lat="45.68464" lon="6.31828">
        <ele>1179.286994</ele>
        <time>2021-06-23T11:44:12.118Z</time>
      </trkpt>
      <trkpt lat="45.68474" lon="6.31828">
        <ele>1181.163649</ele>
        <time>2021-06-23T11:44:20.119Z</time>
      </trkpt>
      <trkpt lat="45.68485" lon="6.31831">
        <ele>1183.042549</ele>
        <time>2021-06-23T11:44:25.124Z</time>
      </trkpt>
      <trkpt lat="45.68494" lon="6.31831">
        <ele>1184.672595</ele>
        <time>2021-06-23T11:44:31.131Z</time>
      </trkpt>
      <trkpt lat="45.68497" lon="6.31817">
        <ele>1186.401859</ele>
        <time>2021-06-23T11:44:48.135Z</time>
      </trkpt>
      <trkpt lat="45.68505" lon="6.3181">
        <ele>1188.15179</ele>
        <time>2021-06-23T11:44:58.128Z</time>
      </trkpt>
      <trkpt lat="45.68512" lon="6.31801">
        <ele>1189.779558</ele>
        <time>2021-06-23T11:45:05.122Z</time>
      </trkpt>
      <trkpt lat="45.68517" lon="6.31788">
        <ele>1191.528341</ele>
        <time>2021-06-23T11:45:14.114Z</time>
      </trkpt>
      <trkpt lat="45.68525" lon="6.31779">
        <ele>1193.323183</ele>
        <time>2021-06-23T11:45:30.127Z</time>
      </trkpt>
      <trkpt lat="45.68527" lon="6.31794">
        <ele>1195.310555</ele>
        <time>2021-06-23T11:45:43.115Z</time>
      </trkpt>
      <trkpt lat="45.68536" lon="6.31801">
        <ele>1197.041919</ele>
        <time>2021-06-23T11:45:54.118Z</time>
      </trkpt>
      <trkpt lat="45.68546" lon="6.31804">
        <ele>1198.786444</ele>
        <time>2021-06-23T11:46:01.109Z</time>
      </trkpt>
      <trkpt lat="45.68553" lon="6.31796">
        <ele>1200.468386</ele>
        <time>2021-06-23T11:46:12.138Z</time>
      </trkpt>
      <trkpt lat="45.68562" lon="6.31791">
        <ele>1202.081681</ele>
        <time>2021-06-23T11:46:19.109Z</time>
      </trkpt>
      <trkpt lat="45.68571" lon="6.31786">
        <ele>1203.866045</ele>
        <time>2021-06-23T11:46:30.112Z</time>
      </trkpt>
      <trkpt lat="45.68581" lon="6.31789">
        <ele>1205.52909</ele>
        <time>2021-06-23T11:46:36.116Z</time>
      </trkpt>
      <trkpt lat="45.68586" lon="6.31778">
        <ele>1207.14656</ele>
        <time>2021-06-23T11:46:45.124Z</time>
      </trkpt>
      <trkpt lat="45.68593" lon="6.3177">
        <ele>1208.883244</ele>
        <time>2021-06-23T11:46:54.116Z</time>
      </trkpt>
      <trkpt lat="45.68603" lon="6.31766">
        <ele>1210.769826</ele>
        <time>2021-06-23T11:47:00.119Z</time>
      </trkpt>
      <trkpt lat="45.68614" lon="6.31766">
        <ele>1212.688651</ele>
        <time>2021-06-23T11:47:08.116Z</time>
      </trkpt>
      <trkpt lat="45.68623" lon="6.31763">
        <ele>1214.39439</ele>
        <time>2021-06-23T11:47:15.121Z</time>
      </trkpt>
      <trkpt lat="45.68633" lon="6.31768">
        <ele>1216.256789</ele>
        <time>2021-06-23T11:47:19.123Z</time>
      </trkpt>
      <trkpt lat="45.68642" lon="6.31771">
        <ele>1217.956235</ele>
        <time>2021-06-23T11:47:24.114Z</time>
      </trkpt>
      <trkpt lat="45.68652" lon="6.31771">
        <ele>1219.748124</ele>
        <time>2021-06-23T11:47:30.108Z</time>
      </trkpt>
      <trkpt lat="45.68662" lon="6.31773">
        <ele>1221.480609</ele>
        <time>2021-06-23T11:47:36.118Z</time>
      </trkpt>
      <trkpt lat="45.68671" lon="6.31769">
        <ele>1223.164995</ele>
        <time>2021-06-23T11:47:44.112Z</time>
      </trkpt>
      <trkpt lat="45.6868" lon="6.31771">
        <ele>1224.827364</ele>
        <time>2021-06-23T11:48:06.118Z</time>
      </trkpt>
      <trkpt lat="45.68688" lon="6.3178">
        <ele>1226.674106</ele>
        <time>2021-06-23T11:48:14.121Z</time>
      </trkpt>
      <trkpt lat="45.68698" lon="6.31787">
        <ele>1228.737369</ele>
        <time>2021-06-23T11:48:19.113Z</time>
      </trkpt>
      <trkpt lat="45.68708" lon="6.31789">
        <ele>1230.409561</ele>
        <time>2021-06-23T11:48:24.119Z</time>
      </trkpt>
      <trkpt lat="45.68717" lon="6.31786">
        <ele>1232.139679</ele>
        <time>2021-06-23T11:48:34.119Z</time>
      </trkpt>
      <trkpt lat="45.68726" lon="6.31787">
        <ele>1233.788147</ele>
        <time>2021-06-23T11:48:41.111Z</time>
      </trkpt>
      <trkpt lat="45.68735" lon="6.31787">
        <ele>1235.454163</ele>
        <time>2021-06-23T11:48:48.122Z</time>
      </trkpt>
      <trkpt lat="45.68746" lon="6.31788">
        <ele>1237.33821</ele>
        <time>2021-06-23T11:48:55.136Z</time>
      </trkpt>
      <trkpt lat="45.68755" lon="6.31794">
        <ele>1239.157142</ele>
        <time>2021-06-23T11:49:00.119Z</time>
      </trkpt>
      <trkpt lat="45.68765" lon="6.31795">
        <ele>1240.902265</ele>
        <time>2021-06-23T11:49:07.110Z</time>
      </trkpt>
      <trkpt lat="45.68774" lon="6.31796">
        <ele>1242.45962</ele>
        <time>2021-06-23T11:49:41.109Z</time>
      </trkpt>
      <trkpt lat="45.68784" lon="6.31798">
        <ele>1244.150339</ele>
        <time>2021-06-23T11:49:47.108Z</time>
      </trkpt>
      <trkpt lat="45.68794" lon="6.31802">
        <ele>1245.88218</ele>
        <time>2021-06-23T11:49:54.112Z</time>
      </trkpt>
      <trkpt lat="45.68803" lon="6.318">
        <ele>1247.54468</ele>
        <time>2021-06-23T11:50:01.127Z</time>
      </trkpt>
      <trkpt lat="45.68813" lon="6.31799">
        <ele>1249.169996</ele>
        <time>2021-06-23T11:50:07.118Z</time>
      </trkpt>
      <trkpt lat="45.68821" lon="6.31796">
        <ele>1250.748954</ele>
        <time>2021-06-23T11:50:13.116Z</time>
      </trkpt>
      <trkpt lat="45.68832" lon="6.31795">
        <ele>1252.511303</ele>
        <time>2021-06-23T11:50:19.110Z</time>
      </trkpt>
      <trkpt lat="45.68842" lon="6.31796">
        <ele>1254.313433</ele>
        <time>2021-06-23T11:50:25.135Z</time>
      </trkpt>
      <trkpt lat="45.68852" lon="6.31798">
        <ele>1256.083676</ele>
        <time>2021-06-23T11:50:31.117Z</time>
      </trkpt>
      <trkpt lat="45.68861" lon="6.31802">
        <ele>1257.692635</ele>
        <time>2021-06-23T11:50:36.146Z</time>
      </trkpt>
      <trkpt lat="45.6887" lon="6.31804">
        <ele>1259.259714</ele>
        <time>2021-06-23T11:51:00.111Z</time>
      </trkpt>
      <trkpt lat="45.6888" lon="6.31811">
        <ele>1261.102357</ele>
        <time>2021-06-23T11:51:06.123Z</time>
      </trkpt>
      <trkpt lat="45.68888" lon="6.31815">
        <ele>1262.690479</ele>
        <time>2021-06-23T11:51:12.127Z</time>
      </trkpt>
      <trkpt lat="45.68898" lon="6.31817">
        <ele>1264.364123</ele>
        <time>2021-06-23T11:51:19.126Z</time>
      </trkpt>
      <trkpt lat="45.68908" lon="6.3182">
        <ele>1266.13453</ele>
        <time>2021-06-23T11:51:26.123Z</time>
      </trkpt>
      <trkpt lat="45.68918" lon="6.31821">
        <ele>1267.849654</ele>
        <time>2021-06-23T11:51:33.121Z</time>
      </trkpt>
      <trkpt lat="45.68928" lon="6.31825">
        <ele>1269.313042</ele>
        <time>2021-06-23T11:51:39.111Z</time>
      </trkpt>
      <trkpt lat="45.68937" lon="6.31832">
        <ele>1268.426827</ele>
        <time>2021-06-23T11:51:45.117Z</time>
      </trkpt>
      <trkpt lat="45.68947" lon="6.31838">
        <ele>1267.479418</ele>
        <time>2021-06-23T11:51:51.135Z</time>
      </trkpt>
      <trkpt lat="45.68956" lon="6.31845">
        <ele>1266.683138</ele>
        <time>2021-06-23T11:51:56.126Z</time>
      </trkpt>
      <trkpt lat="45.68963" lon="6.31854">
        <ele>1265.865879</ele>
        <time>2021-06-23T11:52:04.113Z</time>
      </trkpt>
      <trkpt lat="45.68968" lon="6.31868">
        <ele>1264.953166</ele>
        <time>2021-06-23T11:52:16.119Z</time>
      </trkpt>
      <trkpt lat="45.68977" lon="6.31876">
        <ele>1264.01811</ele>
        <time>2021-06-23T11:52:21.116Z</time>
      </trkpt>
      <trkpt lat="45.68986" lon="6.31883">
        <ele>1263.232036</ele>
        <time>2021-06-23T11:52:25.119Z</time>
      </trkpt>
      <trkpt lat="45.68995" lon="6.31886">
        <ele>1262.424168</ele>
        <time>2021-06-23T11:52:34.119Z</time>
      </trkpt>
      <trkpt lat="45.69004" lon="6.31886">
        <ele>1261.64087</ele>
        <time>2021-06-23T11:52:43.115Z</time>
      </trkpt>
      <trkpt lat="45.69013" lon="6.31893">
        <ele>1260.796385</ele>
        <time>2021-06-23T11:52:50.123Z</time>
      </trkpt>
      <trkpt lat="45.69024" lon="6.31902">
        <ele>1259.702255</ele>
        <time>2021-06-23T11:52:53.124Z</time>
      </trkpt>
      <trkpt lat="45.69047" lon="6.31906">
        <ele>1257.770302</ele>
        <time>2021-06-23T11:53:02.167Z</time>
      </trkpt>
      <trkpt lat="45.69059" lon="6.31914">
        <ele>1256.67279</ele>
        <time>2021-06-23T11:53:06.112Z</time>
      </trkpt>
      <trkpt lat="45.69066" lon="6.31923">
        <ele>1255.872146</ele>
        <time>2021-06-23T11:53:10.111Z</time>
      </trkpt>
      <trkpt lat="45.69069" lon="6.31936">
        <ele>1255.058938</ele>
        <time>2021-06-23T11:53:26.122Z</time>
      </trkpt>
      <trkpt lat="45.69072" lon="6.31923">
        <ele>1254.266942</ele>
        <time>2021-06-23T11:54:05.110Z</time>
      </trkpt>
      <trkpt lat="45.69075" lon="6.31938">
        <ele>1254.662923</ele>
        <time>2021-06-23T11:54:10.133Z</time>
      </trkpt>
      <trkpt lat="45.69094" lon="6.31946">
        <ele>1255.459142</ele>
        <time>2021-06-23T11:54:15.132Z</time>
      </trkpt>
      <trkpt lat="45.691" lon="6.31931">
        <ele>1255.925617</ele>
        <time>2021-06-23T11:54:33.119Z</time>
      </trkpt>
      <trkpt lat="45.6911" lon="6.31916">
        <ele>1256.478093</ele>
        <time>2021-06-23T11:54:36.144Z</time>
      </trkpt>
      <trkpt lat="45.69121" lon="6.31916">
        <ele>1256.90027</ele>
        <time>2021-06-23T11:54:42.126Z</time>
      </trkpt>
      <trkpt lat="45.69127" lon="6.31906">
        <ele>1257.261167</ele>
        <time>2021-06-23T11:54:48.123Z</time>
      </trkpt>
      <trkpt lat="45.69136" lon="6.31899">
        <ele>1257.654515</ele>
        <time>2021-06-23T11:54:54.113Z</time>
      </trkpt>
      <trkpt lat="45.69143" lon="6.3189">
        <ele>1258.015478</ele>
        <time>2021-06-23T11:54:59.124Z</time>
      </trkpt>
      <trkpt lat="45.69148" lon="6.31878">
        <ele>1258.387393</ele>
        <time>2021-06-23T11:55:05.135Z</time>
      </trkpt>
      <trkpt lat="45.69157" lon="6.31875">
        <ele>1258.751683</ele>
        <time>2021-06-23T11:55:11.140Z</time>
      </trkpt>
      <trkpt lat="45.69168" lon="6.31869">
        <ele>1259.220586</ele>
        <time>2021-06-23T11:55:37.133Z</time>
      </trkpt>
      <trkpt lat="45.69178" lon="6.31866">
        <ele>1259.615859</ele>
        <time>2021-06-23T11:55:45.134Z</time>
      </trkpt>
      <trkpt lat="45.69187" lon="6.31868">
        <ele>1259.975904</ele>
        <time>2021-06-23T11:55:51.103Z</time>
      </trkpt>
      <trkpt lat="45.69197" lon="6.31876">
        <ele>1260.42506</ele>
        <time>2021-06-23T11:55:56.156Z</time>
      </trkpt>
      <trkpt lat="45.69205" lon="6.31881">
        <ele>1260.785862</ele>
        <time>2021-06-23T11:56:04.120Z</time>
      </trkpt>
      <trkpt lat="45.69214" lon="6.31886">
        <ele>1261.149085</ele>
        <time>2021-06-23T11:56:09.124Z</time>
      </trkpt>
      <trkpt lat="45.69215" lon="6.31901">
        <ele>1262.026061</ele>
        <time>2021-06-23T11:56:18.123Z</time>
      </trkpt>
      <trkpt lat="45.6921" lon="6.31912">
        <ele>1263.039026</ele>
        <time>2021-06-23T11:56:24.134Z</time>
      </trkpt>
      <trkpt lat="45.69201" lon="6.3192">
        <ele>1264.231954</ele>
        <time>2021-06-23T11:56:29.124Z</time>
      </trkpt>
      <trkpt lat="45.69192" lon="6.31914">
        <ele>1265.299729</ele>
        <time>2021-06-23T11:56:41.120Z</time>
      </trkpt>
      <trkpt lat="45.69182" lon="6.31912">
        <ele>1266.350155</ele>
        <time>2021-06-23T11:56:53.126Z</time>
      </trkpt>
      <trkpt lat="45.69173" lon="6.31914">
        <ele>1267.354589</ele>
        <time>2021-06-23T11:57:05.133Z</time>
      </trkpt>
      <trkpt lat="45.69165" lon="6.3192">
        <ele>1268.365283</ele>
        <time>2021-06-23T11:57:17.132Z</time>
      </trkpt>
      <trkpt lat="45.69155" lon="6.31922">
        <ele>1269.445889</ele>
        <time>2021-06-23T11:58:50.129Z</time>
      </trkpt>
      <trkpt lat="45.6915" lon="6.31933">
        <ele>1270.499286</ele>
        <time>2021-06-23T11:59:00.127Z</time>
      </trkpt>
      <trkpt lat="45.69144" lon="6.31943">
        <ele>1271.525308</ele>
        <time>2021-06-23T11:59:09.135Z</time>
      </trkpt>
      <trkpt lat="45.69144" lon="6.3196">
        <ele>1272.810436</ele>
        <time>2021-06-23T11:59:36.131Z</time>
      </trkpt>
      <trkpt lat="45.69148" lon="6.31946">
        <ele>1274.010198</ele>
        <time>2021-06-23T12:00:38.141Z</time>
      </trkpt>
      <trkpt lat="45.69157" lon="6.31934">
        <ele>1275.379033</ele>
        <time>2021-06-23T12:00:41.132Z</time>
      </trkpt>
      <trkpt lat="45.69163" lon="6.31922">
        <ele>1276.439104</ele>
        <time>2021-06-23T12:00:44.134Z</time>
      </trkpt>
      <trkpt lat="45.69172" lon="6.31922">
        <ele>1277.475546</ele>
        <time>2021-06-23T12:00:48.140Z</time>
      </trkpt>
      <trkpt lat="45.69166" lon="6.31933">
        <ele>1278.537294</ele>
        <time>2021-06-23T12:01:03.145Z</time>
      </trkpt>
      <trkpt lat="45.69167" lon="6.31946">
        <ele>1279.585836</ele>
        <time>2021-06-23T12:01:19.122Z</time>
      </trkpt>
      <trkpt lat="45.69177" lon="6.31951">
        <ele>1280.737167</ele>
        <time>2021-06-23T12:01:47.134Z</time>
      </trkpt>
      <trkpt lat="45.69183" lon="6.31938">
        <ele>1282.681595</ele>
        <time>2021-06-23T12:02:03.129Z</time>
      </trkpt>
      <trkpt lat="45.6919" lon="6.31947">
        <ele>1284.934559</ele>
        <time>2021-06-23T12:02:22.146Z</time>
      </trkpt>
      <trkpt lat="45.69198" lon="6.31956">
        <ele>1287.205074</ele>
        <time>2021-06-23T12:02:35.134Z</time>
      </trkpt>
      <trkpt lat="45.69205" lon="6.31969">
        <ele>1289.627033</ele>
        <time>2021-06-23T12:02:55.140Z</time>
      </trkpt>
      <trkpt lat="45.69202" lon="6.31981">
        <ele>1291.734062</ele>
        <time>2021-06-23T12:03:16.121Z</time>
      </trkpt>
      <trkpt lat="45.69193" lon="6.31985">
        <ele>1293.874851</ele>
        <time>2021-06-23T12:03:27.135Z</time>
      </trkpt>
      <trkpt lat="45.6919" lon="6.31998">
        <ele>1295.90227</ele>
        <time>2021-06-23T12:03:40.159Z</time>
      </trkpt>
      <trkpt lat="45.69183" lon="6.32007">
        <ele>1298.05591</ele>
        <time>2021-06-23T12:03:50.123Z</time>
      </trkpt>
      <trkpt lat="45.69175" lon="6.32001">
        <ele>1300.166793</ele>
        <time>2021-06-23T12:04:03.128Z</time>
      </trkpt>
      <trkpt lat="45.69165" lon="6.32">
        <ele>1302.357761</ele>
        <time>2021-06-23T12:04:14.137Z</time>
      </trkpt>
      <trkpt lat="45.69174" lon="6.31995">
        <ele>1304.496601</ele>
        <time>2021-06-23T12:04:42.133Z</time>
      </trkpt>
      <trkpt lat="45.69184" lon="6.31993">
        <ele>1306.829358</ele>
        <time>2021-06-23T12:04:54.144Z</time>
      </trkpt>
      <trkpt lat="45.69194" lon="6.31994">
        <ele>1308.971577</ele>
        <time>2021-06-23T12:05:16.130Z</time>
      </trkpt>
      <trkpt lat="45.69204" lon="6.31993">
        <ele>1311.198484</ele>
        <time>2021-06-23T12:05:26.134Z</time>
      </trkpt>
      <trkpt lat="45.69211" lon="6.32003">
        <ele>1313.423332</ele>
        <time>2021-06-23T12:05:40.137Z</time>
      </trkpt>
      <trkpt lat="45.69219" lon="6.32009">
        <ele>1315.454388</ele>
        <time>2021-06-23T12:05:46.146Z</time>
      </trkpt>
      <trkpt lat="45.69228" lon="6.32015">
        <ele>1317.641428</ele>
        <time>2021-06-23T12:06:00.142Z</time>
      </trkpt>
      <trkpt lat="45.69238" lon="6.32025">
        <ele>1320.424309</ele>
        <time>2021-06-23T12:06:07.133Z</time>
      </trkpt>
      <trkpt lat="45.69246" lon="6.32033">
        <ele>1322.643908</ele>
        <time>2021-06-23T12:06:11.140Z</time>
      </trkpt>
      <trkpt lat="45.69255" lon="6.32036">
        <ele>1324.489145</ele>
        <time>2021-06-23T12:06:59.129Z</time>
      </trkpt>
      <trkpt lat="45.69265" lon="6.32043">
        <ele>1326.723173</ele>
        <time>2021-06-23T12:07:12.134Z</time>
      </trkpt>
      <trkpt lat="45.69269" lon="6.32056">
        <ele>1328.669269</ele>
        <time>2021-06-23T12:07:41.130Z</time>
      </trkpt>
      <trkpt lat="45.69275" lon="6.32067">
        <ele>1330.690303</ele>
        <time>2021-06-23T12:07:47.124Z</time>
      </trkpt>
      <trkpt lat="45.69283" lon="6.32076">
        <ele>1332.747058</ele>
        <time>2021-06-23T12:07:55.127Z</time>
      </trkpt>
      <trkpt lat="45.69273" lon="6.32077">
        <ele>1334.737196</ele>
        <time>2021-06-23T12:08:14.136Z</time>
      </trkpt>
      <trkpt lat="45.69265" lon="6.32081">
        <ele>1336.566815</ele>
        <time>2021-06-23T12:08:20.131Z</time>
      </trkpt>
      <trkpt lat="45.69256" lon="6.32085">
        <ele>1338.410199</ele>
        <time>2021-06-23T12:08:39.134Z</time>
      </trkpt>
      <trkpt lat="45.69247" lon="6.32087">
        <ele>1340.320344</ele>
        <time>2021-06-23T12:08:52.144Z</time>
      </trkpt>
      <trkpt lat="45.69237" lon="6.32088">
        <ele>1342.282769</ele>
        <time>2021-06-23T12:09:20.134Z</time>
      </trkpt>
      <trkpt lat="45.69234" lon="6.32074">
        <ele>1344.431804</ele>
        <time>2021-06-23T12:09:41.139Z</time>
      </trkpt>
      <trkpt lat="45.69245" lon="6.32075">
        <ele>1346.703572</ele>
        <time>2021-06-23T12:10:03.137Z</time>
      </trkpt>
      <trkpt lat="45.69247" lon="6.32088">
        <ele>1348.614348</ele>
        <time>2021-06-23T12:10:43.127Z</time>
      </trkpt>
      <trkpt lat="45.69247" lon="6.32088">
        <ele>1348.614348</ele>
        <time>2021-06-23T12:10:46.057Z</time>
      </trkpt>
      <trkpt lat="45.69227" lon="6.32085">
        <ele>1352.597786</ele>
        <time>2021-06-23T12:22:15.043Z</time>
      </trkpt>
      <trkpt lat="45.69227" lon="6.3206">
        <ele>1356.132864</ele>
        <time>2021-06-23T12:22:16.055Z</time>
      </trkpt>
      <trkpt lat="45.6922" lon="6.32038">
        <ele>1359.254304</ele>
        <time>2021-06-23T12:22:17.047Z</time>
      </trkpt>
      <trkpt lat="45.69239" lon="6.3205">
        <ele>1362.465459</ele>
        <time>2021-06-23T12:22:27.268Z</time>
      </trkpt>
      <trkpt lat="45.69241" lon="6.32068">
        <ele>1364.531525</ele>
        <time>2021-06-23T12:22:50.121Z</time>
      </trkpt>
      <trkpt lat="45.69235" lon="6.32086">
        <ele>1366.600658</ele>
        <time>2021-06-23T12:23:50.124Z</time>
      </trkpt>
      <trkpt lat="45.69223" lon="6.32093">
        <ele>1368.688689</ele>
        <time>2021-06-23T12:24:15.145Z</time>
      </trkpt>
      <trkpt lat="45.69215" lon="6.32099">
        <ele>1370.099867</ele>
        <time>2021-06-23T12:24:38.147Z</time>
      </trkpt>
      <trkpt lat="45.69206" lon="6.32097">
        <ele>1371.560933</ele>
        <time>2021-06-23T12:24:56.142Z</time>
      </trkpt>
      <trkpt lat="45.69196" lon="6.321">
        <ele>1373.099121</ele>
        <time>2021-06-23T12:25:05.139Z</time>
      </trkpt>
      <trkpt lat="45.69188" lon="6.32093">
        <ele>1374.631892</ele>
        <time>2021-06-23T12:25:13.144Z</time>
      </trkpt>
      <trkpt lat="45.69179" lon="6.32091">
        <ele>1376.09151</ele>
        <time>2021-06-23T12:25:23.138Z</time>
      </trkpt>
      <trkpt lat="45.6917" lon="6.32091">
        <ele>1377.53912</ele>
        <time>2021-06-23T12:25:36.142Z</time>
      </trkpt>
      <trkpt lat="45.69161" lon="6.32097">
        <ele>1379.124881</ele>
        <time>2021-06-23T12:25:44.139Z</time>
      </trkpt>
      <trkpt lat="45.69171" lon="6.32106">
        <ele>1380.984685</ele>
        <time>2021-06-23T12:26:19.142Z</time>
      </trkpt>
      <trkpt lat="45.69179" lon="6.32111">
        <ele>1382.40491</ele>
        <time>2021-06-23T12:26:29.135Z</time>
      </trkpt>
      <trkpt lat="45.69188" lon="6.32115">
        <ele>1383.909357</ele>
        <time>2021-06-23T12:26:42.136Z</time>
      </trkpt>
      <trkpt lat="45.69198" lon="6.32119">
        <ele>1385.452877</ele>
        <time>2021-06-23T12:27:15.132Z</time>
      </trkpt>
      <trkpt lat="45.69206" lon="6.32125">
        <ele>1386.991547</ele>
        <time>2021-06-23T12:27:52.136Z</time>
      </trkpt>
      <trkpt lat="45.69215" lon="6.32129">
        <ele>1389.097091</ele>
        <time>2021-06-23T12:28:03.133Z</time>
      </trkpt>
      <trkpt lat="45.69226" lon="6.32135">
        <ele>1391.59046</ele>
        <time>2021-06-23T12:28:11.132Z</time>
      </trkpt>
      <trkpt lat="45.69236" lon="6.32142">
        <ele>1394.002556</ele>
        <time>2021-06-23T12:28:29.117Z</time>
      </trkpt>
      <trkpt lat="45.69245" lon="6.32139">
        <ele>1396.00254</ele>
        <time>2021-06-23T12:28:51.120Z</time>
      </trkpt>
      <trkpt lat="45.69254" lon="6.32146">
        <ele>1398.144854</ele>
        <time>2021-06-23T12:28:59.130Z</time>
      </trkpt>
      <trkpt lat="45.69262" lon="6.32153">
        <ele>1400.076513</ele>
        <time>2021-06-23T12:29:21.123Z</time>
      </trkpt>
      <trkpt lat="45.69264" lon="6.32166">
        <ele>1402.043385</ele>
        <time>2021-06-23T12:29:44.131Z</time>
      </trkpt>
      <trkpt lat="45.69255" lon="6.32162">
        <ele>1404.038325</ele>
        <time>2021-06-23T12:29:58.150Z</time>
      </trkpt>
      <trkpt lat="45.69249" lon="6.32177">
        <ele>1406.553419</ele>
        <time>2021-06-23T12:30:08.135Z</time>
      </trkpt>
      <trkpt lat="45.69249" lon="6.3219">
        <ele>1408.50304</ele>
        <time>2021-06-23T12:30:24.132Z</time>
      </trkpt>
      <trkpt lat="45.6924" lon="6.32187">
        <ele>1410.593353</ele>
        <time>2021-06-23T12:30:41.131Z</time>
      </trkpt>
      <trkpt lat="45.69233" lon="6.32178">
        <ele>1412.603914</ele>
        <time>2021-06-23T12:30:56.133Z</time>
      </trkpt>
      <trkpt lat="45.69224" lon="6.32175">
        <ele>1414.534676</ele>
        <time>2021-06-23T12:31:05.139Z</time>
      </trkpt>
      <trkpt lat="45.69215" lon="6.32177">
        <ele>1416.507404</ele>
        <time>2021-06-23T12:31:18.134Z</time>
      </trkpt>
      <trkpt lat="45.69205" lon="6.32179">
        <ele>1418.526192</ele>
        <time>2021-06-23T12:31:27.134Z</time>
      </trkpt>
      <trkpt lat="45.69196" lon="6.32176">
        <ele>1420.476074</ele>
        <time>2021-06-23T12:31:39.139Z</time>
      </trkpt>
      <trkpt lat="45.69187" lon="6.32177">
        <ele>1422.595531</ele>
        <time>2021-06-23T12:31:57.135Z</time>
      </trkpt>
      <trkpt lat="45.69179" lon="6.32185">
        <ele>1424.639779</ele>
        <time>2021-06-23T12:32:09.135Z</time>
      </trkpt>
      <trkpt lat="45.6917" lon="6.3219">
        <ele>1425.679439</ele>
        <time>2021-06-23T12:32:21.135Z</time>
      </trkpt>
      <trkpt lat="45.69184" lon="6.32181">
        <ele>1427.238559</ele>
        <time>2021-06-23T12:33:31.156Z</time>
      </trkpt>
      <trkpt lat="45.69194" lon="6.32184">
        <ele>1428.263748</ele>
        <time>2021-06-23T12:33:42.132Z</time>
      </trkpt>
      <trkpt lat="45.69201" lon="6.32195">
        <ele>1429.306405</ele>
        <time>2021-06-23T12:33:59.132Z</time>
      </trkpt>
      <trkpt lat="45.6921" lon="6.32201">
        <ele>1430.283973</ele>
        <time>2021-06-23T12:34:06.137Z</time>
      </trkpt>
      <trkpt lat="45.69217" lon="6.32209">
        <ele>1431.259151</ele>
        <time>2021-06-23T12:34:18.131Z</time>
      </trkpt>
      <trkpt lat="45.69226" lon="6.32211">
        <ele>1432.193776</ele>
        <time>2021-06-23T12:34:30.137Z</time>
      </trkpt>
      <trkpt lat="45.69236" lon="6.32213">
        <ele>1433.256736</ele>
        <time>2021-06-23T12:34:57.130Z</time>
      </trkpt>
      <trkpt lat="45.69246" lon="6.32214">
        <ele>1434.313697</ele>
        <time>2021-06-23T12:35:27.130Z</time>
      </trkpt>
      <trkpt lat="45.69255" lon="6.3222">
        <ele>1435.294297</ele>
        <time>2021-06-23T12:35:36.125Z</time>
      </trkpt>
      <trkpt lat="45.69263" lon="6.32228">
        <ele>1436.288663</ele>
        <time>2021-06-23T12:35:53.125Z</time>
      </trkpt>
      <trkpt lat="45.69271" lon="6.32239">
        <ele>1437.502587</ele>
        <time>2021-06-23T12:36:01.127Z</time>
      </trkpt>
      <trkpt lat="45.6928" lon="6.32245">
        <ele>1438.477867</ele>
        <time>2021-06-23T12:36:12.127Z</time>
      </trkpt>
      <trkpt lat="45.69271" lon="6.3225">
        <ele>1439.420392</ele>
        <time>2021-06-23T12:36:32.130Z</time>
      </trkpt>
      <trkpt lat="45.69262" lon="6.32249">
        <ele>1440.40162</ele>
        <time>2021-06-23T12:36:47.132Z</time>
      </trkpt>
      <trkpt lat="45.69262" lon="6.32262">
        <ele>1441.34555</ele>
        <time>2021-06-23T12:37:28.133Z</time>
      </trkpt>
      <trkpt lat="45.69254" lon="6.32269">
        <ele>1442.323335</ele>
        <time>2021-06-23T12:37:48.120Z</time>
      </trkpt>
      <trkpt lat="45.69245" lon="6.32267">
        <ele>1443.260294</ele>
        <time>2021-06-23T12:37:54.134Z</time>
      </trkpt>
      <trkpt lat="45.69235" lon="6.32264">
        <ele>1446.451557</ele>
        <time>2021-06-23T12:38:09.124Z</time>
      </trkpt>
      <trkpt lat="45.69225" lon="6.32262">
        <ele>1449.987579</ele>
        <time>2021-06-23T12:38:18.132Z</time>
      </trkpt>
      <trkpt lat="45.69216" lon="6.32262">
        <ele>1453.296903</ele>
        <time>2021-06-23T12:38:32.140Z</time>
      </trkpt>
      <trkpt lat="45.69207" lon="6.3226">
        <ele>1456.557732</ele>
        <time>2021-06-23T12:38:54.133Z</time>
      </trkpt>
      <trkpt lat="45.69197" lon="6.32259">
        <ele>1460.187038</ele>
        <time>2021-06-23T12:39:16.134Z</time>
      </trkpt>
      <trkpt lat="45.6919" lon="6.32267">
        <ele>1463.431698</ele>
        <time>2021-06-23T12:39:43.137Z</time>
      </trkpt>
      <trkpt lat="45.6918" lon="6.32268">
        <ele>1466.961692</ele>
        <time>2021-06-23T12:40:34.139Z</time>
      </trkpt>
      <trkpt lat="45.69175" lon="6.3228">
        <ele>1470.304211</ele>
        <time>2021-06-23T12:41:01.153Z</time>
      </trkpt>
      <trkpt lat="45.69166" lon="6.32276">
        <ele>1473.520456</ele>
        <time>2021-06-23T12:41:26.136Z</time>
      </trkpt>
      <trkpt lat="45.69159" lon="6.32284">
        <ele>1476.737774</ele>
        <time>2021-06-23T12:41:45.138Z</time>
      </trkpt>
      <trkpt lat="45.69154" lon="6.32274">
        <ele>1480.002579</ele>
        <time>2021-06-23T12:42:07.137Z</time>
      </trkpt>
      <trkpt lat="45.69145" lon="6.32279">
        <ele>1483.267605</ele>
        <time>2021-06-23T12:42:29.137Z</time>
      </trkpt>
      <trkpt lat="45.69141" lon="6.32266">
        <ele>1487.066604</ele>
        <time>2021-06-23T12:43:39.145Z</time>
      </trkpt>
      <trkpt lat="45.69133" lon="6.32259">
        <ele>1490.283031</ele>
        <time>2021-06-23T12:43:57.132Z</time>
      </trkpt>
      <trkpt lat="45.69126" lon="6.32267">
        <ele>1493.568095</ele>
        <time>2021-06-23T12:44:02.144Z</time>
      </trkpt>
      <trkpt lat="45.69118" lon="6.32275">
        <ele>1496.880636</ele>
        <time>2021-06-23T12:44:08.154Z</time>
      </trkpt>
      <trkpt lat="45.6911" lon="6.32282">
        <ele>1500.258798</ele>
        <time>2021-06-23T12:44:14.147Z</time>
      </trkpt>
      <trkpt lat="45.69107" lon="6.32296">
        <ele>1503.958371</ele>
        <time>2021-06-23T12:44:19.143Z</time>
      </trkpt>
      <trkpt lat="45.69104" lon="6.32309">
        <ele>1507.185391</ele>
        <time>2021-06-23T12:44:27.145Z</time>
      </trkpt>
      <trkpt lat="45.69094" lon="6.32308">
        <ele>1508.272526</ele>
        <time>2021-06-23T12:44:58.145Z</time>
      </trkpt>
      <trkpt lat="45.69099" lon="6.3232">
        <ele>1509.150245</ele>
        <time>2021-06-23T12:45:44.138Z</time>
      </trkpt>
      <trkpt lat="45.69104" lon="6.3233">
        <ele>1510.030342</ele>
        <time>2021-06-23T12:45:53.148Z</time>
      </trkpt>
      <trkpt lat="45.6911" lon="6.32341">
        <ele>1510.949621</ele>
        <time>2021-06-23T12:46:11.126Z</time>
      </trkpt>
      <trkpt lat="45.69105" lon="6.32327">
        <ele>1512.029275</ele>
        <time>2021-06-23T12:46:42.144Z</time>
      </trkpt>
      <trkpt lat="45.69113" lon="6.32322">
        <ele>1512.922693</ele>
        <time>2021-06-23T12:47:10.140Z</time>
      </trkpt>
      <trkpt lat="45.69121" lon="6.32314">
        <ele>1513.883128</ele>
        <time>2021-06-23T12:47:17.143Z</time>
      </trkpt>
      <trkpt lat="45.69126" lon="6.32302">
        <ele>1514.795352</ele>
        <time>2021-06-23T12:47:25.148Z</time>
      </trkpt>
      <trkpt lat="45.69127" lon="6.32289">
        <ele>1515.66364</ele>
        <time>2021-06-23T12:47:31.140Z</time>
      </trkpt>
      <trkpt lat="45.6913" lon="6.32277">
        <ele>1516.555991</ele>
        <time>2021-06-23T12:47:49.144Z</time>
      </trkpt>
      <trkpt lat="45.69134" lon="6.32265">
        <ele>1517.432468</ele>
        <time>2021-06-23T12:48:03.147Z</time>
      </trkpt>
      <trkpt lat="45.69142" lon="6.32272">
        <ele>1518.376618</ele>
        <time>2021-06-23T12:48:11.144Z</time>
      </trkpt>
      <trkpt lat="45.69149" lon="6.32279">
        <ele>1519.265531</ele>
        <time>2021-06-23T12:48:25.181Z</time>
      </trkpt>
      <trkpt lat="45.69161" lon="6.32285">
        <ele>1520.407785</ele>
        <time>2021-06-23T12:48:39.152Z</time>
      </trkpt>
      <trkpt lat="45.69169" lon="6.3229">
        <ele>1521.298571</ele>
        <time>2021-06-23T12:48:45.143Z</time>
      </trkpt>
      <trkpt lat="45.69173" lon="6.32302">
        <ele>1522.192134</ele>
        <time>2021-06-23T12:49:00.150Z</time>
      </trkpt>
      <trkpt lat="45.69175" lon="6.32318">
        <ele>1523.330005</ele>
        <time>2021-06-23T12:49:08.164Z</time>
      </trkpt>
      <trkpt lat="45.69184" lon="6.32325">
        <ele>1524.226305</ele>
        <time>2021-06-23T12:49:17.140Z</time>
      </trkpt>
      <trkpt lat="45.69192" lon="6.3232">
        <ele>1525.335404</ele>
        <time>2021-06-23T12:49:23.155Z</time>
      </trkpt>
      <trkpt lat="45.69201" lon="6.32317">
        <ele>1526.837282</ele>
        <time>2021-06-23T12:49:32.150Z</time>
      </trkpt>
      <trkpt lat="45.69211" lon="6.32318">
        <ele>1528.355259</ele>
        <time>2021-06-23T12:49:40.141Z</time>
      </trkpt>
      <trkpt lat="45.69215" lon="6.3233">
        <ele>1529.821393</ele>
        <time>2021-06-23T12:49:54.151Z</time>
      </trkpt>
      <trkpt lat="45.69221" lon="6.3234">
        <ele>1531.32231</ele>
        <time>2021-06-23T12:50:00.151Z</time>
      </trkpt>
      <trkpt lat="45.69231" lon="6.32334">
        <ele>1533.19516</ele>
        <time>2021-06-23T12:50:09.153Z</time>
      </trkpt>
      <trkpt lat="45.6924" lon="6.32329">
        <ele>1534.647784</ele>
        <time>2021-06-23T12:50:22.154Z</time>
      </trkpt>
      <trkpt lat="45.6925" lon="6.32342">
        <ele>1536.855197</ele>
        <time>2021-06-23T12:50:28.145Z</time>
      </trkpt>
      <trkpt lat="45.69244" lon="6.32363">
        <ele>1539.387843</ele>
        <time>2021-06-23T12:51:43.144Z</time>
      </trkpt>
      <trkpt lat="45.69235" lon="6.32357">
        <ele>1540.916227</ele>
        <time>2021-06-23T12:52:04.133Z</time>
      </trkpt>
      <trkpt lat="45.69225" lon="6.32354">
        <ele>1542.563333</ele>
        <time>2021-06-23T12:52:23.134Z</time>
      </trkpt>
      <trkpt lat="45.69216" lon="6.3235">
        <ele>1544.071452</ele>
        <time>2021-06-23T12:52:29.151Z</time>
      </trkpt>
      <trkpt lat="45.69207" lon="6.32346">
        <ele>1545.604125</ele>
        <time>2021-06-23T12:52:38.136Z</time>
      </trkpt>
      <trkpt lat="45.69197" lon="6.32349">
        <ele>1547.174114</ele>
        <time>2021-06-23T12:52:52.134Z</time>
      </trkpt>
      <trkpt lat="45.69188" lon="6.32352">
        <ele>1548.772051</ele>
        <time>2021-06-23T12:53:06.130Z</time>
      </trkpt>
      <trkpt lat="45.6918" lon="6.32361">
        <ele>1550.358433</ele>
        <time>2021-06-23T12:53:16.133Z</time>
      </trkpt>
      <trkpt lat="45.69172" lon="6.32368">
        <ele>1551.832801</ele>
        <time>2021-06-23T12:53:24.129Z</time>
      </trkpt>
      <trkpt lat="45.69163" lon="6.32369">
        <ele>1553.303923</ele>
        <time>2021-06-23T12:53:41.135Z</time>
      </trkpt>
      <trkpt lat="45.69158" lon="6.3238">
        <ele>1554.852427</ele>
        <time>2021-06-23T12:53:59.117Z</time>
      </trkpt>
      <trkpt lat="45.69166" lon="6.32389">
        <ele>1556.539463</ele>
        <time>2021-06-23T12:54:58.139Z</time>
      </trkpt>
      <trkpt lat="45.69175" lon="6.32388">
        <ele>1558.198702</ele>
        <time>2021-06-23T12:55:24.145Z</time>
      </trkpt>
      <trkpt lat="45.69185" lon="6.32391">
        <ele>1559.880487</ele>
        <time>2021-06-23T12:55:37.145Z</time>
      </trkpt>
      <trkpt lat="45.69193" lon="6.32385">
        <ele>1561.406669</ele>
        <time>2021-06-23T12:55:49.135Z</time>
      </trkpt>
      <trkpt lat="45.69201" lon="6.3238">
        <ele>1562.953219</ele>
        <time>2021-06-23T12:56:17.140Z</time>
      </trkpt>
      <trkpt lat="45.6921" lon="6.32385">
        <ele>1564.501488</ele>
        <time>2021-06-23T12:56:29.136Z</time>
      </trkpt>
      <trkpt lat="45.69221" lon="6.32388">
        <ele>1566.428882</ele>
        <time>2021-06-23T12:56:41.119Z</time>
      </trkpt>
      <trkpt lat="45.6923" lon="6.32392">
        <ele>1568.039942</ele>
        <time>2021-06-23T12:56:45.139Z</time>
      </trkpt>
      <trkpt lat="45.69237" lon="6.32401">
        <ele>1569.616053</ele>
        <time>2021-06-23T12:56:57.128Z</time>
      </trkpt>
      <trkpt lat="45.69247" lon="6.32406">
        <ele>1571.455155</ele>
        <time>2021-06-23T12:57:13.135Z</time>
      </trkpt>
      <trkpt lat="45.69255" lon="6.32418">
        <ele>1573.35952</ele>
        <time>2021-06-23T12:57:20.128Z</time>
      </trkpt>
      <trkpt lat="45.69264" lon="6.32425">
        <ele>1575.094083</ele>
        <time>2021-06-23T12:57:27.131Z</time>
      </trkpt>
      <trkpt lat="45.69254" lon="6.32424">
        <ele>1576.730051</ele>
        <time>2021-06-23T12:57:40.135Z</time>
      </trkpt>
      <trkpt lat="45.69246" lon="6.32417">
        <ele>1578.359028</ele>
        <time>2021-06-23T12:57:59.139Z</time>
      </trkpt>
      <trkpt lat="45.69236" lon="6.32416">
        <ele>1580.01605</ele>
        <time>2021-06-23T12:58:14.119Z</time>
      </trkpt>
      <trkpt lat="45.6923" lon="6.32407">
        <ele>1581.583832</ele>
        <time>2021-06-23T12:58:22.129Z</time>
      </trkpt>
      <trkpt lat="45.69221" lon="6.32413">
        <ele>1583.203305</ele>
        <time>2021-06-23T12:58:41.127Z</time>
      </trkpt>
      <trkpt lat="45.69216" lon="6.32423">
        <ele>1584.404741</ele>
        <time>2021-06-23T12:59:26.128Z</time>
      </trkpt>
      <trkpt lat="45.69207" lon="6.32429">
        <ele>1585.196254</ele>
        <time>2021-06-23T12:59:45.130Z</time>
      </trkpt>
      <trkpt lat="45.69198" lon="6.32433">
        <ele>1585.949061</ele>
        <time>2021-06-23T13:00:14.134Z</time>
      </trkpt>
      <trkpt lat="45.69189" lon="6.32438">
        <ele>1586.733675</ele>
        <time>2021-06-23T13:00:29.147Z</time>
      </trkpt>
      <trkpt lat="45.69198" lon="6.32433">
        <ele>1587.514819</ele>
        <time>2021-06-23T13:01:19.144Z</time>
      </trkpt>
      <trkpt lat="45.69208" lon="6.3244">
        <ele>1588.461887</ele>
        <time>2021-06-23T13:01:28.135Z</time>
      </trkpt>
      <trkpt lat="45.69216" lon="6.32448">
        <ele>1589.262814</ele>
        <time>2021-06-23T13:02:03.136Z</time>
      </trkpt>
      <trkpt lat="45.69228" lon="6.32455">
        <ele>1590.24241</ele>
        <time>2021-06-23T13:02:16.126Z</time>
      </trkpt>
      <trkpt lat="45.69238" lon="6.3246">
        <ele>1591.09775</ele>
        <time>2021-06-23T13:02:20.133Z</time>
      </trkpt>
      <trkpt lat="45.69247" lon="6.32466">
        <ele>1591.916394</ele>
        <time>2021-06-23T13:02:28.128Z</time>
      </trkpt>
      <trkpt lat="45.69256" lon="6.32465">
        <ele>1592.661435</ele>
        <time>2021-06-23T13:02:32.129Z</time>
      </trkpt>
      <trkpt lat="45.69265" lon="6.32468">
        <ele>1593.393374</ele>
        <time>2021-06-23T13:02:58.145Z</time>
      </trkpt>
      <trkpt lat="45.69258" lon="6.32477">
        <ele>1594.167908</ele>
        <time>2021-06-23T13:03:14.135Z</time>
      </trkpt>
      <trkpt lat="45.69249" lon="6.32479">
        <ele>1594.900518</ele>
        <time>2021-06-23T13:03:26.133Z</time>
      </trkpt>
      <trkpt lat="45.6924" lon="6.32483">
        <ele>1595.634573</ele>
        <time>2021-06-23T13:03:37.131Z</time>
      </trkpt>
      <trkpt lat="45.69231" lon="6.32486">
        <ele>1596.41179</ele>
        <time>2021-06-23T13:04:23.124Z</time>
      </trkpt>
      <trkpt lat="45.69221" lon="6.32486">
        <ele>1597.154331</ele>
        <time>2021-06-23T13:04:36.127Z</time>
      </trkpt>
      <trkpt lat="45.69213" lon="6.32479">
        <ele>1597.926757</ele>
        <time>2021-06-23T13:04:57.119Z</time>
      </trkpt>
      <trkpt lat="45.69203" lon="6.32481">
        <ele>1598.867557</ele>
        <time>2021-06-23T13:05:06.118Z</time>
      </trkpt>
      <trkpt lat="45.69195" lon="6.32484">
        <ele>1600.404336</ele>
        <time>2021-06-23T13:05:13.123Z</time>
      </trkpt>
      <trkpt lat="45.69202" lon="6.32493">
        <ele>1602.065961</ele>
        <time>2021-06-23T13:05:42.128Z</time>
      </trkpt>
      <trkpt lat="45.69211" lon="6.32497">
        <ele>1603.637971</ele>
        <time>2021-06-23T13:05:55.134Z</time>
      </trkpt>
      <trkpt lat="45.69219" lon="6.32504">
        <ele>1605.160885</ele>
        <time>2021-06-23T13:06:36.143Z</time>
      </trkpt>
      <trkpt lat="45.69222" lon="6.32516">
        <ele>1606.706109</ele>
        <time>2021-06-23T13:07:19.123Z</time>
      </trkpt>
      <trkpt lat="45.69231" lon="6.32525">
        <ele>1608.543759</ele>
        <time>2021-06-23T13:07:31.125Z</time>
      </trkpt>
      <trkpt lat="45.69241" lon="6.3253">
        <ele>1610.338501</ele>
        <time>2021-06-23T13:07:39.135Z</time>
      </trkpt>
      <trkpt lat="45.69249" lon="6.32538">
        <ele>1611.881981</ele>
        <time>2021-06-23T13:07:44.123Z</time>
      </trkpt>
      <trkpt lat="45.69258" lon="6.3254">
        <ele>1613.436484</ele>
        <time>2021-06-23T13:08:09.124Z</time>
      </trkpt>
      <trkpt lat="45.6925" lon="6.32547">
        <ele>1614.966961</ele>
        <time>2021-06-23T13:08:39.118Z</time>
      </trkpt>
      <trkpt lat="45.6924" lon="6.32545">
        <ele>1616.647176</ele>
        <time>2021-06-23T13:08:52.109Z</time>
      </trkpt>
      <trkpt lat="45.69232" lon="6.32541">
        <ele>1618.239001</ele>
        <time>2021-06-23T13:09:05.117Z</time>
      </trkpt>
      <trkpt lat="45.69222" lon="6.32539">
        <ele>1619.867631</ele>
        <time>2021-06-23T13:09:31.129Z</time>
      </trkpt>
      <trkpt lat="45.69225" lon="6.32552">
        <ele>1621.474698</ele>
        <time>2021-06-23T13:10:19.130Z</time>
      </trkpt>
      <trkpt lat="45.69235" lon="6.32553">
        <ele>1623.098891</ele>
        <time>2021-06-23T13:10:24.120Z</time>
      </trkpt>
      <trkpt lat="45.69244" lon="6.32554">
        <ele>1624.641205</ele>
        <time>2021-06-23T13:10:37.125Z</time>
      </trkpt>
      <trkpt lat="45.69239" lon="6.32566">
        <ele>1626.255003</ele>
        <time>2021-06-23T13:10:58.127Z</time>
      </trkpt>
      <trkpt lat="45.69229" lon="6.32565">
        <ele>1627.797318</ele>
        <time>2021-06-23T13:11:29.130Z</time>
      </trkpt>
      <trkpt lat="45.6922" lon="6.32564">
        <ele>1629.070133</ele>
        <time>2021-06-23T13:11:42.091Z</time>
      </trkpt>
      <trkpt lat="45.69212" lon="6.3257">
        <ele>1629.492862</ele>
        <time>2021-06-23T13:11:52.128Z</time>
      </trkpt>
      <trkpt lat="45.69206" lon="6.32579">
        <ele>1629.917668</ele>
        <time>2021-06-23T13:12:05.115Z</time>
      </trkpt>
      <trkpt lat="45.69204" lon="6.32592">
        <ele>1630.339077</ele>
        <time>2021-06-23T13:12:14.109Z</time>
      </trkpt>
      <trkpt lat="45.69198" lon="6.32602">
        <ele>1630.803638</ele>
        <time>2021-06-23T13:12:24.114Z</time>
      </trkpt>
      <trkpt lat="45.69189" lon="6.32608">
        <ele>1631.23765</ele>
        <time>2021-06-23T13:12:34.124Z</time>
      </trkpt>
      <trkpt lat="45.69182" lon="6.32616">
        <ele>1631.679991</ele>
        <time>2021-06-23T13:12:55.108Z</time>
      </trkpt>
      <trkpt lat="45.69175" lon="6.32626">
        <ele>1632.123729</ele>
        <time>2021-06-23T13:13:08.114Z</time>
      </trkpt>
      <trkpt lat="45.69165" lon="6.32631">
        <ele>1632.624627</ele>
        <time>2021-06-23T13:13:20.108Z</time>
      </trkpt>
      <trkpt lat="45.69158" lon="6.3264">
        <ele>1633.058817</ele>
        <time>2021-06-23T13:13:28.111Z</time>
      </trkpt>
      <trkpt lat="45.6915" lon="6.32647">
        <ele>1633.515718</ele>
        <time>2021-06-23T13:13:35.114Z</time>
      </trkpt>
      <trkpt lat="45.6914" lon="6.32651">
        <ele>1633.973472</ele>
        <time>2021-06-23T13:13:44.104Z</time>
      </trkpt>
      <trkpt lat="45.69131" lon="6.32655">
        <ele>1634.4347</ele>
        <time>2021-06-23T13:14:03.108Z</time>
      </trkpt>
      <trkpt lat="45.69129" lon="6.32671">
        <ele>1634.952799</ele>
        <time>2021-06-23T13:14:07.099Z</time>
      </trkpt>
      <trkpt lat="45.69124" lon="6.32683">
        <ele>1635.417084</ele>
        <time>2021-06-23T13:14:12.099Z</time>
      </trkpt>
      <trkpt lat="45.69116" lon="6.32689">
        <ele>1635.837444</ele>
        <time>2021-06-23T13:14:36.095Z</time>
      </trkpt>
      <trkpt lat="45.69107" lon="6.32693">
        <ele>1636.268894</ele>
        <time>2021-06-23T13:14:46.107Z</time>
      </trkpt>
      <trkpt lat="45.69098" lon="6.32693">
        <ele>1636.700416</ele>
        <time>2021-06-23T13:14:58.115Z</time>
      </trkpt>
      <trkpt lat="45.69088" lon="6.32699">
        <ele>1637.18995</ele>
        <time>2021-06-23T13:15:16.085Z</time>
      </trkpt>
      <trkpt lat="45.69079" lon="6.327">
        <ele>1637.945327</ele>
        <time>2021-06-23T13:15:22.075Z</time>
      </trkpt>
      <trkpt lat="45.69069" lon="6.32697">
        <ele>1639.084745</ele>
        <time>2021-06-23T13:15:44.073Z</time>
      </trkpt>
      <trkpt lat="45.6906" lon="6.32697">
        <ele>1640.152765</ele>
        <time>2021-06-23T13:15:54.062Z</time>
      </trkpt>
      <trkpt lat="45.6905" lon="6.32701">
        <ele>1641.266022</ele>
        <time>2021-06-23T13:16:06.061Z</time>
      </trkpt>
      <trkpt lat="45.69039" lon="6.32702">
        <ele>1642.532219</ele>
        <time>2021-06-23T13:16:26.070Z</time>
      </trkpt>
      <trkpt lat="45.69033" lon="6.32691">
        <ele>1643.602041</ele>
        <time>2021-06-23T13:17:06.069Z</time>
      </trkpt>
      <trkpt lat="45.69024" lon="6.32686">
        <ele>1644.709502</ele>
        <time>2021-06-23T13:17:24.077Z</time>
      </trkpt>
      <trkpt lat="45.69015" lon="6.32686">
        <ele>1645.777782</ele>
        <time>2021-06-23T13:18:06.069Z</time>
      </trkpt>
      <trkpt lat="45.69011" lon="6.32686">
        <ele>1646.194932</ele>
        <time>2021-06-23T13:18:18.397Z</time>
      </trkpt>
      <trkpt lat="45.69017" lon="6.32708">
        <ele>1647.989567</ele>
        <time>2021-06-23T13:33:55.051Z</time>
      </trkpt>
      <trkpt lat="45.69029" lon="6.32721">
        <ele>1649.767914</ele>
        <time>2021-06-23T13:33:57.757Z</time>
      </trkpt>
      <trkpt lat="45.69017" lon="6.32707">
        <ele>1651.51206</ele>
        <time>2021-06-23T13:34:05.118Z</time>
      </trkpt>
      <trkpt lat="45.69015" lon="6.32689">
        <ele>1652.985802</ele>
        <time>2021-06-23T13:34:20.115Z</time>
      </trkpt>
      <trkpt lat="45.68997" lon="6.32691">
        <ele>1654.974957</ele>
        <time>2021-06-23T13:34:58.144Z</time>
      </trkpt>
      <trkpt lat="45.6899" lon="6.32697">
        <ele>1655.977965</ele>
        <time>2021-06-23T13:35:12.135Z</time>
      </trkpt>
      <trkpt lat="45.68999" lon="6.32701">
        <ele>1657.07338</ele>
        <time>2021-06-23T13:36:37.148Z</time>
      </trkpt>
      <trkpt lat="45.69006" lon="6.32712">
        <ele>1660.463318</ele>
        <time>2021-06-23T13:36:51.148Z</time>
      </trkpt>
      <trkpt lat="45.69014" lon="6.32718">
        <ele>1665.085458</ele>
        <time>2021-06-23T13:37:01.147Z</time>
      </trkpt>
      <trkpt lat="45.6901" lon="6.32728">
        <ele>1669.557299</ele>
        <time>2021-06-23T13:37:27.134Z</time>
      </trkpt>
      <trkpt lat="45.69" lon="6.32731">
        <ele>1674.352727</ele>
        <time>2021-06-23T13:37:39.154Z</time>
      </trkpt>
      <trkpt lat="45.6901" lon="6.32743">
        <ele>1680.650738</ele>
        <time>2021-06-23T13:39:09.159Z</time>
      </trkpt>
      <trkpt lat="45.69014" lon="6.32755">
        <ele>1685.272252</ele>
        <time>2021-06-23T13:39:20.154Z</time>
      </trkpt>
      <trkpt lat="45.69013" lon="6.32768">
        <ele>1689.897281</ele>
        <time>2021-06-23T13:39:56.161Z</time>
      </trkpt>
      <trkpt lat="45.69019" lon="6.32779">
        <ele>1694.542359</ele>
        <time>2021-06-23T13:40:44.149Z</time>
      </trkpt>
      <trkpt lat="45.69029" lon="6.32783">
        <ele>1699.80062</ele>
        <time>2021-06-23T13:41:00.155Z</time>
      </trkpt>
      <trkpt lat="45.69037" lon="6.3279">
        <ele>1704.49369</ele>
        <time>2021-06-23T13:42:18.157Z</time>
      </trkpt>
      <trkpt lat="45.69049" lon="6.32795">
        <ele>1710.62644</ele>
        <time>2021-06-23T13:43:34.182Z</time>
      </trkpt>
      <trkpt lat="45.69054" lon="6.32807">
        <ele>1715.379532</ele>
        <time>2021-06-23T13:44:10.169Z</time>
      </trkpt>
      <trkpt lat="45.69063" lon="6.32813">
        <ele>1720.498492</ele>
        <time>2021-06-23T13:45:31.159Z</time>
      </trkpt>
      <trkpt lat="45.69072" lon="6.32814">
        <ele>1725.175881</ele>
        <time>2021-06-23T13:46:04.160Z</time>
      </trkpt>
      <trkpt lat="45.69068" lon="6.32826">
        <ele>1729.690148</ele>
        <time>2021-06-23T13:46:49.149Z</time>
      </trkpt>
      <trkpt lat="45.69073" lon="6.32836">
        <ele>1734.244905</ele>
        <time>2021-06-23T13:46:54.151Z</time>
      </trkpt>
      <trkpt lat="45.69086" lon="6.32846">
        <ele>1741.159651</ele>
        <time>2021-06-23T13:48:36.194Z</time>
      </trkpt>
      <trkpt lat="45.69094" lon="6.32842">
        <ele>1745.633721</ele>
        <time>2021-06-23T13:49:36.166Z</time>
      </trkpt>
      <trkpt lat="45.69103" lon="6.32843">
        <ele>1748.966753</ele>
        <time>2021-06-23T13:50:02.170Z</time>
      </trkpt>
      <trkpt lat="45.69112" lon="6.32847">
        <ele>1751.764193</ele>
        <time>2021-06-23T13:50:48.173Z</time>
      </trkpt>
      <trkpt lat="45.6912" lon="6.32854">
        <ele>1754.529618</ele>
        <time>2021-06-23T13:51:05.166Z</time>
      </trkpt>
      <trkpt lat="45.69113" lon="6.32862">
        <ele>1757.268977</ele>
        <time>2021-06-23T13:51:55.167Z</time>
      </trkpt>
      <trkpt lat="45.6912" lon="6.32872">
        <ele>1760.215404</ele>
        <time>2021-06-23T13:52:59.185Z</time>
      </trkpt>
      <trkpt lat="45.69121" lon="6.32885">
        <ele>1762.959216</ele>
        <time>2021-06-23T13:54:03.166Z</time>
      </trkpt>
      <trkpt lat="45.69119" lon="6.32897">
        <ele>1765.743765</ele>
        <time>2021-06-23T13:54:26.183Z</time>
      </trkpt>
      <trkpt lat="45.69129" lon="6.32897">
        <ele>1768.807071</ele>
        <time>2021-06-23T13:56:51.180Z</time>
      </trkpt>
      <trkpt lat="45.69139" lon="6.32895">
        <ele>1771.907704</ele>
        <time>2021-06-23T13:57:35.184Z</time>
      </trkpt>
      <trkpt lat="45.69148" lon="6.32895">
        <ele>1774.698983</ele>
        <time>2021-06-23T13:57:56.175Z</time>
      </trkpt>
      <trkpt lat="45.69157" lon="6.3289">
        <ele>1777.509854</ele>
        <time>2021-06-23T13:58:09.173Z</time>
      </trkpt>
      <trkpt lat="45.69178" lon="6.32887">
        <ele>1783.93441</ele>
        <time>2021-06-23T14:00:24.181Z</time>
      </trkpt>
      <trkpt lat="45.69187" lon="6.32892">
        <ele>1786.753645</ele>
        <time>2021-06-23T14:01:00.175Z</time>
      </trkpt>
      <trkpt lat="45.69199" lon="6.32888">
        <ele>1790.435049</ele>
        <time>2021-06-23T14:02:19.186Z</time>
      </trkpt>
      <trkpt lat="45.69207" lon="6.32882">
        <ele>1793.362835</ele>
        <time>2021-06-23T14:02:30.175Z</time>
      </trkpt>
      <trkpt lat="45.69221" lon="6.32876">
        <ele>1797.659929</ele>
        <time>2021-06-23T14:03:31.187Z</time>
      </trkpt>
      <trkpt lat="45.69233" lon="6.32873">
        <ele>1801.29721</ele>
        <time>2021-06-23T14:04:10.158Z</time>
      </trkpt>
      <trkpt lat="45.69242" lon="6.3287">
        <ele>1802.898866</ele>
        <time>2021-06-23T14:04:56.162Z</time>
      </trkpt>
      <trkpt lat="45.69251" lon="6.32869">
        <ele>1804.276036</ele>
        <time>2021-06-23T14:05:05.164Z</time>
      </trkpt>
      <trkpt lat="45.69261" lon="6.32866">
        <ele>1805.685299</ele>
        <time>2021-06-23T14:05:46.159Z</time>
      </trkpt>
      <trkpt lat="45.69269" lon="6.32871">
        <ele>1807.111254</ele>
        <time>2021-06-23T14:06:47.164Z</time>
      </trkpt>
      <trkpt lat="45.69285" lon="6.32867">
        <ele>1809.459458</ele>
        <time>2021-06-23T14:09:50.169Z</time>
      </trkpt>
      <trkpt lat="45.69294" lon="6.32867">
        <ele>1810.818364</ele>
        <time>2021-06-23T14:09:59.157Z</time>
      </trkpt>
      <trkpt lat="45.69303" lon="6.3287">
        <ele>1812.209269</ele>
        <time>2021-06-23T14:10:10.175Z</time>
      </trkpt>
      <trkpt lat="45.69322" lon="6.3288">
        <ele>1815.327214</ele>
        <time>2021-06-23T14:12:48.189Z</time>
      </trkpt>
      <trkpt lat="45.69331" lon="6.32884">
        <ele>1816.693199</ele>
        <time>2021-06-23T14:12:56.182Z</time>
      </trkpt>
      <trkpt lat="45.6934" lon="6.32893">
        <ele>1818.394238</ele>
        <time>2021-06-23T14:13:27.187Z</time>
      </trkpt>
      <trkpt lat="45.6935" lon="6.32898">
        <ele>1819.901792</ele>
        <time>2021-06-23T14:13:35.161Z</time>
      </trkpt>
      <trkpt lat="45.69359" lon="6.329">
        <ele>1821.311055</ele>
        <time>2021-06-23T14:13:48.162Z</time>
      </trkpt>
      <trkpt lat="45.69368" lon="6.32903">
        <ele>1822.681948</ele>
        <time>2021-06-23T14:14:02.166Z</time>
      </trkpt>
      <trkpt lat="45.69377" lon="6.32907">
        <ele>1824.128426</ele>
        <time>2021-06-23T14:14:15.165Z</time>
      </trkpt>
      <trkpt lat="45.69387" lon="6.32906">
        <ele>1825.635751</ele>
        <time>2021-06-23T14:14:23.168Z</time>
      </trkpt>
      <trkpt lat="45.69396" lon="6.32908">
        <ele>1826.993396</ele>
        <time>2021-06-23T14:14:47.158Z</time>
      </trkpt>
      <trkpt lat="45.69387" lon="6.32905">
        <ele>1828.378873</ele>
        <time>2021-06-23T14:16:01.175Z</time>
      </trkpt>
      <trkpt lat="45.69386" lon="6.32902">
        <ele>1828.783483</ele>
        <time>2021-06-23T14:16:16.341Z</time>
      </trkpt>
      <trkpt lat="45.69402" lon="6.32912">
        <ele>1831.235648</ele>
        <time>2021-06-23T14:26:36.465Z</time>
      </trkpt>
      <trkpt lat="45.69582" lon="6.33072">
        <ele>1853.25399</ele>
        <time>2021-06-23T14:40:39.586Z</time>
      </trkpt>
      <trkpt lat="45.69591" lon="6.33075">
        <ele>1853.134638</ele>
        <time>2021-06-23T14:41:01.189Z</time>
      </trkpt>
      <trkpt lat="45.69599" lon="6.3308">
        <ele>1853.011944</ele>
        <time>2021-06-23T14:41:31.176Z</time>
      </trkpt>
      <trkpt lat="45.69608" lon="6.33078">
        <ele>1852.891293</ele>
        <time>2021-06-23T14:43:27.165Z</time>
      </trkpt>
      <trkpt lat="45.69618" lon="6.33081">
        <ele>1852.76642</ele>
        <time>2021-06-23T14:44:46.161Z</time>
      </trkpt>
      <trkpt lat="45.69627" lon="6.33084">
        <ele>1852.640764</ele>
        <time>2021-06-23T14:45:12.167Z</time>
      </trkpt>
      <trkpt lat="45.69636" lon="6.33085">
        <ele>1852.518212</ele>
        <time>2021-06-23T14:45:32.168Z</time>
      </trkpt>
      <trkpt lat="45.69646" lon="6.33083">
        <ele>1852.393846</ele>
        <time>2021-06-23T14:45:58.150Z</time>
      </trkpt>
      <trkpt lat="45.69655" lon="6.33086">
        <ele>1852.270786</ele>
        <time>2021-06-23T14:46:13.165Z</time>
      </trkpt>
      <trkpt lat="45.69669" lon="6.33092">
        <ele>1852.078477</ele>
        <time>2021-06-23T14:47:02.176Z</time>
      </trkpt>
      <trkpt lat="45.69678" lon="6.33094">
        <ele>1851.953281</ele>
        <time>2021-06-23T14:47:18.170Z</time>
      </trkpt>
      <trkpt lat="45.69687" lon="6.33101">
        <ele>1851.817161</ele>
        <time>2021-06-23T14:47:36.158Z</time>
      </trkpt>
      <trkpt lat="45.69697" lon="6.33101">
        <ele>1851.694692</ele>
        <time>2021-06-23T14:47:53.163Z</time>
      </trkpt>
      <trkpt lat="45.69705" lon="6.33098">
        <ele>1851.575652</ele>
        <time>2021-06-23T14:47:58.169Z</time>
      </trkpt>
      <trkpt lat="45.69715" lon="6.33096">
        <ele>1851.057424</ele>
        <time>2021-06-23T14:48:06.184Z</time>
      </trkpt>
      <trkpt lat="45.69724" lon="6.33092">
        <ele>1850.497029</ele>
        <time>2021-06-23T14:48:10.168Z</time>
      </trkpt>
      <trkpt lat="45.69733" lon="6.33089">
        <ele>1849.938232</ele>
        <time>2021-06-23T14:48:24.166Z</time>
      </trkpt>
      <trkpt lat="45.69742" lon="6.3309">
        <ele>1849.377358</ele>
        <time>2021-06-23T14:48:47.170Z</time>
      </trkpt>
      <trkpt lat="45.69751" lon="6.33089">
        <ele>1848.803929</ele>
        <time>2021-06-23T14:49:23.164Z</time>
      </trkpt>
      <trkpt lat="45.6976" lon="6.33088">
        <ele>1848.234769</ele>
        <time>2021-06-23T14:50:01.168Z</time>
      </trkpt>
      <trkpt lat="45.69769" lon="6.33088">
        <ele>1847.681085</ele>
        <time>2021-06-23T14:50:25.144Z</time>
      </trkpt>
      <trkpt lat="45.69779" lon="6.33086">
        <ele>1847.084286</ele>
        <time>2021-06-23T14:50:37.160Z</time>
      </trkpt>
      <trkpt lat="45.69787" lon="6.33078">
        <ele>1846.503866</ele>
        <time>2021-06-23T14:51:03.147Z</time>
      </trkpt>
      <trkpt lat="45.69793" lon="6.33088">
        <ele>1845.936621</ele>
        <time>2021-06-23T14:52:54.178Z</time>
      </trkpt>
      <trkpt lat="45.69802" lon="6.33085">
        <ele>1845.361752</ele>
        <time>2021-06-23T14:53:05.155Z</time>
      </trkpt>
      <trkpt lat="45.69811" lon="6.33086">
        <ele>1844.79381</ele>
        <time>2021-06-23T14:53:33.155Z</time>
      </trkpt>
      <trkpt lat="45.6982" lon="6.3309">
        <ele>1844.206926</ele>
        <time>2021-06-23T14:53:48.179Z</time>
      </trkpt>
      <trkpt lat="45.69828" lon="6.33097">
        <ele>1843.613504</ele>
        <time>2021-06-23T14:54:09.169Z</time>
      </trkpt>
      <trkpt lat="45.69838" lon="6.331">
        <ele>1842.965116</ele>
        <time>2021-06-23T14:54:17.157Z</time>
      </trkpt>
      <trkpt lat="45.69848" lon="6.33098">
        <ele>1842.38048</ele>
        <time>2021-06-23T14:54:50.169Z</time>
      </trkpt>
      <trkpt lat="45.69857" lon="6.33097">
        <ele>1841.814361</ele>
        <time>2021-06-23T14:55:03.155Z</time>
      </trkpt>
      <trkpt lat="45.69866" lon="6.33099">
        <ele>1841.241242</ele>
        <time>2021-06-23T14:55:16.176Z</time>
      </trkpt>
      <trkpt lat="45.69875" lon="6.33101">
        <ele>1840.666399</ele>
        <time>2021-06-23T14:55:43.161Z</time>
      </trkpt>
      <trkpt lat="45.69885" lon="6.33102">
        <ele>1839.459831</ele>
        <time>2021-06-23T14:56:00.165Z</time>
      </trkpt>
      <trkpt lat="45.69894" lon="6.33097">
        <ele>1837.987023</ele>
        <time>2021-06-23T14:56:13.173Z</time>
      </trkpt>
      <trkpt lat="45.69903" lon="6.33098">
        <ele>1836.520181</ele>
        <time>2021-06-23T14:56:29.155Z</time>
      </trkpt>
      <trkpt lat="45.69912" lon="6.33099">
        <ele>1835.090763</ele>
        <time>2021-06-23T14:56:52.180Z</time>
      </trkpt>
      <trkpt lat="45.6992" lon="6.33094">
        <ele>1833.658364</ele>
        <time>2021-06-23T14:57:03.165Z</time>
      </trkpt>
      <trkpt lat="45.69929" lon="6.33093">
        <ele>1832.223402</ele>
        <time>2021-06-23T14:57:17.156Z</time>
      </trkpt>
      <trkpt lat="45.69938" lon="6.33093">
        <ele>1830.788735</ele>
        <time>2021-06-23T14:57:30.166Z</time>
      </trkpt>
      <trkpt lat="45.69947" lon="6.33092">
        <ele>1829.350231</ele>
        <time>2021-06-23T14:57:45.153Z</time>
      </trkpt>
      <trkpt lat="45.69956" lon="6.3309">
        <ele>1827.911182</ele>
        <time>2021-06-23T14:58:33.169Z</time>
      </trkpt>
      <trkpt lat="45.69966" lon="6.33094">
        <ele>1826.392519</ele>
        <time>2021-06-23T14:59:14.161Z</time>
      </trkpt>
      <trkpt lat="45.69975" lon="6.33095">
        <ele>1824.907639</ele>
        <time>2021-06-23T14:59:24.154Z</time>
      </trkpt>
      <trkpt lat="45.69984" lon="6.331">
        <ele>1823.467488</ele>
        <time>2021-06-23T14:59:46.169Z</time>
      </trkpt>
      <trkpt lat="45.69994" lon="6.3311">
        <ele>1821.48062</ele>
        <time>2021-06-23T15:01:09.161Z</time>
      </trkpt>
      <trkpt lat="45.70002" lon="6.33117">
        <ele>1820.010503</ele>
        <time>2021-06-23T15:01:29.156Z</time>
      </trkpt>
      <trkpt lat="45.70009" lon="6.33125">
        <ele>1818.536693</ele>
        <time>2021-06-23T15:01:51.158Z</time>
      </trkpt>
      <trkpt lat="45.70019" lon="6.33124">
        <ele>1817.096337</ele>
        <time>2021-06-23T15:02:15.147Z</time>
      </trkpt>
      <trkpt lat="45.70027" lon="6.33131">
        <ele>1815.580238</ele>
        <time>2021-06-23T15:02:42.163Z</time>
      </trkpt>
      <trkpt lat="45.70035" lon="6.33139">
        <ele>1813.984573</ele>
        <time>2021-06-23T15:03:25.166Z</time>
      </trkpt>
      <trkpt lat="45.70044" lon="6.33144">
        <ele>1812.506995</ele>
        <time>2021-06-23T15:03:43.175Z</time>
      </trkpt>
      <trkpt lat="45.70052" lon="6.33151">
        <ele>1810.991776</ele>
        <time>2021-06-23T15:04:18.156Z</time>
      </trkpt>
      <trkpt lat="45.7006" lon="6.33158">
        <ele>1809.449354</ele>
        <time>2021-06-23T15:04:26.158Z</time>
      </trkpt>
      <trkpt lat="45.70068" lon="6.33167">
        <ele>1807.868971</ele>
        <time>2021-06-23T15:04:45.161Z</time>
      </trkpt>
      <trkpt lat="45.70075" lon="6.33177">
        <ele>1806.27139</ele>
        <time>2021-06-23T15:04:51.165Z</time>
      </trkpt>
      <trkpt lat="45.70084" lon="6.33183">
        <ele>1804.659596</ele>
        <time>2021-06-23T15:05:00.170Z</time>
      </trkpt>
      <trkpt lat="45.70093" lon="6.33187">
        <ele>1803.129693</ele>
        <time>2021-06-23T15:05:10.174Z</time>
      </trkpt>
      <trkpt lat="45.70102" lon="6.3319">
        <ele>1801.618203</ele>
        <time>2021-06-23T15:05:21.169Z</time>
      </trkpt>
      <trkpt lat="45.70111" lon="6.33198">
        <ele>1799.936409</ele>
        <time>2021-06-23T15:05:38.155Z</time>
      </trkpt>
      <trkpt lat="45.7012" lon="6.33204">
        <ele>1798.444933</ele>
        <time>2021-06-23T15:05:45.158Z</time>
      </trkpt>
      <trkpt lat="45.70133" lon="6.33215">
        <ele>1795.969837</ele>
        <time>2021-06-23T15:06:22.169Z</time>
      </trkpt>
      <trkpt lat="45.7014" lon="6.33225">
        <ele>1794.372266</ele>
        <time>2021-06-23T15:06:56.146Z</time>
      </trkpt>
      <trkpt lat="45.70143" lon="6.33237">
        <ele>1792.917131</ele>
        <time>2021-06-23T15:08:52.155Z</time>
      </trkpt>
      <trkpt lat="45.70152" lon="6.33249">
        <ele>1790.943294</ele>
        <time>2021-06-23T15:10:01.165Z</time>
      </trkpt>
      <trkpt lat="45.70161" lon="6.33259">
        <ele>1789.129552</ele>
        <time>2021-06-23T15:16:35.178Z</time>
      </trkpt>
      <trkpt lat="45.70168" lon="6.33267">
        <ele>1787.667639</ele>
        <time>2021-06-23T15:17:14.165Z</time>
      </trkpt>
      <trkpt lat="45.70174" lon="6.33287">
        <ele>1785.2165</ele>
        <time>2021-06-23T15:17:47.168Z</time>
      </trkpt>
      <trkpt lat="45.70181" lon="6.33295">
        <ele>1783.768621</ele>
        <time>2021-06-23T15:18:02.167Z</time>
      </trkpt>
      <trkpt lat="45.7019" lon="6.33292">
        <ele>1781.119402</ele>
        <time>2021-06-23T15:18:21.143Z</time>
      </trkpt>
      <trkpt lat="45.70196" lon="6.33302">
        <ele>1777.826608</ele>
        <time>2021-06-23T15:18:52.148Z</time>
      </trkpt>
      <trkpt lat="45.70204" lon="6.33312">
        <ele>1774.29635</ele>
        <time>2021-06-23T15:19:11.147Z</time>
      </trkpt>
      <trkpt lat="45.70208" lon="6.33325">
        <ele>1770.831297</ele>
        <time>2021-06-23T15:19:21.155Z</time>
      </trkpt>
      <trkpt lat="45.70214" lon="6.33335">
        <ele>1767.503641</ele>
        <time>2021-06-23T15:19:29.155Z</time>
      </trkpt>
      <trkpt lat="45.70216" lon="6.33348">
        <ele>1764.217035</ele>
        <time>2021-06-23T15:19:50.150Z</time>
      </trkpt>
      <trkpt lat="45.70223" lon="6.33358">
        <ele>1760.791957</ele>
        <time>2021-06-23T15:19:58.157Z</time>
      </trkpt>
      <trkpt lat="45.70226" lon="6.3337">
        <ele>1757.570289</ele>
        <time>2021-06-23T15:20:09.169Z</time>
      </trkpt>
      <trkpt lat="45.70233" lon="6.33381">
        <ele>1754.125666</ele>
        <time>2021-06-23T15:20:21.168Z</time>
      </trkpt>
      <trkpt lat="45.70238" lon="6.33392">
        <ele>1750.744291</ele>
        <time>2021-06-23T15:20:36.164Z</time>
      </trkpt>
      <trkpt lat="45.70245" lon="6.33402">
        <ele>1747.257969</ele>
        <time>2021-06-23T15:20:57.150Z</time>
      </trkpt>
      <trkpt lat="45.70248" lon="6.33415">
        <ele>1744.0595</ele>
        <time>2021-06-23T15:21:13.161Z</time>
      </trkpt>
      <trkpt lat="45.70257" lon="6.33419">
        <ele>1740.85489</ele>
        <time>2021-06-23T15:21:26.164Z</time>
      </trkpt>
      <trkpt lat="45.70266" lon="6.33417">
        <ele>1737.628931</ele>
        <time>2021-06-23T15:21:54.154Z</time>
      </trkpt>
      <trkpt lat="45.7027" lon="6.33429">
        <ele>1734.339647</ele>
        <time>2021-06-23T15:22:23.186Z</time>
      </trkpt>
      <trkpt lat="45.70274" lon="6.33441">
        <ele>1731.119576</ele>
        <time>2021-06-23T15:22:33.170Z</time>
      </trkpt>
      <trkpt lat="45.70283" lon="6.33446">
        <ele>1727.830537</ele>
        <time>2021-06-23T15:22:57.157Z</time>
      </trkpt>
      <trkpt lat="45.70282" lon="6.3346">
        <ele>1724.540142</ele>
        <time>2021-06-23T15:23:20.160Z</time>
      </trkpt>
      <trkpt lat="45.7029" lon="6.33468">
        <ele>1721.223048</ele>
        <time>2021-06-23T15:23:32.158Z</time>
      </trkpt>
      <trkpt lat="45.70296" lon="6.33478">
        <ele>1718.310982</ele>
        <time>2021-06-23T15:24:13.175Z</time>
      </trkpt>
      <trkpt lat="45.70305" lon="6.33477">
        <ele>1715.454997</ele>
        <time>2021-06-23T15:24:24.166Z</time>
      </trkpt>
      <trkpt lat="45.70313" lon="6.3347">
        <ele>1712.700781</ele>
        <time>2021-06-23T15:24:44.154Z</time>
      </trkpt>
      <trkpt lat="45.70317" lon="6.33482">
        <ele>1709.902184</ele>
        <time>2021-06-23T15:24:58.157Z</time>
      </trkpt>
      <trkpt lat="45.70326" lon="6.33482">
        <ele>1707.228082</ele>
        <time>2021-06-23T15:25:21.153Z</time>
      </trkpt>
      <trkpt lat="45.7033" lon="6.33496">
        <ele>1704.072735</ele>
        <time>2021-06-23T15:25:46.156Z</time>
      </trkpt>
      <trkpt lat="45.70336" lon="6.33507">
        <ele>1701.01275</ele>
        <time>2021-06-23T15:25:59.144Z</time>
      </trkpt>
      <trkpt lat="45.70346" lon="6.33513">
        <ele>1697.728494</ele>
        <time>2021-06-23T15:26:04.145Z</time>
      </trkpt>
      <trkpt lat="45.70352" lon="6.33524">
        <ele>1695.006572</ele>
        <time>2021-06-23T15:26:09.148Z</time>
      </trkpt>
      <trkpt lat="45.70357" lon="6.33538">
        <ele>1691.81118</ele>
        <time>2021-06-23T15:26:14.154Z</time>
      </trkpt>
      <trkpt lat="45.70363" lon="6.3355">
        <ele>1688.6126</ele>
        <time>2021-06-23T15:26:19.164Z</time>
      </trkpt>
      <trkpt lat="45.70367" lon="6.33563">
        <ele>1685.683936</ele>
        <time>2021-06-23T15:26:25.166Z</time>
      </trkpt>
      <trkpt lat="45.70375" lon="6.33571">
        <ele>1682.914415</ele>
        <time>2021-06-23T15:26:28.169Z</time>
      </trkpt>
      <trkpt lat="45.70382" lon="6.33583">
        <ele>1679.717666</ele>
        <time>2021-06-23T15:26:32.165Z</time>
      </trkpt>
      <trkpt lat="45.70392" lon="6.33589">
        <ele>1676.488165</ele>
        <time>2021-06-23T15:26:36.161Z</time>
      </trkpt>
      <trkpt lat="45.704" lon="6.33595">
        <ele>1673.672512</ele>
        <time>2021-06-23T15:26:39.155Z</time>
      </trkpt>
      <trkpt lat="45.7041" lon="6.33599">
        <ele>1670.724033</ele>
        <time>2021-06-23T15:26:42.152Z</time>
      </trkpt>
      <trkpt lat="45.70419" lon="6.33605">
        <ele>1667.630864</ele>
        <time>2021-06-23T15:26:49.159Z</time>
      </trkpt>
      <trkpt lat="45.70428" lon="6.33611">
        <ele>1665.423782</ele>
        <time>2021-06-23T15:26:54.161Z</time>
      </trkpt>
      <trkpt lat="45.70437" lon="6.33619">
        <ele>1663.428836</ele>
        <time>2021-06-23T15:26:58.155Z</time>
      </trkpt>
      <trkpt lat="45.70446" lon="6.33622">
        <ele>1661.705164</ele>
        <time>2021-06-23T15:27:05.148Z</time>
      </trkpt>
      <trkpt lat="45.70455" lon="6.33625">
        <ele>1659.836107</ele>
        <time>2021-06-23T15:27:20.155Z</time>
      </trkpt>
      <trkpt lat="45.70464" lon="6.3363">
        <ele>1658.026329</ele>
        <time>2021-06-23T15:27:24.145Z</time>
      </trkpt>
      <trkpt lat="45.70469" lon="6.33642">
        <ele>1656.219048</ele>
        <time>2021-06-23T15:27:29.157Z</time>
      </trkpt>
      <trkpt lat="45.70472" lon="6.33654">
        <ele>1654.404075</ele>
        <time>2021-06-23T15:27:38.158Z</time>
      </trkpt>
      <trkpt lat="45.70479" lon="6.33668">
        <ele>1652.273532</ele>
        <time>2021-06-23T15:27:46.164Z</time>
      </trkpt>
      <trkpt lat="45.70487" lon="6.33675">
        <ele>1650.420404</ele>
        <time>2021-06-23T15:27:51.149Z</time>
      </trkpt>
      <trkpt lat="45.70496" lon="6.3368">
        <ele>1648.550997</ele>
        <time>2021-06-23T15:27:58.166Z</time>
      </trkpt>
      <trkpt lat="45.70508" lon="6.33679">
        <ele>1646.289927</ele>
        <time>2021-06-23T15:28:04.164Z</time>
      </trkpt>
      <trkpt lat="45.70516" lon="6.33686">
        <ele>1644.530094</ele>
        <time>2021-06-23T15:28:08.143Z</time>
      </trkpt>
      <trkpt lat="45.7052" lon="6.33699">
        <ele>1642.631065</ele>
        <time>2021-06-23T15:28:11.148Z</time>
      </trkpt>
      <trkpt lat="45.70523" lon="6.33712">
        <ele>1640.896513</ele>
        <time>2021-06-23T15:28:13.155Z</time>
      </trkpt>
      <trkpt lat="45.70527" lon="6.33731">
        <ele>1638.204704</ele>
        <time>2021-06-23T15:28:16.158Z</time>
      </trkpt>
      <trkpt lat="45.70531" lon="6.33746">
        <ele>1636.095377</ele>
        <time>2021-06-23T15:28:19.137Z</time>
      </trkpt>
      <trkpt lat="45.70539" lon="6.33753">
        <ele>1634.31551</ele>
        <time>2021-06-23T15:28:23.134Z</time>
      </trkpt>
      <trkpt lat="45.70543" lon="6.33767">
        <ele>1632.545694</ele>
        <time>2021-06-23T15:28:28.146Z</time>
      </trkpt>
      <trkpt lat="45.70546" lon="6.33779">
        <ele>1633.75367</ele>
        <time>2021-06-23T15:28:33.137Z</time>
      </trkpt>
      <trkpt lat="45.70554" lon="6.33788">
        <ele>1634.984566</ele>
        <time>2021-06-23T15:28:42.124Z</time>
      </trkpt>
      <trkpt lat="45.70561" lon="6.33796">
        <ele>1636.173728</ele>
        <time>2021-06-23T15:28:55.135Z</time>
      </trkpt>
      <trkpt lat="45.70571" lon="6.33804">
        <ele>1637.621741</ele>
        <time>2021-06-23T15:37:20.139Z</time>
      </trkpt>
      <trkpt lat="45.70578" lon="6.33813">
        <ele>1638.7621</ele>
        <time>2021-06-23T15:37:41.139Z</time>
      </trkpt>
      <trkpt lat="45.70578" lon="6.33827">
        <ele>1640.014947</ele>
        <time>2021-06-23T15:38:52.144Z</time>
      </trkpt>
      <trkpt lat="45.7058" lon="6.33839">
        <ele>1641.168467</ele>
        <time>2021-06-23T15:39:04.155Z</time>
      </trkpt>
      <trkpt lat="45.70578" lon="6.33852">
        <ele>1642.33308</ele>
        <time>2021-06-23T15:39:13.146Z</time>
      </trkpt>
      <trkpt lat="45.70585" lon="6.33877">
        <ele>1644.646376</ele>
        <time>2021-06-23T15:40:27.163Z</time>
      </trkpt>
      <trkpt lat="45.70586" lon="6.3389">
        <ele>1645.856642</ele>
        <time>2021-06-23T15:40:37.145Z</time>
      </trkpt>
      <trkpt lat="45.70589" lon="6.33914">
        <ele>1647.978551</ele>
        <time>2021-06-23T15:41:23.156Z</time>
      </trkpt>
      <trkpt lat="45.70587" lon="6.33927">
        <ele>1649.135734</ele>
        <time>2021-06-23T15:41:40.142Z</time>
      </trkpt>
      <trkpt lat="45.70586" lon="6.3394">
        <ele>1650.319667</ele>
        <time>2021-06-23T15:41:59.147Z</time>
      </trkpt>
      <trkpt lat="45.70583" lon="6.33952">
        <ele>1651.502469</ele>
        <time>2021-06-23T15:42:10.142Z</time>
      </trkpt>
      <trkpt lat="45.70583" lon="6.33965">
        <ele>1652.642757</ele>
        <time>2021-06-23T15:42:27.148Z</time>
      </trkpt>
      <trkpt lat="45.70586" lon="6.33978">
        <ele>1653.82556</ele>
        <time>2021-06-23T15:42:41.144Z</time>
      </trkpt>
      <trkpt lat="45.70585" lon="6.33993">
        <ele>1655.162663</ele>
        <time>2021-06-23T15:43:16.133Z</time>
      </trkpt>
      <trkpt lat="45.70587" lon="6.34006">
        <ele>1652.989062</ele>
        <time>2021-06-23T15:43:21.136Z</time>
      </trkpt>
      <trkpt lat="45.70587" lon="6.3402">
        <ele>1649.819757</ele>
        <time>2021-06-23T15:43:34.130Z</time>
      </trkpt>
      <trkpt lat="45.70588" lon="6.34034">
        <ele>1646.804685</ele>
        <time>2021-06-23T15:44:01.144Z</time>
      </trkpt>
      <trkpt lat="45.70591" lon="6.34047">
        <ele>1643.724684</ele>
        <time>2021-06-23T15:44:15.126Z</time>
      </trkpt>
      <trkpt lat="45.70599" lon="6.34043">
        <ele>1640.827077</ele>
        <time>2021-06-23T15:44:21.123Z</time>
      </trkpt>
      <trkpt lat="45.70607" lon="6.34034">
        <ele>1637.831575</ele>
        <time>2021-06-23T15:44:28.126Z</time>
      </trkpt>
      <trkpt lat="45.70616" lon="6.3403">
        <ele>1634.833817</ele>
        <time>2021-06-23T15:44:41.126Z</time>
      </trkpt>
      <trkpt lat="45.70619" lon="6.34045">
        <ele>1631.542888</ele>
        <time>2021-06-23T15:44:55.119Z</time>
      </trkpt>
      <trkpt lat="45.70619" lon="6.34058">
        <ele>1628.662117</ele>
        <time>2021-06-23T15:45:02.125Z</time>
      </trkpt>
      <trkpt lat="45.70628" lon="6.34058">
        <ele>1625.690009</ele>
        <time>2021-06-23T15:45:14.126Z</time>
      </trkpt>
      <trkpt lat="45.70638" lon="6.34054">
        <ele>1622.540691</ele>
        <time>2021-06-23T15:45:20.119Z</time>
      </trkpt>
      <trkpt lat="45.70644" lon="6.34065">
        <ele>1619.453531</ele>
        <time>2021-06-23T15:45:39.115Z</time>
      </trkpt>
      <trkpt lat="45.70653" lon="6.34062">
        <ele>1616.453726</ele>
        <time>2021-06-23T15:45:48.126Z</time>
      </trkpt>
      <trkpt lat="45.70657" lon="6.34074">
        <ele>1613.656503</ele>
        <time>2021-06-23T15:46:15.114Z</time>
      </trkpt>
      <trkpt lat="45.70666" lon="6.34071">
        <ele>1610.761447</ele>
        <time>2021-06-23T15:46:30.116Z</time>
      </trkpt>
      <trkpt lat="45.70675" lon="6.34067">
        <ele>1607.922381</ele>
        <time>2021-06-23T15:46:37.111Z</time>
      </trkpt>
      <trkpt lat="45.70685" lon="6.34067">
        <ele>1604.610516</ele>
        <time>2021-06-23T15:46:45.122Z</time>
      </trkpt>
      <trkpt lat="45.70694" lon="6.34074">
        <ele>1601.606355</ele>
        <time>2021-06-23T15:46:52.114Z</time>
      </trkpt>
      <trkpt lat="45.70701" lon="6.34081">
        <ele>1599.059472</ele>
        <time>2021-06-23T15:47:04.115Z</time>
      </trkpt>
      <trkpt lat="45.7071" lon="6.34084">
        <ele>1598.288511</ele>
        <time>2021-06-23T15:47:31.123Z</time>
      </trkpt>
      <trkpt lat="45.70718" lon="6.34092">
        <ele>1597.504205</ele>
        <time>2021-06-23T15:47:39.124Z</time>
      </trkpt>
      <trkpt lat="45.70727" lon="6.34096">
        <ele>1596.727118</ele>
        <time>2021-06-23T15:47:44.122Z</time>
      </trkpt>
      <trkpt lat="45.70735" lon="6.34102">
        <ele>1595.983661</ele>
        <time>2021-06-23T15:47:49.124Z</time>
      </trkpt>
      <trkpt lat="45.70745" lon="6.34112">
        <ele>1594.935575</ele>
        <time>2021-06-23T15:47:57.120Z</time>
      </trkpt>
      <trkpt lat="45.70754" lon="6.34116">
        <ele>1594.195516</ele>
        <time>2021-06-23T15:48:06.115Z</time>
      </trkpt>
      <trkpt lat="45.70762" lon="6.34124">
        <ele>1593.382869</ele>
        <time>2021-06-23T15:48:18.112Z</time>
      </trkpt>
      <trkpt lat="45.70771" lon="6.34131">
        <ele>1592.579189</ele>
        <time>2021-06-23T15:48:33.114Z</time>
      </trkpt>
      <trkpt lat="45.70775" lon="6.34144">
        <ele>1591.787484</ele>
        <time>2021-06-23T15:48:41.110Z</time>
      </trkpt>
      <trkpt lat="45.70781" lon="6.34153">
        <ele>1591.030749</ele>
        <time>2021-06-23T15:48:52.102Z</time>
      </trkpt>
      <trkpt lat="45.70783" lon="6.34167">
        <ele>1590.238145</ele>
        <time>2021-06-23T15:49:23.114Z</time>
      </trkpt>
      <trkpt lat="45.70787" lon="6.34178">
        <ele>1589.495368</ele>
        <time>2021-06-23T15:49:31.110Z</time>
      </trkpt>
      <trkpt lat="45.70797" lon="6.34181">
        <ele>1588.668032</ele>
        <time>2021-06-23T15:49:40.113Z</time>
      </trkpt>
      <trkpt lat="45.70806" lon="6.34189">
        <ele>1587.772314</ele>
        <time>2021-06-23T15:49:46.109Z</time>
      </trkpt>
      <trkpt lat="45.70813" lon="6.34198">
        <ele>1587.02808</ele>
        <time>2021-06-23T15:49:52.116Z</time>
      </trkpt>
      <trkpt lat="45.70818" lon="6.34209">
        <ele>1586.256929</ele>
        <time>2021-06-23T15:50:02.118Z</time>
      </trkpt>
      <trkpt lat="45.70821" lon="6.34222">
        <ele>1585.491613</ele>
        <time>2021-06-23T15:50:18.113Z</time>
      </trkpt>
      <trkpt lat="45.70829" lon="6.34228">
        <ele>1584.698592</ele>
        <time>2021-06-23T15:50:37.111Z</time>
      </trkpt>
      <trkpt lat="45.70836" lon="6.34239">
        <ele>1582.548699</ele>
        <time>2021-06-23T15:50:44.115Z</time>
      </trkpt>
      <trkpt lat="45.70845" lon="6.34247">
        <ele>1579.685862</ele>
        <time>2021-06-23T15:50:50.108Z</time>
      </trkpt>
      <trkpt lat="45.70851" lon="6.34256">
        <ele>1577.114101</ele>
        <time>2021-06-23T15:50:58.113Z</time>
      </trkpt>
      <trkpt lat="45.70861" lon="6.34261">
        <ele>1574.246415</ele>
        <time>2021-06-23T15:51:05.115Z</time>
      </trkpt>
      <trkpt lat="45.70867" lon="6.34272">
        <ele>1571.358589</ele>
        <time>2021-06-23T15:51:12.109Z</time>
      </trkpt>
      <trkpt lat="45.70876" lon="6.34275">
        <ele>1568.829588</ele>
        <time>2021-06-23T15:51:17.107Z</time>
      </trkpt>
      <trkpt lat="45.70882" lon="6.34287">
        <ele>1566.02297</ele>
        <time>2021-06-23T15:51:32.103Z</time>
      </trkpt>
      <trkpt lat="45.70888" lon="6.34298">
        <ele>1563.409255</ele>
        <time>2021-06-23T15:51:45.108Z</time>
      </trkpt>
      <trkpt lat="45.70896" lon="6.34307">
        <ele>1560.402838</ele>
        <time>2021-06-23T15:51:51.098Z</time>
      </trkpt>
      <trkpt lat="45.70899" lon="6.34321">
        <ele>1557.447449</ele>
        <time>2021-06-23T15:52:00.108Z</time>
      </trkpt>
      <trkpt lat="45.70908" lon="6.34328">
        <ele>1554.807339</ele>
        <time>2021-06-23T15:52:11.103Z</time>
      </trkpt>
      <trkpt lat="45.70914" lon="6.34338">
        <ele>1552.169037</ele>
        <time>2021-06-23T15:52:28.116Z</time>
      </trkpt>
      <trkpt lat="45.70921" lon="6.34351">
        <ele>1549.037484</ele>
        <time>2021-06-23T15:52:35.112Z</time>
      </trkpt>
      <trkpt lat="45.70927" lon="6.34362">
        <ele>1546.255192</ele>
        <time>2021-06-23T15:52:41.109Z</time>
      </trkpt>
      <trkpt lat="45.70931" lon="6.34374">
        <ele>1543.652134</ele>
        <time>2021-06-23T15:52:49.115Z</time>
      </trkpt>
      <trkpt lat="45.70936" lon="6.34385">
        <ele>1541.022344</ele>
        <time>2021-06-23T15:52:59.115Z</time>
      </trkpt>
      <trkpt lat="45.70941" lon="6.34397">
        <ele>1538.297378</ele>
        <time>2021-06-23T15:53:10.113Z</time>
      </trkpt>
      <trkpt lat="45.70948" lon="6.34405">
        <ele>1535.698978</ele>
        <time>2021-06-23T15:53:20.114Z</time>
      </trkpt>
      <trkpt lat="45.70956" lon="6.34411">
        <ele>1533.300093</ele>
        <time>2021-06-23T15:53:32.112Z</time>
      </trkpt>
      <trkpt lat="45.70962" lon="6.34427">
        <ele>1530.334098</ele>
        <time>2021-06-23T15:53:41.125Z</time>
      </trkpt>
      <trkpt lat="45.7097" lon="6.34435">
        <ele>1528.151382</ele>
        <time>2021-06-23T15:54:01.118Z</time>
      </trkpt>
      <trkpt lat="45.70974" lon="6.34447">
        <ele>1525.815585</ele>
        <time>2021-06-23T15:54:13.113Z</time>
      </trkpt>
      <trkpt lat="45.70982" lon="6.34463">
        <ele>1522.537886</ele>
        <time>2021-06-23T15:54:25.108Z</time>
      </trkpt>
      <trkpt lat="45.70988" lon="6.34472">
        <ele>1520.375613</ele>
        <time>2021-06-23T15:54:39.116Z</time>
      </trkpt>
      <trkpt lat="45.70992" lon="6.34485">
        <ele>1518.034345</ele>
        <time>2021-06-23T15:54:57.122Z</time>
      </trkpt>
      <trkpt lat="45.70999" lon="6.34495">
        <ele>1515.790542</ele>
        <time>2021-06-23T15:55:20.122Z</time>
      </trkpt>
      <trkpt lat="45.70997" lon="6.34508">
        <ele>1513.63953</ele>
        <time>2021-06-23T15:55:37.121Z</time>
      </trkpt>
      <trkpt lat="45.70995" lon="6.34521">
        <ele>1511.350661</ele>
        <time>2021-06-23T15:55:51.124Z</time>
      </trkpt>
      <trkpt lat="45.70998" lon="6.34534">
        <ele>1508.959364</ele>
        <time>2021-06-23T15:55:58.120Z</time>
      </trkpt>
      <trkpt lat="45.70999" lon="6.34547">
        <ele>1506.781071</ele>
        <time>2021-06-23T15:56:20.119Z</time>
      </trkpt>
      <trkpt lat="45.71004" lon="6.3456">
        <ele>1504.338291</ele>
        <time>2021-06-23T15:56:32.119Z</time>
      </trkpt>
      <trkpt lat="45.71006" lon="6.34573">
        <ele>1502.151827</ele>
        <time>2021-06-23T15:56:39.125Z</time>
      </trkpt>
      <trkpt lat="45.71007" lon="6.34586">
        <ele>1499.891519</ele>
        <time>2021-06-23T15:56:51.113Z</time>
      </trkpt>
      <trkpt lat="45.71006" lon="6.346">
        <ele>1497.643728</ele>
        <time>2021-06-23T15:57:02.124Z</time>
      </trkpt>
      <trkpt lat="45.71008" lon="6.34614">
        <ele>1495.263687</ele>
        <time>2021-06-23T15:57:07.127Z</time>
      </trkpt>
      <trkpt lat="45.71014" lon="6.34624">
        <ele>1492.931338</ele>
        <time>2021-06-23T15:57:23.119Z</time>
      </trkpt>
      <trkpt lat="45.71028" lon="6.34613">
        <ele>1489.031737</ele>
        <time>2021-06-23T15:58:22.141Z</time>
      </trkpt>
      <trkpt lat="45.71025" lon="6.34626">
        <ele>1486.445491</ele>
        <time>2021-06-23T15:59:24.118Z</time>
      </trkpt>
      <trkpt lat="45.71018" lon="6.34634">
        <ele>1484.025115</ele>
        <time>2021-06-23T15:59:50.116Z</time>
      </trkpt>
      <trkpt lat="45.71023" lon="6.34634">
        <ele>1482.81392</ele>
        <time>2021-06-23T16:00:30.287Z</time>
      </trkpt>
      <trkpt lat="45.71022" lon="6.34604">
        <ele>1477.509656</ele>
        <time>2021-06-23T16:09:52.861Z</time>
      </trkpt>
      <trkpt lat="45.71028" lon="6.34644">
        <ele>1470.039844</ele>
        <time>2021-06-23T16:09:56.404Z</time>
      </trkpt>
      <trkpt lat="45.71012" lon="6.34658">
        <ele>1465.154698</ele>
        <time>2021-06-23T16:10:06.374Z</time>
      </trkpt>
      <trkpt lat="45.71024" lon="6.34644">
        <ele>1461.110146</ele>
        <time>2021-06-23T16:10:28.289Z</time>
      </trkpt>
      <trkpt lat="45.70902" lon="6.34802">
        <ele>1380.149259</ele>
        <time>2021-06-23T16:17:48.140Z</time>
      </trkpt>
      <trkpt lat="45.70905" lon="6.34818">
        <ele>1373.066202</ele>
        <time>2021-06-23T16:18:16.142Z</time>
      </trkpt>
      <trkpt lat="45.70911" lon="6.34846">
        <ele>1359.694714</ele>
        <time>2021-06-23T16:19:01.140Z</time>
      </trkpt>
      <trkpt lat="45.70916" lon="6.34857">
        <ele>1353.829199</ele>
        <time>2021-06-23T16:19:14.141Z</time>
      </trkpt>
      <trkpt lat="45.70918" lon="6.34872">
        <ele>1347.222821</ele>
        <time>2021-06-23T16:19:45.154Z</time>
      </trkpt>
      <trkpt lat="45.70921" lon="6.34885">
        <ele>1340.823012</ele>
        <time>2021-06-23T16:19:58.150Z</time>
      </trkpt>
      <trkpt lat="45.70922" lon="6.349">
        <ele>1334.27575</ele>
        <time>2021-06-23T16:20:17.147Z</time>
      </trkpt>
      <trkpt lat="45.70926" lon="6.34912">
        <ele>1328.474491</ele>
        <time>2021-06-23T16:20:23.147Z</time>
      </trkpt>
      <trkpt lat="45.70932" lon="6.34921">
        <ele>1324.639333</ele>
        <time>2021-06-23T16:20:33.139Z</time>
      </trkpt>
      <trkpt lat="45.70926" lon="6.34931">
        <ele>1320.781943</ele>
        <time>2021-06-23T16:20:46.149Z</time>
      </trkpt>
      <trkpt lat="45.70919" lon="6.34941">
        <ele>1316.787746</ele>
        <time>2021-06-23T16:20:57.145Z</time>
      </trkpt>
      <trkpt lat="45.70924" lon="6.34953">
        <ele>1312.620764</ele>
        <time>2021-06-23T16:21:06.145Z</time>
      </trkpt>
      <trkpt lat="45.70927" lon="6.34967">
        <ele>1308.370615</ele>
        <time>2021-06-23T16:21:27.150Z</time>
      </trkpt>
      <trkpt lat="45.70935" lon="6.34974">
        <ele>1304.378762</ele>
        <time>2021-06-23T16:21:44.146Z</time>
      </trkpt>
      <trkpt lat="45.70925" lon="6.34978">
        <ele>1300.001736</ele>
        <time>2021-06-23T16:22:25.150Z</time>
      </trkpt>
      <trkpt lat="45.70916" lon="6.34977">
        <ele>1296.074349</ele>
        <time>2021-06-23T16:22:32.143Z</time>
      </trkpt>
      <trkpt lat="45.70907" lon="6.34986">
        <ele>1291.549443</ele>
        <time>2021-06-23T16:22:41.151Z</time>
      </trkpt>
      <trkpt lat="45.70899" lon="6.34993">
        <ele>1287.287716</ele>
        <time>2021-06-23T16:22:53.154Z</time>
      </trkpt>
      <trkpt lat="45.7089" lon="6.34989">
        <ele>1283.443383</ele>
        <time>2021-06-23T16:23:01.155Z</time>
      </trkpt>
      <trkpt lat="45.70882" lon="6.34993">
        <ele>1279.58878</ele>
        <time>2021-06-23T16:23:07.149Z</time>
      </trkpt>
      <trkpt lat="45.70885" lon="6.35007">
        <ele>1275.101893</ele>
        <time>2021-06-23T16:23:29.151Z</time>
      </trkpt>
      <trkpt lat="45.7089" lon="6.35019">
        <ele>1271.161034</ele>
        <time>2021-06-23T16:23:36.149Z</time>
      </trkpt>
      <trkpt lat="45.70895" lon="6.35031">
        <ele>1266.931666</ele>
        <time>2021-06-23T16:23:45.145Z</time>
      </trkpt>
      <trkpt lat="45.70893" lon="6.35045">
        <ele>1262.766199</ele>
        <time>2021-06-23T16:23:51.148Z</time>
      </trkpt>
      <trkpt lat="45.70892" lon="6.35058">
        <ele>1258.79795</ele>
        <time>2021-06-23T16:23:57.147Z</time>
      </trkpt>
      <trkpt lat="45.70892" lon="6.35072">
        <ele>1254.507982</ele>
        <time>2021-06-23T16:24:01.148Z</time>
      </trkpt>
      <trkpt lat="45.70888" lon="6.35084">
        <ele>1250.934485</ele>
        <time>2021-06-23T16:24:07.144Z</time>
      </trkpt>
      <trkpt lat="45.70884" lon="6.35096">
        <ele>1248.172541</ele>
        <time>2021-06-23T16:24:13.145Z</time>
      </trkpt>
      <trkpt lat="45.70887" lon="6.35108">
        <ele>1245.439055</ele>
        <time>2021-06-23T16:24:20.148Z</time>
      </trkpt>
      <trkpt lat="45.70889" lon="6.35122">
        <ele>1242.659856</ele>
        <time>2021-06-23T16:24:29.146Z</time>
      </trkpt>
      <trkpt lat="45.70884" lon="6.35132">
        <ele>1239.981116</ele>
        <time>2021-06-23T16:24:39.149Z</time>
      </trkpt>
      <trkpt lat="45.70882" lon="6.35145">
        <ele>1237.288216</ele>
        <time>2021-06-23T16:24:44.156Z</time>
      </trkpt>
      <trkpt lat="45.70883" lon="6.35159">
        <ele>1234.351125</ele>
        <time>2021-06-23T16:24:52.147Z</time>
      </trkpt>
      <trkpt lat="45.70881" lon="6.35172">
        <ele>1231.712994</ele>
        <time>2021-06-23T16:24:57.381Z</time>
      </trkpt>
      <trkpt lat="45.70884" lon="6.35186">
        <ele>1228.645362</ele>
        <time>2021-06-23T16:25:03.141Z</time>
      </trkpt>
      <trkpt lat="45.70886" lon="6.35199">
        <ele>1225.900446</ele>
        <time>2021-06-23T16:25:13.135Z</time>
      </trkpt>
      <trkpt lat="45.70885" lon="6.35212">
        <ele>1223.168498</ele>
        <time>2021-06-23T16:25:17.145Z</time>
      </trkpt>
      <trkpt lat="45.70878" lon="6.35222">
        <ele>1220.161104</ele>
        <time>2021-06-23T16:25:24.159Z</time>
      </trkpt>
      <trkpt lat="45.70874" lon="6.35235">
        <ele>1217.305497</ele>
        <time>2021-06-23T16:25:40.139Z</time>
      </trkpt>
      <trkpt lat="45.70864" lon="6.35234">
        <ele>1214.455342</ele>
        <time>2021-06-23T16:25:54.157Z</time>
      </trkpt>
      <trkpt lat="45.70855" lon="6.35227">
        <ele>1211.505543</ele>
        <time>2021-06-23T16:25:59.147Z</time>
      </trkpt>
      <trkpt lat="45.70849" lon="6.35215">
        <ele>1208.452054</ele>
        <time>2021-06-23T16:26:03.154Z</time>
      </trkpt>
      <trkpt lat="45.70842" lon="6.35208">
        <ele>1205.798478</ele>
        <time>2021-06-23T16:26:18.139Z</time>
      </trkpt>
      <trkpt lat="45.70838" lon="6.35193">
        <ele>1202.420357</ele>
        <time>2021-06-23T16:26:25.152Z</time>
      </trkpt>
      <trkpt lat="45.70835" lon="6.35175">
        <ele>1198.741507</ele>
        <time>2021-06-23T16:26:28.142Z</time>
      </trkpt>
      <trkpt lat="45.70828" lon="6.35167">
        <ele>1197.548849</ele>
        <time>2021-06-23T16:26:31.145Z</time>
      </trkpt>
      <trkpt lat="45.70819" lon="6.35157">
        <ele>1196.1309</ele>
        <time>2021-06-23T16:26:36.141Z</time>
      </trkpt>
      <trkpt lat="45.7081" lon="6.3515">
        <ele>1194.836102</ele>
        <time>2021-06-23T16:26:41.149Z</time>
      </trkpt>
      <trkpt lat="45.70802" lon="6.35143">
        <ele>1193.681277</ele>
        <time>2021-06-23T16:26:47.139Z</time>
      </trkpt>
      <trkpt lat="45.70794" lon="6.35134">
        <ele>1192.374043</ele>
        <time>2021-06-23T16:26:54.138Z</time>
      </trkpt>
      <trkpt lat="45.70788" lon="6.35123">
        <ele>1191.22057</ele>
        <time>2021-06-23T16:27:00.140Z</time>
      </trkpt>
      <trkpt lat="45.70789" lon="6.3511">
        <ele>1190.084453</ele>
        <time>2021-06-23T16:27:06.131Z</time>
      </trkpt>
      <trkpt lat="45.70782" lon="6.35098">
        <ele>1188.739733</ele>
        <time>2021-06-23T16:27:18.137Z</time>
      </trkpt>
      <trkpt lat="45.70773" lon="6.35092">
        <ele>1187.556101</ele>
        <time>2021-06-23T16:27:24.130Z</time>
      </trkpt>
      <trkpt lat="45.7077" lon="6.3508">
        <ele>1186.420755</ele>
        <time>2021-06-23T16:28:02.145Z</time>
      </trkpt>
      <trkpt lat="45.70762" lon="6.35088">
        <ele>1185.22014</ele>
        <time>2021-06-23T16:28:36.141Z</time>
      </trkpt>
      <trkpt lat="45.70756" lon="6.35098">
        <ele>1184.049865</ele>
        <time>2021-06-23T16:28:58.133Z</time>
      </trkpt>
      <trkpt lat="45.70746" lon="6.35095">
        <ele>1182.873063</ele>
        <time>2021-06-23T16:29:18.134Z</time>
      </trkpt>
      <trkpt lat="45.70738" lon="6.35102">
        <ele>1181.621945</ele>
        <time>2021-06-23T16:29:31.122Z</time>
      </trkpt>
      <trkpt lat="45.70729" lon="6.35107">
        <ele>1180.473452</ele>
        <time>2021-06-23T16:29:46.125Z</time>
      </trkpt>
      <trkpt lat="45.70727" lon="6.3512">
        <ele>1179.337375</ele>
        <time>2021-06-23T16:30:02.121Z</time>
      </trkpt>
      <trkpt lat="45.70722" lon="6.35133">
        <ele>1178.077454</ele>
        <time>2021-06-23T16:30:09.127Z</time>
      </trkpt>
      <trkpt lat="45.70723" lon="6.35148">
        <ele>1176.722107</ele>
        <time>2021-06-23T16:30:13.135Z</time>
      </trkpt>
      <trkpt lat="45.70725" lon="6.35165">
        <ele>1173.934676</ele>
        <time>2021-06-23T16:30:16.125Z</time>
      </trkpt>
      <trkpt lat="45.7072" lon="6.35178">
        <ele>1170.825906</ele>
        <time>2021-06-23T16:30:19.141Z</time>
      </trkpt>
      <trkpt lat="45.70715" lon="6.3519">
        <ele>1167.652296</ele>
        <time>2021-06-23T16:30:22.143Z</time>
      </trkpt>
      <trkpt lat="45.70708" lon="6.35199">
        <ele>1164.522133</ele>
        <time>2021-06-23T16:30:26.143Z</time>
      </trkpt>
      <trkpt lat="45.70699" lon="6.35205">
        <ele>1161.55435</ele>
        <time>2021-06-23T16:30:30.139Z</time>
      </trkpt>
      <trkpt lat="45.7069" lon="6.35209">
        <ele>1158.55601</ele>
        <time>2021-06-23T16:30:35.153Z</time>
      </trkpt>
      <trkpt lat="45.70681" lon="6.35209">
        <ele>1155.4677</ele>
        <time>2021-06-23T16:30:51.144Z</time>
      </trkpt>
      <trkpt lat="45.70672" lon="6.3521">
        <ele>1152.560043</ele>
        <time>2021-06-23T16:30:58.150Z</time>
      </trkpt>
      <trkpt lat="45.70663" lon="6.35214">
        <ele>1149.629235</ele>
        <time>2021-06-23T16:31:09.149Z</time>
      </trkpt>
      <trkpt lat="45.70653" lon="6.35218">
        <ele>1146.343958</ele>
        <time>2021-06-23T16:31:28.137Z</time>
      </trkpt>
      <trkpt lat="45.70644" lon="6.35224">
        <ele>1143.252307</ele>
        <time>2021-06-23T16:31:33.147Z</time>
      </trkpt>
      <trkpt lat="45.70635" lon="6.3523">
        <ele>1140.015874</ele>
        <time>2021-06-23T16:31:37.143Z</time>
      </trkpt>
      <trkpt lat="45.70627" lon="6.35237">
        <ele>1137.03884</ele>
        <time>2021-06-23T16:31:40.140Z</time>
      </trkpt>
      <trkpt lat="45.70619" lon="6.35247">
        <ele>1133.83379</ele>
        <time>2021-06-23T16:31:44.151Z</time>
      </trkpt>
      <trkpt lat="45.70609" lon="6.35246">
        <ele>1130.458486</ele>
        <time>2021-06-23T16:31:54.134Z</time>
      </trkpt>
      <trkpt lat="45.70599" lon="6.35243">
        <ele>1127.363182</ele>
        <time>2021-06-23T16:32:17.139Z</time>
      </trkpt>
      <trkpt lat="45.7059" lon="6.35249">
        <ele>1124.270094</ele>
        <time>2021-06-23T16:32:29.133Z</time>
      </trkpt>
      <trkpt lat="45.70582" lon="6.35258">
        <ele>1120.952785</ele>
        <time>2021-06-23T16:32:39.146Z</time>
      </trkpt>
      <trkpt lat="45.70574" lon="6.35265">
        <ele>1118.418926</ele>
        <time>2021-06-23T16:32:47.123Z</time>
      </trkpt>
      <trkpt lat="45.70566" lon="6.35271">
        <ele>1116.851413</ele>
        <time>2021-06-23T16:32:59.131Z</time>
      </trkpt>
      <trkpt lat="45.70557" lon="6.35274">
        <ele>1115.288426</ele>
        <time>2021-06-23T16:33:12.135Z</time>
      </trkpt>
      <trkpt lat="45.70548" lon="6.35281">
        <ele>1113.676722</ele>
        <time>2021-06-23T16:33:21.135Z</time>
      </trkpt>
      <trkpt lat="45.70555" lon="6.35292">
        <ele>1111.881612</ele>
        <time>2021-06-23T16:33:37.144Z</time>
      </trkpt>
      <trkpt lat="45.70551" lon="6.35305">
        <ele>1110.188721</ele>
        <time>2021-06-23T16:33:52.141Z</time>
      </trkpt>
      <trkpt lat="45.70542" lon="6.35314">
        <ele>1108.422755</ele>
        <time>2021-06-23T16:33:57.139Z</time>
      </trkpt>
      <trkpt lat="45.70536" lon="6.35324">
        <ele>1106.849725</ele>
        <time>2021-06-23T16:34:06.129Z</time>
      </trkpt>
      <trkpt lat="45.70525" lon="6.35327">
        <ele>1104.988005</ele>
        <time>2021-06-23T16:34:14.135Z</time>
      </trkpt>
      <trkpt lat="45.70517" lon="6.35339">
        <ele>1103.044953</ele>
        <time>2021-06-23T16:34:18.134Z</time>
      </trkpt>
      <trkpt lat="45.7051" lon="6.3535">
        <ele>1101.302427</ele>
        <time>2021-06-23T16:34:26.136Z</time>
      </trkpt>
      <trkpt lat="45.70502" lon="6.35357">
        <ele>1099.713587</ele>
        <time>2021-06-23T16:34:35.138Z</time>
      </trkpt>
      <trkpt lat="45.70498" lon="6.35369">
        <ele>1098.226492</ele>
        <time>2021-06-23T16:34:45.136Z</time>
      </trkpt>
      <trkpt lat="45.70491" lon="6.35377">
        <ele>1096.676925</ele>
        <time>2021-06-23T16:34:53.130Z</time>
      </trkpt>
      <trkpt lat="45.70483" lon="6.35385">
        <ele>1095.011766</ele>
        <time>2021-06-23T16:34:59.130Z</time>
      </trkpt>
      <trkpt lat="45.70471" lon="6.35395">
        <ele>1092.81937</ele>
        <time>2021-06-23T16:35:02.135Z</time>
      </trkpt>
      <trkpt lat="45.70457" lon="6.35403">
        <ele>1090.200682</ele>
        <time>2021-06-23T16:35:04.128Z</time>
      </trkpt>
      <trkpt lat="45.70446" lon="6.35404">
        <ele>1088.299218</ele>
        <time>2021-06-23T16:35:06.118Z</time>
      </trkpt>
      <trkpt lat="45.70434" lon="6.35411">
        <ele>1085.01303</ele>
        <time>2021-06-23T16:35:10.127Z</time>
      </trkpt>
      <trkpt lat="45.70435" lon="6.35426">
        <ele>1082.474697</ele>
        <time>2021-06-23T16:35:26.118Z</time>
      </trkpt>
      <trkpt lat="45.70443" lon="6.35434">
        <ele>1080.05121</ele>
        <time>2021-06-23T16:35:31.131Z</time>
      </trkpt>
      <trkpt lat="45.70447" lon="6.35447">
        <ele>1077.754438</ele>
        <time>2021-06-23T16:35:37.127Z</time>
      </trkpt>
      <trkpt lat="45.7044" lon="6.3546">
        <ele>1075.00139</ele>
        <time>2021-06-23T16:35:43.129Z</time>
      </trkpt>
      <trkpt lat="45.70432" lon="6.35466">
        <ele>1072.625177</ele>
        <time>2021-06-23T16:35:48.125Z</time>
      </trkpt>
      <trkpt lat="45.70424" lon="6.35474">
        <ele>1070.231114</ele>
        <time>2021-06-23T16:35:53.125Z</time>
      </trkpt>
      <trkpt lat="45.70415" lon="6.35477">
        <ele>1067.947934</ele>
        <time>2021-06-23T16:35:58.133Z</time>
      </trkpt>
      <trkpt lat="45.70404" lon="6.35481">
        <ele>1065.315074</ele>
        <time>2021-06-23T16:36:02.130Z</time>
      </trkpt>
      <trkpt lat="45.70394" lon="6.35485">
        <ele>1062.677925</ele>
        <time>2021-06-23T16:36:05.124Z</time>
      </trkpt>
      <trkpt lat="45.70385" lon="6.3549">
        <ele>1060.436593</ele>
        <time>2021-06-23T16:36:08.125Z</time>
      </trkpt>
      <trkpt lat="45.70379" lon="6.35501">
        <ele>1058.059013</ele>
        <time>2021-06-23T16:36:12.125Z</time>
      </trkpt>
      <trkpt lat="45.70367" lon="6.35508">
        <ele>1054.689163</ele>
        <time>2021-06-23T16:36:16.135Z</time>
      </trkpt>
      <trkpt lat="45.70357" lon="6.35505">
        <ele>1052.299071</ele>
        <time>2021-06-23T16:36:20.133Z</time>
      </trkpt>
      <trkpt lat="45.70349" lon="6.35499">
        <ele>1049.981607</ele>
        <time>2021-06-23T16:36:24.135Z</time>
      </trkpt>
      <trkpt lat="45.70342" lon="6.35488">
        <ele>1047.500048</ele>
        <time>2021-06-23T16:36:29.126Z</time>
      </trkpt>
      <trkpt lat="45.70333" lon="6.35483">
        <ele>1045.023126</ele>
        <time>2021-06-23T16:36:35.136Z</time>
      </trkpt>
      <trkpt lat="45.70324" lon="6.35477">
        <ele>1041.639389</ele>
        <time>2021-06-23T16:36:40.131Z</time>
      </trkpt>
      <trkpt lat="45.70315" lon="6.35479">
        <ele>1038.20692</ele>
        <time>2021-06-23T16:36:50.123Z</time>
      </trkpt>
      <trkpt lat="45.70305" lon="6.35485">
        <ele>1034.390565</ele>
        <time>2021-06-23T16:36:55.128Z</time>
      </trkpt>
      <trkpt lat="45.70297" lon="6.35493">
        <ele>1031.007357</ele>
        <time>2021-06-23T16:37:00.139Z</time>
      </trkpt>
      <trkpt lat="45.70289" lon="6.35501">
        <ele>1027.316773</ele>
        <time>2021-06-23T16:37:05.124Z</time>
      </trkpt>
      <trkpt lat="45.7028" lon="6.35506">
        <ele>1023.90362</ele>
        <time>2021-06-23T16:37:10.123Z</time>
      </trkpt>
      <trkpt lat="45.7027" lon="6.3551">
        <ele>1020.367195</ele>
        <time>2021-06-23T16:37:16.127Z</time>
      </trkpt>
      <trkpt lat="45.70261" lon="6.35516">
        <ele>1016.845018</ele>
        <time>2021-06-23T16:37:22.125Z</time>
      </trkpt>
      <trkpt lat="45.70252" lon="6.35509">
        <ele>1013.04826</ele>
        <time>2021-06-23T16:37:31.127Z</time>
      </trkpt>
      <trkpt lat="45.70245" lon="6.35499">
        <ele>1009.632223</ele>
        <time>2021-06-23T16:37:39.119Z</time>
      </trkpt>
      <trkpt lat="45.70236" lon="6.35502">
        <ele>1006.375585</ele>
        <time>2021-06-23T16:37:50.133Z</time>
      </trkpt>
      <trkpt lat="45.70228" lon="6.35512">
        <ele>1002.600926</ele>
        <time>2021-06-23T16:37:55.127Z</time>
      </trkpt>
      <trkpt lat="45.70221" lon="6.35518">
        <ele>999.374537</ele>
        <time>2021-06-23T16:37:58.128Z</time>
      </trkpt>
      <trkpt lat="45.70215" lon="6.35529">
        <ele>995.901669</ele>
        <time>2021-06-23T16:38:03.129Z</time>
      </trkpt>
      <trkpt lat="45.7021" lon="6.35542">
        <ele>992.290577</ele>
        <time>2021-06-23T16:38:07.118Z</time>
      </trkpt>
      <trkpt lat="45.70207" lon="6.35555">
        <ele>988.756024</ele>
        <time>2021-06-23T16:38:12.121Z</time>
      </trkpt>
      <trkpt lat="45.702" lon="6.35566">
        <ele>985.127733</ele>
        <time>2021-06-23T16:38:16.110Z</time>
      </trkpt>
      <trkpt lat="45.70197" lon="6.35581">
        <ele>981.341065</ele>
        <time>2021-06-23T16:38:21.125Z</time>
      </trkpt>
      <trkpt lat="45.70192" lon="6.35595">
        <ele>978.278772</ele>
        <time>2021-06-23T16:38:27.127Z</time>
      </trkpt>
      <trkpt lat="45.70191" lon="6.35608">
        <ele>975.727094</ele>
        <time>2021-06-23T16:38:30.121Z</time>
      </trkpt>
      <trkpt lat="45.7019" lon="6.35622">
        <ele>973.345485</ele>
        <time>2021-06-23T16:38:50.132Z</time>
      </trkpt>
      <trkpt lat="45.7018" lon="6.35619">
        <ele>970.64423</ele>
        <time>2021-06-23T16:38:56.124Z</time>
      </trkpt>
      <trkpt lat="45.7017" lon="6.35606">
        <ele>967.224423</ele>
        <time>2021-06-23T16:39:02.133Z</time>
      </trkpt>
      <trkpt lat="45.7016" lon="6.35602">
        <ele>964.508102</ele>
        <time>2021-06-23T16:39:12.127Z</time>
      </trkpt>
      <trkpt lat="45.70152" lon="6.35613">
        <ele>961.739479</ele>
        <time>2021-06-23T16:39:24.126Z</time>
      </trkpt>
      <trkpt lat="45.70145" lon="6.35626">
        <ele>958.733806</ele>
        <time>2021-06-23T16:39:26.118Z</time>
      </trkpt>
      <trkpt lat="45.70136" lon="6.35638">
        <ele>955.544752</ele>
        <time>2021-06-23T16:39:28.132Z</time>
      </trkpt>
      <trkpt lat="45.70129" lon="6.35651">
        <ele>952.640028</ele>
        <time>2021-06-23T16:39:30.124Z</time>
      </trkpt>
      <trkpt lat="45.70127" lon="6.35664">
        <ele>950.193864</ele>
        <time>2021-06-23T16:39:53.130Z</time>
      </trkpt>
      <trkpt lat="45.70129" lon="6.35651">
        <ele>947.761212</ele>
        <time>2021-06-23T16:39:59.124Z</time>
      </trkpt>
      <trkpt lat="45.70131" lon="6.3563">
        <ele>944.030937</ele>
        <time>2021-06-23T16:40:06.118Z</time>
      </trkpt>
      <trkpt lat="45.70123" lon="6.35623">
        <ele>941.663782</ele>
        <time>2021-06-23T16:40:10.135Z</time>
      </trkpt>
      <trkpt lat="45.70118" lon="6.35612">
        <ele>939.28279</ele>
        <time>2021-06-23T16:40:17.133Z</time>
      </trkpt>
      <trkpt lat="45.70117" lon="6.35598">
        <ele>936.759933</ele>
        <time>2021-06-23T16:40:34.135Z</time>
      </trkpt>
      <trkpt lat="45.70113" lon="6.35587">
        <ele>934.34922</ele>
        <time>2021-06-23T16:40:49.130Z</time>
      </trkpt>
      <trkpt lat="45.7012" lon="6.35596">
        <ele>933.605177</ele>
        <time>2021-06-23T16:41:47.118Z</time>
      </trkpt>
      <trkpt lat="45.7013" lon="6.35603">
        <ele>933.55587</ele>
        <time>2021-06-23T16:41:50.110Z</time>
      </trkpt>
      <trkpt lat="45.70134" lon="6.35616">
        <ele>933.514045</ele>
        <time>2021-06-23T16:41:53.111Z</time>
      </trkpt>
      <trkpt lat="45.7013" lon="6.35629">
        <ele>933.471261</ele>
        <time>2021-06-23T16:41:57.102Z</time>
      </trkpt>
      <trkpt lat="45.70133" lon="6.35641">
        <ele>933.430826</ele>
        <time>2021-06-23T16:42:04.150Z</time>
      </trkpt>
      <trkpt lat="45.7014" lon="6.35651">
        <ele>933.387493</ele>
        <time>2021-06-23T16:42:09.114Z</time>
      </trkpt>
      <trkpt lat="45.70139" lon="6.35665">
        <ele>933.344792</ele>
        <time>2021-06-23T16:42:35.128Z</time>
      </trkpt>
      <trkpt lat="45.70131" lon="6.35669">
        <ele>933.304766</ele>
        <time>2021-06-23T16:43:53.125Z</time>
      </trkpt>
      <trkpt lat="45.70139" lon="6.35678">
        <ele>933.260418</ele>
        <time>2021-06-23T16:44:25.141Z</time>
      </trkpt>
      <trkpt lat="45.70148" lon="6.35677">
        <ele>933.219628</ele>
        <time>2021-06-23T16:44:29.124Z</time>
      </trkpt>
      <trkpt lat="45.70157" lon="6.35682">
        <ele>933.175771</ele>
        <time>2021-06-23T16:44:36.127Z</time>
      </trkpt>
      <trkpt lat="45.70164" lon="6.35691">
        <ele>933.13452</ele>
        <time>2021-06-23T16:44:42.128Z</time>
      </trkpt>
      <trkpt lat="45.70171" lon="6.35702">
        <ele>933.089886</ele>
        <time>2021-06-23T16:44:45.130Z</time>
      </trkpt>
      <trkpt lat="45.70179" lon="6.35721">
        <ele>933.021254</ele>
        <time>2021-06-23T16:44:47.126Z</time>
      </trkpt>
      <trkpt lat="45.70185" lon="6.3574">
        <ele>932.955877</ele>
        <time>2021-06-23T16:44:49.130Z</time>
      </trkpt>
      <trkpt lat="45.70191" lon="6.3576">
        <ele>932.891476</ele>
        <time>2021-06-23T16:44:51.128Z</time>
      </trkpt>
      <trkpt lat="45.702" lon="6.3578">
        <ele>932.661348</ele>
        <time>2021-06-23T16:44:53.133Z</time>
      </trkpt>
      <trkpt lat="45.70206" lon="6.35801">
        <ele>932.224344</ele>
        <time>2021-06-23T16:44:55.125Z</time>
      </trkpt>
      <trkpt lat="45.70216" lon="6.35816">
        <ele>931.831609</ele>
        <time>2021-06-23T16:44:57.130Z</time>
      </trkpt>
      <trkpt lat="45.70226" lon="6.35826">
        <ele>931.50493</ele>
        <time>2021-06-23T16:44:59.125Z</time>
      </trkpt>
      <trkpt lat="45.70236" lon="6.35828">
        <ele>931.212979</ele>
        <time>2021-06-23T16:45:01.121Z</time>
      </trkpt>
      <trkpt lat="45.70246" lon="6.35828">
        <ele>930.940604</ele>
        <time>2021-06-23T16:45:03.123Z</time>
      </trkpt>
      <trkpt lat="45.70256" lon="6.3583">
        <ele>930.671748</ele>
        <time>2021-06-23T16:45:05.110Z</time>
      </trkpt>
      <trkpt lat="45.70266" lon="6.35831">
        <ele>930.384536</ele>
        <time>2021-06-23T16:45:07.120Z</time>
      </trkpt>
      <trkpt lat="45.70276" lon="6.35833">
        <ele>930.103752</ele>
        <time>2021-06-23T16:45:09.115Z</time>
      </trkpt>
      <trkpt lat="45.70275" lon="6.35848">
        <ele>929.811079</ele>
        <time>2021-06-23T16:45:11.118Z</time>
      </trkpt>
      <trkpt lat="45.7027" lon="6.35861">
        <ele>929.538311</ele>
        <time>2021-06-23T16:45:13.117Z</time>
      </trkpt>
      <trkpt lat="45.7026" lon="6.35867">
        <ele>929.234933</ele>
        <time>2021-06-23T16:45:15.108Z</time>
      </trkpt>
      <trkpt lat="45.70252" lon="6.35879">
        <ele>928.901631</ele>
        <time>2021-06-23T16:45:21.115Z</time>
      </trkpt>
      <trkpt lat="45.70243" lon="6.35886">
        <ele>928.626522</ele>
        <time>2021-06-23T16:45:27.120Z</time>
      </trkpt>
      <trkpt lat="45.70232" lon="6.3589">
        <ele>928.324443</ele>
        <time>2021-06-23T16:45:31.124Z</time>
      </trkpt>
      <trkpt lat="45.70222" lon="6.35892">
        <ele>928.032765</ele>
        <time>2021-06-23T16:45:34.108Z</time>
      </trkpt>
      <trkpt lat="45.70212" lon="6.35893">
        <ele>928.116725</ele>
        <time>2021-06-23T16:45:36.097Z</time>
      </trkpt>
      <trkpt lat="45.70201" lon="6.35895">
        <ele>928.683799</ele>
        <time>2021-06-23T16:45:38.125Z</time>
      </trkpt>
      <trkpt lat="45.7019" lon="6.35896">
        <ele>929.236478</ele>
        <time>2021-06-23T16:45:41.104Z</time>
      </trkpt>
      <trkpt lat="45.70177" lon="6.35895">
        <ele>929.914395</ele>
        <time>2021-06-23T16:45:44.097Z</time>
      </trkpt>
      <trkpt lat="45.70163" lon="6.35893">
        <ele>930.602194</ele>
        <time>2021-06-23T16:45:46.108Z</time>
      </trkpt>
      <trkpt lat="45.70149" lon="6.35892">
        <ele>931.309552</ele>
        <time>2021-06-23T16:45:48.108Z</time>
      </trkpt>
      <trkpt lat="45.70131" lon="6.35884">
        <ele>932.262518</ele>
        <time>2021-06-23T16:45:50.105Z</time>
      </trkpt>
      <trkpt lat="45.70121" lon="6.35878">
        <ele>932.809693</ele>
        <time>2021-06-23T16:45:51.100Z</time>
      </trkpt>
      <trkpt lat="45.70104" lon="6.35869">
        <ele>933.697579</ele>
        <time>2021-06-23T16:45:53.103Z</time>
      </trkpt>
      <trkpt lat="45.70095" lon="6.35865">
        <ele>934.186395</ele>
        <time>2021-06-23T16:45:54.109Z</time>
      </trkpt>
      <trkpt lat="45.70085" lon="6.3586">
        <ele>934.699529</ele>
        <time>2021-06-23T16:45:55.111Z</time>
      </trkpt>
      <trkpt lat="45.70076" lon="6.35855">
        <ele>935.186354</ele>
        <time>2021-06-23T16:45:56.105Z</time>
      </trkpt>
      <trkpt lat="45.7006" lon="6.35845">
        <ele>936.099526</ele>
        <time>2021-06-23T16:45:58.105Z</time>
      </trkpt>
      <trkpt lat="45.70048" lon="6.35829">
        <ele>936.893034</ele>
        <time>2021-06-23T16:46:00.107Z</time>
      </trkpt>
      <trkpt lat="45.70038" lon="6.35826">
        <ele>936.976664</ele>
        <time>2021-06-23T16:46:02.106Z</time>
      </trkpt>
      <trkpt lat="45.70034" lon="6.35838">
        <ele>937.033072</ele>
        <time>2021-06-23T16:46:06.110Z</time>
      </trkpt>
      <trkpt lat="45.7004" lon="6.35848">
        <ele>937.089048</ele>
        <time>2021-06-23T16:46:11.114Z</time>
      </trkpt>
      <trkpt lat="45.70053" lon="6.35858">
        <ele>937.177071</ele>
        <time>2021-06-23T16:46:14.121Z</time>
      </trkpt>
      <trkpt lat="45.7007" lon="6.35864">
        <ele>937.280039</ele>
        <time>2021-06-23T16:46:16.123Z</time>
      </trkpt>
      <trkpt lat="45.70081" lon="6.35873">
        <ele>937.358196</ele>
        <time>2021-06-23T16:46:18.115Z</time>
      </trkpt>
      <trkpt lat="45.70091" lon="6.35887">
        <ele>937.441666</ele>
        <time>2021-06-23T16:46:20.105Z</time>
      </trkpt>
      <trkpt lat="45.701" lon="6.35905">
        <ele>937.532584</ele>
        <time>2021-06-23T16:46:22.105Z</time>
      </trkpt>
      <trkpt lat="45.7011" lon="6.35922">
        <ele>937.623766</ele>
        <time>2021-06-23T16:46:24.100Z</time>
      </trkpt>
      <trkpt lat="45.70116" lon="6.35932">
        <ele>937.68108</ele>
        <time>2021-06-23T16:46:25.105Z</time>
      </trkpt>
      <trkpt lat="45.70125" lon="6.35955">
        <ele>937.788573</ele>
        <time>2021-06-23T16:46:27.115Z</time>
      </trkpt>
      <trkpt lat="45.70129" lon="6.35968">
        <ele>937.849962</ele>
        <time>2021-06-23T16:46:28.104Z</time>
      </trkpt>
      <trkpt lat="45.70133" lon="6.3598">
        <ele>937.907904</ele>
        <time>2021-06-23T16:46:29.106Z</time>
      </trkpt>
      <trkpt lat="45.70143" lon="6.36">
        <ele>937.043916</ele>
        <time>2021-06-23T16:46:31.103Z</time>
      </trkpt>
      <trkpt lat="45.70155" lon="6.36014">
        <ele>930.628198</ele>
        <time>2021-06-23T16:46:33.100Z</time>
      </trkpt>
      <trkpt lat="45.70165" lon="6.36027">
        <ele>925.151005</ele>
        <time>2021-06-23T16:46:35.103Z</time>
      </trkpt>
      <trkpt lat="45.70164" lon="6.36045">
        <ele>920.083459</ele>
        <time>2021-06-23T16:46:37.075Z</time>
      </trkpt>
      <trkpt lat="45.70155" lon="6.36046">
        <ele>916.339817</ele>
        <time>2021-06-23T16:46:40.113Z</time>
      </trkpt>
      <trkpt lat="45.70147" lon="6.36035">
        <ele>911.796433</ele>
        <time>2021-06-23T16:46:42.112Z</time>
      </trkpt>
      <trkpt lat="45.70137" lon="6.36024">
        <ele>906.663439</ele>
        <time>2021-06-23T16:46:44.113Z</time>
      </trkpt>
      <trkpt lat="45.70124" lon="6.36017">
        <ele>901.178501</ele>
        <time>2021-06-23T16:46:46.114Z</time>
      </trkpt>
      <trkpt lat="45.7011" lon="6.36006">
        <ele>894.895936</ele>
        <time>2021-06-23T16:46:48.114Z</time>
      </trkpt>
      <trkpt lat="45.70095" lon="6.35994">
        <ele>887.891855</ele>
        <time>2021-06-23T16:46:50.114Z</time>
      </trkpt>
      <trkpt lat="45.70087" lon="6.35988">
        <ele>884.227374</ele>
        <time>2021-06-23T16:46:51.121Z</time>
      </trkpt>
      <trkpt lat="45.70078" lon="6.35982">
        <ele>880.12833</ele>
        <time>2021-06-23T16:46:52.118Z</time>
      </trkpt>
      <trkpt lat="45.70069" lon="6.35976">
        <ele>876.108323</ele>
        <time>2021-06-23T16:46:53.110Z</time>
      </trkpt>
      <trkpt lat="45.7006" lon="6.35973">
        <ele>872.446928</ele>
        <time>2021-06-23T16:46:54.111Z</time>
      </trkpt>
      <trkpt lat="45.70052" lon="6.35965">
        <ele>868.543061</ele>
        <time>2021-06-23T16:46:55.113Z</time>
      </trkpt>
      <trkpt lat="45.70044" lon="6.35958">
        <ele>864.905241</ele>
        <time>2021-06-23T16:46:56.116Z</time>
      </trkpt>
      <trkpt lat="45.70035" lon="6.35949">
        <ele>862.915379</ele>
        <time>2021-06-23T16:46:57.124Z</time>
      </trkpt>
      <trkpt lat="45.70026" lon="6.3594">
        <ele>860.790701</ele>
        <time>2021-06-23T16:46:58.114Z</time>
      </trkpt>
      <trkpt lat="45.70018" lon="6.35931">
        <ele>858.6334</ele>
        <time>2021-06-23T16:46:59.114Z</time>
      </trkpt>
      <trkpt lat="45.70009" lon="6.35921">
        <ele>856.515334</ele>
        <time>2021-06-23T16:47:00.115Z</time>
      </trkpt>
      <trkpt lat="45.7" lon="6.35911">
        <ele>854.294948</ele>
        <time>2021-06-23T16:47:01.110Z</time>
      </trkpt>
      <trkpt lat="45.69991" lon="6.35901">
        <ele>852.114723</ele>
        <time>2021-06-23T16:47:02.110Z</time>
      </trkpt>
      <trkpt lat="45.69984" lon="6.3589">
        <ele>849.988008</ele>
        <time>2021-06-23T16:47:03.107Z</time>
      </trkpt>
      <trkpt lat="45.69977" lon="6.35878">
        <ele>847.948434</ele>
        <time>2021-06-23T16:47:04.107Z</time>
      </trkpt>
      <trkpt lat="45.69971" lon="6.35867">
        <ele>845.981751</ele>
        <time>2021-06-23T16:47:05.106Z</time>
      </trkpt>
      <trkpt lat="45.69965" lon="6.35855">
        <ele>844.02774</ele>
        <time>2021-06-23T16:47:06.116Z</time>
      </trkpt>
      <trkpt lat="45.6996" lon="6.35844">
        <ele>842.184763</ele>
        <time>2021-06-23T16:47:07.101Z</time>
      </trkpt>
      <trkpt lat="45.6995" lon="6.35834">
        <ele>839.758077</ele>
        <time>2021-06-23T16:47:09.107Z</time>
      </trkpt>
      <trkpt lat="45.6994" lon="6.3584">
        <ele>837.657997</ele>
        <time>2021-06-23T16:47:11.107Z</time>
      </trkpt>
      <trkpt lat="45.6994" lon="6.35856">
        <ele>835.46393</ele>
        <time>2021-06-23T16:47:13.110Z</time>
      </trkpt>
      <trkpt lat="45.69946" lon="6.35873">
        <ele>832.84476</ele>
        <time>2021-06-23T16:47:15.108Z</time>
      </trkpt>
      <trkpt lat="45.69954" lon="6.35889">
        <ele>830.199863</ele>
        <time>2021-06-23T16:47:17.104Z</time>
      </trkpt>
      <trkpt lat="45.69962" lon="6.35903">
        <ele>830.215354</ele>
        <time>2021-06-23T16:47:19.107Z</time>
      </trkpt>
      <trkpt lat="45.6997" lon="6.3592">
        <ele>830.232823</ele>
        <time>2021-06-23T16:47:21.106Z</time>
      </trkpt>
      <trkpt lat="45.69973" lon="6.35942">
        <ele>830.252354</ele>
        <time>2021-06-23T16:47:23.106Z</time>
      </trkpt>
      <trkpt lat="45.69977" lon="6.35963">
        <ele>830.271435</ele>
        <time>2021-06-23T16:47:25.104Z</time>
      </trkpt>
      <trkpt lat="45.69983" lon="6.35985">
        <ele>830.29109</ele>
        <time>2021-06-23T16:47:27.107Z</time>
      </trkpt>
      <trkpt lat="45.69989" lon="6.36004">
        <ele>830.309568</ele>
        <time>2021-06-23T16:47:29.103Z</time>
      </trkpt>
      <trkpt lat="45.69997" lon="6.36024">
        <ele>830.329062</ele>
        <time>2021-06-23T16:47:31.105Z</time>
      </trkpt>
      <trkpt lat="45.70003" lon="6.36045">
        <ele>830.348734</ele>
        <time>2021-06-23T16:47:33.104Z</time>
      </trkpt>
      <trkpt lat="45.70007" lon="6.36068">
        <ele>830.369837</ele>
        <time>2021-06-23T16:47:35.102Z</time>
      </trkpt>
      <trkpt lat="45.70012" lon="6.36091">
        <ele>830.390838</ele>
        <time>2021-06-23T16:47:37.103Z</time>
      </trkpt>
      <trkpt lat="45.70018" lon="6.36116">
        <ele>830.413441</ele>
        <time>2021-06-23T16:47:39.102Z</time>
      </trkpt>
      <trkpt lat="45.70018" lon="6.36131">
        <ele>830.511792</ele>
        <time>2021-06-23T16:47:40.103Z</time>
      </trkpt>
      <trkpt lat="45.7002" lon="6.36144">
        <ele>830.787435</ele>
        <time>2021-06-23T16:47:41.104Z</time>
      </trkpt>
      <trkpt lat="45.70023" lon="6.36157">
        <ele>831.07218</ele>
        <time>2021-06-23T16:47:42.099Z</time>
      </trkpt>
      <trkpt lat="45.70026" lon="6.3617">
        <ele>831.350098</ele>
        <time>2021-06-23T16:47:43.097Z</time>
      </trkpt>
      <trkpt lat="45.70031" lon="6.36181">
        <ele>831.619167</ele>
        <time>2021-06-23T16:47:44.101Z</time>
      </trkpt>
      <trkpt lat="45.70037" lon="6.36191">
        <ele>831.895006</ele>
        <time>2021-06-23T16:47:45.098Z</time>
      </trkpt>
      <trkpt lat="45.70049" lon="6.36207">
        <ele>832.387264</ele>
        <time>2021-06-23T16:47:47.102Z</time>
      </trkpt>
      <trkpt lat="45.70062" lon="6.36215">
        <ele>832.79141</ele>
        <time>2021-06-23T16:47:49.104Z</time>
      </trkpt>
      <trkpt lat="45.70073" lon="6.36224">
        <ele>833.172106</ele>
        <time>2021-06-23T16:47:51.106Z</time>
      </trkpt>
      <trkpt lat="45.70071" lon="6.3624">
        <ele>833.505595</ele>
        <time>2021-06-23T16:47:53.106Z</time>
      </trkpt>
      <trkpt lat="45.70063" lon="6.3625">
        <ele>833.81952</ele>
        <time>2021-06-23T16:47:55.107Z</time>
      </trkpt>
      <trkpt lat="45.70049" lon="6.36252">
        <ele>834.230459</ele>
        <time>2021-06-23T16:47:57.109Z</time>
      </trkpt>
      <trkpt lat="45.70035" lon="6.36256">
        <ele>834.649557</ele>
        <time>2021-06-23T16:47:59.110Z</time>
      </trkpt>
      <trkpt lat="45.70022" lon="6.36258">
        <ele>835.029601</ele>
        <time>2021-06-23T16:48:01.111Z</time>
      </trkpt>
      <trkpt lat="45.70007" lon="6.36257">
        <ele>835.491584</ele>
        <time>2021-06-23T16:48:03.108Z</time>
      </trkpt>
      <trkpt lat="45.6999" lon="6.36257">
        <ele>834.385767</ele>
        <time>2021-06-23T16:48:05.113Z</time>
      </trkpt>
      <trkpt lat="45.69974" lon="6.36253">
        <ele>831.563568</ele>
        <time>2021-06-23T16:48:07.115Z</time>
      </trkpt>
      <trkpt lat="45.69964" lon="6.36252">
        <ele>829.969066</ele>
        <time>2021-06-23T16:48:08.116Z</time>
      </trkpt>
      <trkpt lat="45.69954" lon="6.36249">
        <ele>828.283056</ele>
        <time>2021-06-23T16:48:09.116Z</time>
      </trkpt>
      <trkpt lat="45.69944" lon="6.36246">
        <ele>826.517292</ele>
        <time>2021-06-23T16:48:10.114Z</time>
      </trkpt>
      <trkpt lat="45.69934" lon="6.36241">
        <ele>824.760111</ele>
        <time>2021-06-23T16:48:11.110Z</time>
      </trkpt>
      <trkpt lat="45.69924" lon="6.36236">
        <ele>822.979771</ele>
        <time>2021-06-23T16:48:12.125Z</time>
      </trkpt>
      <trkpt lat="45.69914" lon="6.36232">
        <ele>821.271712</ele>
        <time>2021-06-23T16:48:13.110Z</time>
      </trkpt>
      <trkpt lat="45.699" lon="6.36223">
        <ele>818.709082</ele>
        <time>2021-06-23T16:48:15.114Z</time>
      </trkpt>
      <trkpt lat="45.6989" lon="6.36211">
        <ele>816.553884</ele>
        <time>2021-06-23T16:48:17.111Z</time>
      </trkpt>
      <trkpt lat="45.69878" lon="6.362">
        <ele>814.054096</ele>
        <time>2021-06-23T16:48:19.118Z</time>
      </trkpt>
      <trkpt lat="45.69865" lon="6.36189">
        <ele>811.576947</ele>
        <time>2021-06-23T16:48:21.116Z</time>
      </trkpt>
      <trkpt lat="45.69856" lon="6.36176">
        <ele>809.414754</ele>
        <time>2021-06-23T16:48:23.124Z</time>
      </trkpt>
      <trkpt lat="45.69846" lon="6.3617">
        <ele>807.546947</ele>
        <time>2021-06-23T16:48:26.114Z</time>
      </trkpt>
      <trkpt lat="45.69837" lon="6.36163">
        <ele>805.912276</ele>
        <time>2021-06-23T16:48:28.113Z</time>
      </trkpt>
      <trkpt lat="45.69828" lon="6.36158">
        <ele>804.955152</ele>
        <time>2021-06-23T16:48:30.117Z</time>
      </trkpt>
      <trkpt lat="45.69818" lon="6.36156">
        <ele>804.140093</ele>
        <time>2021-06-23T16:48:32.113Z</time>
      </trkpt>
      <trkpt lat="45.69808" lon="6.36151">
        <ele>803.156936</ele>
        <time>2021-06-23T16:48:34.114Z</time>
      </trkpt>
      <trkpt lat="45.69797" lon="6.3614">
        <ele>802.071019</ele>
        <time>2021-06-23T16:48:36.127Z</time>
      </trkpt>
      <trkpt lat="45.69787" lon="6.36122">
        <ele>800.681693</ele>
        <time>2021-06-23T16:48:38.117Z</time>
      </trkpt>
      <trkpt lat="45.69776" lon="6.36102">
        <ele>799.176492</ele>
        <time>2021-06-23T16:48:40.115Z</time>
      </trkpt>
      <trkpt lat="45.69767" lon="6.36081">
        <ele>797.655928</ele>
        <time>2021-06-23T16:48:42.121Z</time>
      </trkpt>
      <trkpt lat="45.69762" lon="6.36068">
        <ele>796.823131</ele>
        <time>2021-06-23T16:48:43.115Z</time>
      </trkpt>
      <trkpt lat="45.69758" lon="6.36056">
        <ele>795.975826</ele>
        <time>2021-06-23T16:48:44.124Z</time>
      </trkpt>
      <trkpt lat="45.69752" lon="6.36042">
        <ele>795.038691</ele>
        <time>2021-06-23T16:48:45.123Z</time>
      </trkpt>
      <trkpt lat="45.69746" lon="6.36028">
        <ele>794.037213</ele>
        <time>2021-06-23T16:48:46.123Z</time>
      </trkpt>
      <trkpt lat="45.6974" lon="6.36014">
        <ele>793.056853</ele>
        <time>2021-06-23T16:48:47.121Z</time>
      </trkpt>
      <trkpt lat="45.69733" lon="6.36">
        <ele>792.025376</ele>
        <time>2021-06-23T16:48:48.120Z</time>
      </trkpt>
      <trkpt lat="45.69729" lon="6.35985">
        <ele>791.084401</ele>
        <time>2021-06-23T16:48:49.127Z</time>
      </trkpt>
      <trkpt lat="45.69725" lon="6.3597">
        <ele>790.073083</ele>
        <time>2021-06-23T16:48:50.128Z</time>
      </trkpt>
      <trkpt lat="45.69716" lon="6.35955">
        <ele>788.312376</ele>
        <time>2021-06-23T16:48:52.123Z</time>
      </trkpt>
      <trkpt lat="45.69708" lon="6.35949">
        <ele>787.15141</ele>
        <time>2021-06-23T16:49:19.128Z</time>
      </trkpt>
      <trkpt lat="45.69702" lon="6.35938">
        <ele>785.951966</ele>
        <time>2021-06-23T16:50:03.121Z</time>
      </trkpt>
      <trkpt lat="45.69704" lon="6.35951">
        <ele>784.813766</ele>
        <time>2021-06-23T16:50:23.118Z</time>
      </trkpt>
      <trkpt lat="45.69709" lon="6.35962">
        <ele>783.667956</ele>
        <time>2021-06-23T16:50:57.124Z</time>
      </trkpt>
      <trkpt lat="45.6971" lon="6.35948">
        <ele>782.431338</ele>
        <time>2021-06-23T16:51:38.125Z</time>
      </trkpt>
      <trkpt lat="45.69713" lon="6.35961">
        <ele>781.295829</ele>
        <time>2021-06-23T16:53:17.120Z</time>
      </trkpt>
      <trkpt lat="45.69704" lon="6.35956">
        <ele>780.161167</ele>
        <time>2021-06-23T16:54:33.119Z</time>
      </trkpt>
      <trkpt lat="45.69712" lon="6.35948">
        <ele>779.027996</ele>
        <time>2021-06-23T16:55:06.144Z</time>
      </trkpt>
      <trkpt lat="45.69703" lon="6.35955">
        <ele>777.827943</ele>
        <time>2021-06-23T16:57:25.115Z</time>
      </trkpt>
      <trkpt lat="45.69697" lon="6.35965">
        <ele>776.60959</ele>
        <time>2021-06-23T16:57:28.136Z</time>
      </trkpt>
      <trkpt lat="45.69702" lon="6.3598">
        <ele>775.123094</ele>
        <time>2021-06-23T16:57:31.118Z</time>
      </trkpt>
      <trkpt lat="45.69711" lon="6.35987">
        <ele>773.829501</ele>
        <time>2021-06-23T16:57:33.133Z</time>
      </trkpt>
      <trkpt lat="45.69718" lon="6.36003">
        <ele>772.11012</ele>
        <time>2021-06-23T16:57:35.135Z</time>
      </trkpt>
      <trkpt lat="45.69723" lon="6.3602">
        <ele>770.493401</ele>
        <time>2021-06-23T16:57:37.127Z</time>
      </trkpt>
      <trkpt lat="45.69723" lon="6.36041">
        <ele>768.632031</ele>
        <time>2021-06-23T16:57:39.119Z</time>
      </trkpt>
      <trkpt lat="45.69719" lon="6.36064">
        <ele>766.671809</ele>
        <time>2021-06-23T16:57:41.127Z</time>
      </trkpt>
      <trkpt lat="45.69717" lon="6.36084">
        <ele>764.947981</ele>
        <time>2021-06-23T16:57:43.133Z</time>
      </trkpt>
      <trkpt lat="45.6972" lon="6.36108">
        <ele>762.902818</ele>
        <time>2021-06-23T16:57:45.119Z</time>
      </trkpt>
      <trkpt lat="45.69724" lon="6.36135">
        <ele>760.656085</ele>
        <time>2021-06-23T16:57:47.118Z</time>
      </trkpt>
      <trkpt lat="45.69728" lon="6.36148">
        <ele>759.490348</ele>
        <time>2021-06-23T16:57:48.124Z</time>
      </trkpt>
      <trkpt lat="45.69732" lon="6.36161">
        <ele>758.307594</ele>
        <time>2021-06-23T16:57:49.116Z</time>
      </trkpt>
      <trkpt lat="45.69735" lon="6.36174">
        <ele>757.120733</ele>
        <time>2021-06-23T16:57:50.119Z</time>
      </trkpt>
      <trkpt lat="45.69739" lon="6.36188">
        <ele>755.925344</ele>
        <time>2021-06-23T16:57:51.118Z</time>
      </trkpt>
      <trkpt lat="45.69743" lon="6.362">
        <ele>754.767102</ele>
        <time>2021-06-23T16:57:52.118Z</time>
      </trkpt>
      <trkpt lat="45.69746" lon="6.36214">
        <ele>753.590844</ele>
        <time>2021-06-23T16:57:53.131Z</time>
      </trkpt>
      <trkpt lat="45.6975" lon="6.36227">
        <ele>752.389247</ele>
        <time>2021-06-23T16:57:54.129Z</time>
      </trkpt>
      <trkpt lat="45.69755" lon="6.3625">
        <ele>750.347737</ele>
        <time>2021-06-23T16:57:56.132Z</time>
      </trkpt>
      <trkpt lat="45.6976" lon="6.36273">
        <ele>748.399585</ele>
        <time>2021-06-23T16:57:58.157Z</time>
      </trkpt>
      <trkpt lat="45.69765" lon="6.36292">
        <ele>746.709723</ele>
        <time>2021-06-23T16:58:00.131Z</time>
      </trkpt>
      <trkpt lat="45.69774" lon="6.36304">
        <ele>745.909255</ele>
        <time>2021-06-23T16:58:02.116Z</time>
      </trkpt>
      <trkpt lat="45.69785" lon="6.36319">
        <ele>745.365652</ele>
        <time>2021-06-23T16:58:04.132Z</time>
      </trkpt>
      <trkpt lat="45.69794" lon="6.36337">
        <ele>744.778059</ele>
        <time>2021-06-23T16:58:06.116Z</time>
      </trkpt>
      <trkpt lat="45.69806" lon="6.36347">
        <ele>744.259324</ele>
        <time>2021-06-23T16:58:08.127Z</time>
      </trkpt>
      <trkpt lat="45.69817" lon="6.36359">
        <ele>743.766871</ele>
        <time>2021-06-23T16:58:10.117Z</time>
      </trkpt>
      <trkpt lat="45.69827" lon="6.36371">
        <ele>743.273283</ele>
        <time>2021-06-23T16:58:12.120Z</time>
      </trkpt>
      <trkpt lat="45.69835" lon="6.36391">
        <ele>742.66143</ele>
        <time>2021-06-23T16:58:14.130Z</time>
      </trkpt>
      <trkpt lat="45.69839" lon="6.36406">
        <ele>742.246153</ele>
        <time>2021-06-23T16:58:15.123Z</time>
      </trkpt>
      <trkpt lat="45.69844" lon="6.3642">
        <ele>741.844199</ele>
        <time>2021-06-23T16:58:16.127Z</time>
      </trkpt>
      <trkpt lat="45.69851" lon="6.36432">
        <ele>741.451411</ele>
        <time>2021-06-23T16:58:17.122Z</time>
      </trkpt>
      <trkpt lat="45.69856" lon="6.36444">
        <ele>741.080117</ele>
        <time>2021-06-23T16:58:18.108Z</time>
      </trkpt>
      <trkpt lat="45.69862" lon="6.36456">
        <ele>740.704386</ele>
        <time>2021-06-23T16:58:19.111Z</time>
      </trkpt>
      <trkpt lat="45.6987" lon="6.36467">
        <ele>740.295564</ele>
        <time>2021-06-23T16:58:20.120Z</time>
      </trkpt>
      <trkpt lat="45.69886" lon="6.36476">
        <ele>739.654557</ele>
        <time>2021-06-23T16:58:22.130Z</time>
      </trkpt>
      <trkpt lat="45.69898" lon="6.36491">
        <ele>739.222587</ele>
        <time>2021-06-23T16:58:24.119Z</time>
      </trkpt>
      <trkpt lat="45.69904" lon="6.365">
        <ele>739.011558</ele>
        <time>2021-06-23T16:58:25.120Z</time>
      </trkpt>
      <trkpt lat="45.69916" lon="6.36516">
        <ele>738.63194</ele>
        <time>2021-06-23T16:58:27.125Z</time>
      </trkpt>
      <trkpt lat="45.69919" lon="6.36528">
        <ele>738.41813</ele>
        <time>2021-06-23T16:58:28.115Z</time>
      </trkpt>
      <trkpt lat="45.69922" lon="6.36553">
        <ele>737.995867</ele>
        <time>2021-06-23T16:58:30.119Z</time>
      </trkpt>
      <trkpt lat="45.69914" lon="6.36574">
        <ele>737.621158</ele>
        <time>2021-06-23T16:58:32.126Z</time>
      </trkpt>
      <trkpt lat="45.69906" lon="6.36591">
        <ele>737.280749</ele>
        <time>2021-06-23T16:58:34.117Z</time>
      </trkpt>
      <trkpt lat="45.69896" lon="6.36609">
        <ele>736.889912</ele>
        <time>2021-06-23T16:58:36.119Z</time>
      </trkpt>
      <trkpt lat="45.69882" lon="6.36625">
        <ele>736.485319</ele>
        <time>2021-06-23T16:58:38.115Z</time>
      </trkpt>
      <trkpt lat="45.69866" lon="6.36633">
        <ele>736.088</ele>
        <time>2021-06-23T16:58:40.177Z</time>
      </trkpt>
      <trkpt lat="45.69847" lon="6.36632">
        <ele>735.624755</ele>
        <time>2021-06-23T16:58:42.111Z</time>
      </trkpt>
      <trkpt lat="45.69835" lon="6.36629">
        <ele>735.345355</ele>
        <time>2021-06-23T16:58:43.115Z</time>
      </trkpt>
      <trkpt lat="45.69823" lon="6.36627">
        <ele>734.377468</ele>
        <time>2021-06-23T16:58:44.119Z</time>
      </trkpt>
      <trkpt lat="45.69812" lon="6.36623">
        <ele>733.298244</ele>
        <time>2021-06-23T16:58:45.125Z</time>
      </trkpt>
      <trkpt lat="45.69799" lon="6.36618">
        <ele>732.078524</ele>
        <time>2021-06-23T16:58:46.127Z</time>
      </trkpt>
      <trkpt lat="45.69787" lon="6.3661">
        <ele>730.866112</ele>
        <time>2021-06-23T16:58:47.140Z</time>
      </trkpt>
      <trkpt lat="45.69776" lon="6.366">
        <ele>729.660942</ele>
        <time>2021-06-23T16:58:48.119Z</time>
      </trkpt>
      <trkpt lat="45.69768" lon="6.36591">
        <ele>728.707597</ele>
        <time>2021-06-23T16:58:49.126Z</time>
      </trkpt>
      <trkpt lat="45.69758" lon="6.36585">
        <ele>727.607282</ele>
        <time>2021-06-23T16:58:50.119Z</time>
      </trkpt>
      <trkpt lat="45.69747" lon="6.36581">
        <ele>726.604699</ele>
        <time>2021-06-23T16:58:51.116Z</time>
      </trkpt>
      <trkpt lat="45.69736" lon="6.36578">
        <ele>725.541526</ele>
        <time>2021-06-23T16:58:52.114Z</time>
      </trkpt>
      <trkpt lat="45.69727" lon="6.36577">
        <ele>724.653723</ele>
        <time>2021-06-23T16:58:53.123Z</time>
      </trkpt>
      <trkpt lat="45.69718" lon="6.36579">
        <ele>723.799275</ele>
        <time>2021-06-23T16:59:00.134Z</time>
      </trkpt>
      <trkpt lat="45.69706" lon="6.3658">
        <ele>722.690317</ele>
        <time>2021-06-23T16:59:20.128Z</time>
      </trkpt>
      <trkpt lat="45.69695" lon="6.36579">
        <ele>721.712104</ele>
        <time>2021-06-23T16:59:22.140Z</time>
      </trkpt>
      <trkpt lat="45.69683" lon="6.36575">
        <ele>720.502642</ele>
        <time>2021-06-23T16:59:24.131Z</time>
      </trkpt>
      <trkpt lat="45.69667" lon="6.36566">
        <ele>718.921731</ele>
        <time>2021-06-23T16:59:26.128Z</time>
      </trkpt>
      <trkpt lat="45.69655" lon="6.36548">
        <ele>716.947779</ele>
        <time>2021-06-23T16:59:28.143Z</time>
      </trkpt>
      <trkpt lat="45.69648" lon="6.36538">
        <ele>715.825181</ele>
        <time>2021-06-23T16:59:29.120Z</time>
      </trkpt>
      <trkpt lat="45.69642" lon="6.36527">
        <ele>714.642645</ele>
        <time>2021-06-23T16:59:30.132Z</time>
      </trkpt>
      <trkpt lat="45.69637" lon="6.36515">
        <ele>713.482795</ele>
        <time>2021-06-23T16:59:31.130Z</time>
      </trkpt>
      <trkpt lat="45.69627" lon="6.36497">
        <ele>711.532183</ele>
        <time>2021-06-23T16:59:33.120Z</time>
      </trkpt>
      <trkpt lat="45.69616" lon="6.36488">
        <ele>710.020141</ele>
        <time>2021-06-23T16:59:35.130Z</time>
      </trkpt>
      <trkpt lat="45.69603" lon="6.36492">
        <ele>708.408947</ele>
        <time>2021-06-23T16:59:37.118Z</time>
      </trkpt>
      <trkpt lat="45.69591" lon="6.36486">
        <ele>706.935324</ele>
        <time>2021-06-23T16:59:39.177Z</time>
      </trkpt>
      <trkpt lat="45.69583" lon="6.36469">
        <ele>705.183784</ele>
        <time>2021-06-23T16:59:41.129Z</time>
      </trkpt>
      <trkpt lat="45.69573" lon="6.3645">
        <ele>703.239778</ele>
        <time>2021-06-23T16:59:43.128Z</time>
      </trkpt>
      <trkpt lat="45.69565" lon="6.36443">
        <ele>702.131361</ele>
        <time>2021-06-23T16:59:44.120Z</time>
      </trkpt>
      <trkpt lat="45.69557" lon="6.36435">
        <ele>700.982122</ele>
        <time>2021-06-23T16:59:45.124Z</time>
      </trkpt>
      <trkpt lat="45.69548" lon="6.36428">
        <ele>699.812601</ele>
        <time>2021-06-23T16:59:46.122Z</time>
      </trkpt>
      <trkpt lat="45.6954" lon="6.36421">
        <ele>698.624252</ele>
        <time>2021-06-23T16:59:47.119Z</time>
      </trkpt>
      <trkpt lat="45.69532" lon="6.36413">
        <ele>697.52096</ele>
        <time>2021-06-23T16:59:48.119Z</time>
      </trkpt>
      <trkpt lat="45.69517" lon="6.36401">
        <ele>695.660724</ele>
        <time>2021-06-23T16:59:50.120Z</time>
      </trkpt>
      <trkpt lat="45.69509" lon="6.36394">
        <ele>694.710767</ele>
        <time>2021-06-23T16:59:51.123Z</time>
      </trkpt>
      <trkpt lat="45.69496" lon="6.36384">
        <ele>693.222854</ele>
        <time>2021-06-23T16:59:53.134Z</time>
      </trkpt>
      <trkpt lat="45.69485" lon="6.36379">
        <ele>692.044293</ele>
        <time>2021-06-23T16:59:55.124Z</time>
      </trkpt>
      <trkpt lat="45.69477" lon="6.36389">
        <ele>690.976389</ele>
        <time>2021-06-23T16:59:59.134Z</time>
      </trkpt>
      <trkpt lat="45.69483" lon="6.364">
        <ele>689.974303</ele>
        <time>2021-06-23T17:00:22.160Z</time>
      </trkpt>
      <trkpt lat="45.69476" lon="6.36412">
        <ele>688.892155</ele>
        <time>2021-06-23T17:00:48.130Z</time>
      </trkpt>
      <trkpt lat="45.69467" lon="6.36417">
        <ele>687.920913</ele>
        <time>2021-06-23T17:00:50.119Z</time>
      </trkpt>
      <trkpt lat="45.6946" lon="6.36427">
        <ele>686.943906</ele>
        <time>2021-06-23T17:00:52.117Z</time>
      </trkpt>
      <trkpt lat="45.69454" lon="6.36438">
        <ele>685.916323</ele>
        <time>2021-06-23T17:00:54.111Z</time>
      </trkpt>
      <trkpt lat="45.69442" lon="6.36444">
        <ele>684.611175</ele>
        <time>2021-06-23T17:00:56.163Z</time>
      </trkpt>
      <trkpt lat="45.6943" lon="6.36441">
        <ele>683.3179</ele>
        <time>2021-06-23T17:00:58.141Z</time>
      </trkpt>
      <trkpt lat="45.69419" lon="6.36431">
        <ele>681.98673</ele>
        <time>2021-06-23T17:01:00.141Z</time>
      </trkpt>
      <trkpt lat="45.69409" lon="6.36413">
        <ele>680.391021</ele>
        <time>2021-06-23T17:01:02.161Z</time>
      </trkpt>
      <trkpt lat="45.69403" lon="6.36392">
        <ele>678.739376</ele>
        <time>2021-06-23T17:01:04.119Z</time>
      </trkpt>
      <trkpt lat="45.694" lon="6.36379">
        <ele>677.804089</ele>
        <time>2021-06-23T17:01:05.129Z</time>
      </trkpt>
      <trkpt lat="45.69398" lon="6.36353">
        <ele>676.007108</ele>
        <time>2021-06-23T17:01:07.130Z</time>
      </trkpt>
      <trkpt lat="45.69398" lon="6.36338">
        <ele>674.980397</ele>
        <time>2021-06-23T17:01:08.128Z</time>
      </trkpt>
      <trkpt lat="45.694" lon="6.36323">
        <ele>673.912429</ele>
        <time>2021-06-23T17:01:09.121Z</time>
      </trkpt>
      <trkpt lat="45.69403" lon="6.36307">
        <ele>672.804137</ele>
        <time>2021-06-23T17:01:10.126Z</time>
      </trkpt>
      <trkpt lat="45.69406" lon="6.36292">
        <ele>671.725768</ele>
        <time>2021-06-23T17:01:11.121Z</time>
      </trkpt>
      <trkpt lat="45.69408" lon="6.36279">
        <ele>670.835317</ele>
        <time>2021-06-23T17:01:12.120Z</time>
      </trkpt>
      <trkpt lat="45.6941" lon="6.36266">
        <ele>669.911474</ele>
        <time>2021-06-23T17:01:13.126Z</time>
      </trkpt>
      <trkpt lat="45.69407" lon="6.36246">
        <ele>668.516925</ele>
        <time>2021-06-23T17:01:15.125Z</time>
      </trkpt>
      <trkpt lat="45.69395" lon="6.36231">
        <ele>666.91097</ele>
        <time>2021-06-23T17:01:17.136Z</time>
      </trkpt>
      <trkpt lat="45.69386" lon="6.36224">
        <ele>665.969022</ele>
        <time>2021-06-23T17:01:18.134Z</time>
      </trkpt>
      <trkpt lat="45.69371" lon="6.36209">
        <ele>664.132056</ele>
        <time>2021-06-23T17:01:20.130Z</time>
      </trkpt>
      <trkpt lat="45.69361" lon="6.36203">
        <ele>663.092174</ele>
        <time>2021-06-23T17:01:21.124Z</time>
      </trkpt>
      <trkpt lat="45.69352" lon="6.36196">
        <ele>662.069962</ele>
        <time>2021-06-23T17:01:22.132Z</time>
      </trkpt>
      <trkpt lat="45.69342" lon="6.3619">
        <ele>660.990965</ele>
        <time>2021-06-23T17:01:23.135Z</time>
      </trkpt>
      <trkpt lat="45.69331" lon="6.36185">
        <ele>659.80472</ele>
        <time>2021-06-23T17:01:24.129Z</time>
      </trkpt>
      <trkpt lat="45.6932" lon="6.3618">
        <ele>658.590003</ele>
        <time>2021-06-23T17:01:25.124Z</time>
      </trkpt>
      <trkpt lat="45.6931" lon="6.36176">
        <ele>657.381862</ele>
        <time>2021-06-23T17:01:26.125Z</time>
      </trkpt>
      <trkpt lat="45.69297" lon="6.36173">
        <ele>656.036476</ele>
        <time>2021-06-23T17:01:27.134Z</time>
      </trkpt>
      <trkpt lat="45.69285" lon="6.3617">
        <ele>654.673759</ele>
        <time>2021-06-23T17:01:28.128Z</time>
      </trkpt>
      <trkpt lat="45.69272" lon="6.3617">
        <ele>653.320811</ele>
        <time>2021-06-23T17:01:29.126Z</time>
      </trkpt>
      <trkpt lat="45.69259" lon="6.3617">
        <ele>651.904255</ele>
        <time>2021-06-23T17:01:30.132Z</time>
      </trkpt>
      <trkpt lat="45.69247" lon="6.36169">
        <ele>650.552318</ele>
        <time>2021-06-23T17:01:31.138Z</time>
      </trkpt>
      <trkpt lat="45.69235" lon="6.36166">
        <ele>649.233975</ele>
        <time>2021-06-23T17:01:32.138Z</time>
      </trkpt>
      <trkpt lat="45.69226" lon="6.3616">
        <ele>648.176777</ele>
        <time>2021-06-23T17:01:33.143Z</time>
      </trkpt>
      <trkpt lat="45.69218" lon="6.36152">
        <ele>647.114252</ele>
        <time>2021-06-23T17:01:34.115Z</time>
      </trkpt>
      <trkpt lat="45.69206" lon="6.36145">
        <ele>645.73314</ele>
        <time>2021-06-23T17:01:36.109Z</time>
      </trkpt>
      <trkpt lat="45.69196" lon="6.36152">
        <ele>644.591248</ele>
        <time>2021-06-23T17:01:38.114Z</time>
      </trkpt>
      <trkpt lat="45.69193" lon="6.36164">
        <ele>643.572816</ele>
        <time>2021-06-23T17:01:40.106Z</time>
      </trkpt>
      <trkpt lat="45.69199" lon="6.3618">
        <ele>642.188827</ele>
        <time>2021-06-23T17:01:42.127Z</time>
      </trkpt>
      <trkpt lat="45.69209" lon="6.36187">
        <ele>640.62632</ele>
        <time>2021-06-23T17:01:43.123Z</time>
      </trkpt>
      <trkpt lat="45.69221" lon="6.36195">
        <ele>638.447528</ele>
        <time>2021-06-23T17:01:44.150Z</time>
      </trkpt>
      <trkpt lat="45.69232" lon="6.36202">
        <ele>636.563625</ele>
        <time>2021-06-23T17:01:45.143Z</time>
      </trkpt>
      <trkpt lat="45.69241" lon="6.36208">
        <ele>634.813664</ele>
        <time>2021-06-23T17:01:46.120Z</time>
      </trkpt>
      <trkpt lat="45.69253" lon="6.36214">
        <ele>632.687369</ele>
        <time>2021-06-23T17:01:47.134Z</time>
      </trkpt>
      <trkpt lat="45.69263" lon="6.36223">
        <ele>630.718109</ele>
        <time>2021-06-23T17:01:48.126Z</time>
      </trkpt>
      <trkpt lat="45.69272" lon="6.36234">
        <ele>628.750558</ele>
        <time>2021-06-23T17:01:49.118Z</time>
      </trkpt>
      <trkpt lat="45.69282" lon="6.36244">
        <ele>626.806299</ele>
        <time>2021-06-23T17:01:50.132Z</time>
      </trkpt>
      <trkpt lat="45.6929" lon="6.36255">
        <ele>624.909394</ele>
        <time>2021-06-23T17:01:51.162Z</time>
      </trkpt>
      <trkpt lat="45.69299" lon="6.36267">
        <ele>622.903088</ele>
        <time>2021-06-23T17:01:52.117Z</time>
      </trkpt>
      <trkpt lat="45.69308" lon="6.36276">
        <ele>621.026171</ele>
        <time>2021-06-23T17:01:53.142Z</time>
      </trkpt>
      <trkpt lat="45.69317" lon="6.36284">
        <ele>619.267163</ele>
        <time>2021-06-23T17:01:54.121Z</time>
      </trkpt>
      <trkpt lat="45.69325" lon="6.36291">
        <ele>617.71036</ele>
        <time>2021-06-23T17:01:55.105Z</time>
      </trkpt>
      <trkpt lat="45.69333" lon="6.3631">
        <ele>615.196661</ele>
        <time>2021-06-23T17:01:57.099Z</time>
      </trkpt>
      <trkpt lat="45.69324" lon="6.36326">
        <ele>612.771845</ele>
        <time>2021-06-23T17:01:59.130Z</time>
      </trkpt>
      <trkpt lat="45.69315" lon="6.3633">
        <ele>611.692388</ele>
        <time>2021-06-23T17:02:00.110Z</time>
      </trkpt>
      <trkpt lat="45.69303" lon="6.36333">
        <ele>611.675556</ele>
        <time>2021-06-23T17:02:01.114Z</time>
      </trkpt>
      <trkpt lat="45.6929" lon="6.36336">
        <ele>611.657582</ele>
        <time>2021-06-23T17:02:02.106Z</time>
      </trkpt>
      <trkpt lat="45.69275" lon="6.36339">
        <ele>611.638536</ele>
        <time>2021-06-23T17:02:03.106Z</time>
      </trkpt>
      <trkpt lat="45.69263" lon="6.36343">
        <ele>611.622101</ele>
        <time>2021-06-23T17:02:04.114Z</time>
      </trkpt>
      <trkpt lat="45.69253" lon="6.36351">
        <ele>611.606834</ele>
        <time>2021-06-23T17:02:05.119Z</time>
      </trkpt>
      <trkpt lat="45.69244" lon="6.36359">
        <ele>611.5918</ele>
        <time>2021-06-23T17:02:06.118Z</time>
      </trkpt>
      <trkpt lat="45.69235" lon="6.36368">
        <ele>611.577682</ele>
        <time>2021-06-23T17:02:07.114Z</time>
      </trkpt>
      <trkpt lat="45.69228" lon="6.3638">
        <ele>611.562965</ele>
        <time>2021-06-23T17:02:08.114Z</time>
      </trkpt>
      <trkpt lat="45.69223" lon="6.36392">
        <ele>611.549999</ele>
        <time>2021-06-23T17:02:09.147Z</time>
      </trkpt>
      <trkpt lat="45.69219" lon="6.36403">
        <ele>611.537924</ele>
        <time>2021-06-23T17:02:10.129Z</time>
      </trkpt>
      <trkpt lat="45.69215" lon="6.36415">
        <ele>611.525765</ele>
        <time>2021-06-23T17:02:11.128Z</time>
      </trkpt>
      <trkpt lat="45.69212" lon="6.3643">
        <ele>611.51119</ele>
        <time>2021-06-23T17:02:12.123Z</time>
      </trkpt>
      <trkpt lat="45.6921" lon="6.36445">
        <ele>611.497638</ele>
        <time>2021-06-23T17:02:13.130Z</time>
      </trkpt>
      <trkpt lat="45.69204" lon="6.36466">
        <ele>611.476318</ele>
        <time>2021-06-23T17:02:15.112Z</time>
      </trkpt>
      <trkpt lat="45.69196" lon="6.36474">
        <ele>611.463272</ele>
        <time>2021-06-23T17:02:17.124Z</time>
      </trkpt>
      <trkpt lat="45.69184" lon="6.36463">
        <ele>611.17</ele>
        <time>2021-06-23T17:02:19.121Z</time>
      </trkpt>
      <trkpt lat="45.69177" lon="6.3644">
        <ele>610.628628</ele>
        <time>2021-06-23T17:02:21.118Z</time>
      </trkpt>
      <trkpt lat="45.69176" lon="6.36427">
        <ele>610.332324</ele>
        <time>2021-06-23T17:02:22.130Z</time>
      </trkpt>
      <trkpt lat="45.69174" lon="6.36412">
        <ele>610.012524</ele>
        <time>2021-06-23T17:02:23.133Z</time>
      </trkpt>
      <trkpt lat="45.69172" lon="6.36396">
        <ele>609.652607</ele>
        <time>2021-06-23T17:02:24.136Z</time>
      </trkpt>
      <trkpt lat="45.69168" lon="6.3638">
        <ele>609.278184</ele>
        <time>2021-06-23T17:02:25.124Z</time>
      </trkpt>
      <trkpt lat="45.69165" lon="6.36363">
        <ele>608.884102</ele>
        <time>2021-06-23T17:02:26.109Z</time>
      </trkpt>
      <trkpt lat="45.69162" lon="6.36347">
        <ele>608.532098</ele>
        <time>2021-06-23T17:02:27.119Z</time>
      </trkpt>
      <trkpt lat="45.69159" lon="6.36334">
        <ele>608.21973</ele>
        <time>2021-06-23T17:02:28.128Z</time>
      </trkpt>
      <trkpt lat="45.6916" lon="6.3631">
        <ele>607.694687</ele>
        <time>2021-06-23T17:02:30.134Z</time>
      </trkpt>
      <trkpt lat="45.69165" lon="6.36299">
        <ele>607.405524</ele>
        <time>2021-06-23T17:02:31.118Z</time>
      </trkpt>
      <trkpt lat="45.69174" lon="6.3628">
        <ele>606.913538</ele>
        <time>2021-06-23T17:02:33.115Z</time>
      </trkpt>
      <trkpt lat="45.69172" lon="6.36267">
        <ele>606.605102</ele>
        <time>2021-06-23T17:02:35.110Z</time>
      </trkpt>
      <trkpt lat="45.69155" lon="6.36269">
        <ele>606.098391</ele>
        <time>2021-06-23T17:02:37.102Z</time>
      </trkpt>
      <trkpt lat="45.69148" lon="6.36278">
        <ele>605.62734</ele>
        <time>2021-06-23T17:02:38.092Z</time>
      </trkpt>
      <trkpt lat="45.6914" lon="6.36287">
        <ele>604.183609</ele>
        <time>2021-06-23T17:02:39.114Z</time>
      </trkpt>
      <trkpt lat="45.69133" lon="6.36296">
        <ele>602.717037</ele>
        <time>2021-06-23T17:02:40.113Z</time>
      </trkpt>
      <trkpt lat="45.69126" lon="6.36306">
        <ele>601.269255</ele>
        <time>2021-06-23T17:02:41.118Z</time>
      </trkpt>
      <trkpt lat="45.69113" lon="6.36321">
        <ele>598.794138</ele>
        <time>2021-06-23T17:02:43.111Z</time>
      </trkpt>
      <trkpt lat="45.69106" lon="6.36332">
        <ele>597.216125</ele>
        <time>2021-06-23T17:02:44.114Z</time>
      </trkpt>
      <trkpt lat="45.691" lon="6.36344">
        <ele>595.635676</ele>
        <time>2021-06-23T17:02:45.117Z</time>
      </trkpt>
      <trkpt lat="45.69093" lon="6.36356">
        <ele>593.987053</ele>
        <time>2021-06-23T17:02:46.125Z</time>
      </trkpt>
      <trkpt lat="45.69086" lon="6.36368">
        <ele>592.366489</ele>
        <time>2021-06-23T17:02:47.117Z</time>
      </trkpt>
      <trkpt lat="45.69079" lon="6.36378">
        <ele>590.884518</ele>
        <time>2021-06-23T17:02:48.123Z</time>
      </trkpt>
      <trkpt lat="45.69071" lon="6.36387">
        <ele>589.355193</ele>
        <time>2021-06-23T17:02:49.119Z</time>
      </trkpt>
      <trkpt lat="45.69062" lon="6.36398">
        <ele>587.645895</ele>
        <time>2021-06-23T17:02:50.124Z</time>
      </trkpt>
      <trkpt lat="45.69055" lon="6.3641">
        <ele>585.937646</ele>
        <time>2021-06-23T17:02:51.143Z</time>
      </trkpt>
      <trkpt lat="45.69046" lon="6.36421">
        <ele>584.210257</ele>
        <time>2021-06-23T17:02:52.124Z</time>
      </trkpt>
      <trkpt lat="45.69037" lon="6.36431">
        <ele>582.458724</ele>
        <time>2021-06-23T17:02:53.120Z</time>
      </trkpt>
      <trkpt lat="45.69029" lon="6.3644">
        <ele>580.928514</ele>
        <time>2021-06-23T17:02:54.133Z</time>
      </trkpt>
      <trkpt lat="45.69011" lon="6.36443">
        <ele>578.749933</ele>
        <time>2021-06-23T17:02:56.134Z</time>
      </trkpt>
      <trkpt lat="45.68996" lon="6.36434">
        <ele>578.234186</ele>
        <time>2021-06-23T17:02:58.113Z</time>
      </trkpt>
      <trkpt lat="45.68989" lon="6.36419">
        <ele>577.843108</ele>
        <time>2021-06-23T17:03:00.119Z</time>
      </trkpt>
      <trkpt lat="45.68993" lon="6.36398">
        <ele>577.388165</ele>
        <time>2021-06-23T17:03:02.125Z</time>
      </trkpt>
      <trkpt lat="45.68997" lon="6.36385">
        <ele>577.07469</ele>
        <time>2021-06-23T17:03:03.117Z</time>
      </trkpt>
      <trkpt lat="45.69" lon="6.36369">
        <ele>576.706825</ele>
        <time>2021-06-23T17:03:04.124Z</time>
      </trkpt>
      <trkpt lat="45.69004" lon="6.36353">
        <ele>576.342053</ele>
        <time>2021-06-23T17:03:05.137Z</time>
      </trkpt>
      <trkpt lat="45.69007" lon="6.3634">
        <ele>576.040141</ele>
        <time>2021-06-23T17:03:06.126Z</time>
      </trkpt>
      <trkpt lat="45.69006" lon="6.3632">
        <ele>575.623804</ele>
        <time>2021-06-23T17:03:08.113Z</time>
      </trkpt>
      <trkpt lat="45.68995" lon="6.36312">
        <ele>575.244128</ele>
        <time>2021-06-23T17:03:10.108Z</time>
      </trkpt>
      <trkpt lat="45.68982" lon="6.36323">
        <ele>574.751292</ele>
        <time>2021-06-23T17:03:12.137Z</time>
      </trkpt>
      <trkpt lat="45.68967" lon="6.3633">
        <ele>574.278113</ele>
        <time>2021-06-23T17:03:14.121Z</time>
      </trkpt>
      <trkpt lat="45.68952" lon="6.36336">
        <ele>573.780188</ele>
        <time>2021-06-23T17:03:16.128Z</time>
      </trkpt>
      <trkpt lat="45.68944" lon="6.36342">
        <ele>573.495859</ele>
        <time>2021-06-23T17:03:17.128Z</time>
      </trkpt>
      <trkpt lat="45.68929" lon="6.36348">
        <ele>572.388489</ele>
        <time>2021-06-23T17:03:19.147Z</time>
      </trkpt>
      <trkpt lat="45.68919" lon="6.36346">
        <ele>571.205076</ele>
        <time>2021-06-23T17:03:21.138Z</time>
      </trkpt>
      <trkpt lat="45.68922" lon="6.36332">
        <ele>570.010897</ele>
        <time>2021-06-23T17:03:26.132Z</time>
      </trkpt>
      <trkpt lat="45.68931" lon="6.36324">
        <ele>568.758532</ele>
        <time>2021-06-23T17:03:30.118Z</time>
      </trkpt>
      <trkpt lat="45.68941" lon="6.36318">
        <ele>567.457845</ele>
        <time>2021-06-23T17:03:33.147Z</time>
      </trkpt>
      <trkpt lat="45.68951" lon="6.3631">
        <ele>566.078409</ele>
        <time>2021-06-23T17:03:35.117Z</time>
      </trkpt>
      <trkpt lat="45.68964" lon="6.36298">
        <ele>564.258242</ele>
        <time>2021-06-23T17:03:37.117Z</time>
      </trkpt>
      <trkpt lat="45.6898" lon="6.36289">
        <ele>562.315678</ele>
        <time>2021-06-23T17:03:39.136Z</time>
      </trkpt>
      <trkpt lat="45.68991" lon="6.36284">
        <ele>560.878419</ele>
        <time>2021-06-23T17:03:41.137Z</time>
      </trkpt>
      <trkpt lat="45.68989" lon="6.36263">
        <ele>559.092918</ele>
        <time>2021-06-23T17:03:44.128Z</time>
      </trkpt>
      <trkpt lat="45.68978" lon="6.36248">
        <ele>557.267753</ele>
        <time>2021-06-23T17:03:46.131Z</time>
      </trkpt>
      <trkpt lat="45.68966" lon="6.36231">
        <ele>555.295422</ele>
        <time>2021-06-23T17:03:48.124Z</time>
      </trkpt>
      <trkpt lat="45.68958" lon="6.36218">
        <ele>553.829601</ele>
        <time>2021-06-23T17:03:50.119Z</time>
      </trkpt>
      <trkpt lat="45.68948" lon="6.36209">
        <ele>552.48879</ele>
        <time>2021-06-23T17:03:53.118Z</time>
      </trkpt>
      <trkpt lat="45.68938" lon="6.36207">
        <ele>551.544101</ele>
        <time>2021-06-23T17:03:55.111Z</time>
      </trkpt>
      <trkpt lat="45.68927" lon="6.36211">
        <ele>550.52964</ele>
        <time>2021-06-23T17:03:57.116Z</time>
      </trkpt>
      <trkpt lat="45.68917" lon="6.3622">
        <ele>549.426353</ele>
        <time>2021-06-23T17:03:59.122Z</time>
      </trkpt>
      <trkpt lat="45.68905" lon="6.36233">
        <ele>548.08704</ele>
        <time>2021-06-23T17:04:01.141Z</time>
      </trkpt>
      <trkpt lat="45.68891" lon="6.36248">
        <ele>546.503531</ele>
        <time>2021-06-23T17:04:03.114Z</time>
      </trkpt>
      <trkpt lat="45.68875" lon="6.36259">
        <ele>544.957519</ele>
        <time>2021-06-23T17:04:05.117Z</time>
      </trkpt>
      <trkpt lat="45.68865" lon="6.3626">
        <ele>544.075232</ele>
        <time>2021-06-23T17:04:06.110Z</time>
      </trkpt>
      <trkpt lat="45.68855" lon="6.3626">
        <ele>543.152423</ele>
        <time>2021-06-23T17:04:07.118Z</time>
      </trkpt>
      <trkpt lat="45.68843" lon="6.36257">
        <ele>542.060541</ele>
        <time>2021-06-23T17:04:08.125Z</time>
      </trkpt>
      <trkpt lat="45.68832" lon="6.36255">
        <ele>541.053665</ele>
        <time>2021-06-23T17:04:09.130Z</time>
      </trkpt>
      <trkpt lat="45.68821" lon="6.36252">
        <ele>540.04679</ele>
        <time>2021-06-23T17:04:10.131Z</time>
      </trkpt>
      <trkpt lat="45.6881" lon="6.36248">
        <ele>539.010572</ele>
        <time>2021-06-23T17:04:11.128Z</time>
      </trkpt>
      <trkpt lat="45.68799" lon="6.36241">
        <ele>537.951115</ele>
        <time>2021-06-23T17:04:12.126Z</time>
      </trkpt>
      <trkpt lat="45.68789" lon="6.36234">
        <ele>536.970826</ele>
        <time>2021-06-23T17:04:13.116Z</time>
      </trkpt>
      <trkpt lat="45.68779" lon="6.36226">
        <ele>535.976953</ele>
        <time>2021-06-23T17:04:14.145Z</time>
      </trkpt>
      <trkpt lat="45.68769" lon="6.36217">
        <ele>535.39918</ele>
        <time>2021-06-23T17:04:15.129Z</time>
      </trkpt>
      <trkpt lat="45.68761" lon="6.36207">
        <ele>534.849819</ele>
        <time>2021-06-23T17:04:16.128Z</time>
      </trkpt>
      <trkpt lat="45.68748" lon="6.36192">
        <ele>533.99592</ele>
        <time>2021-06-23T17:04:18.131Z</time>
      </trkpt>
      <trkpt lat="45.68737" lon="6.36181">
        <ele>533.350758</ele>
        <time>2021-06-23T17:04:20.138Z</time>
      </trkpt>
      <trkpt lat="45.68725" lon="6.36179">
        <ele>532.73089</ele>
        <time>2021-06-23T17:04:23.147Z</time>
      </trkpt>
      <trkpt lat="45.68711" lon="6.36178">
        <ele>532.029421</ele>
        <time>2021-06-23T17:04:26.118Z</time>
      </trkpt>
      <trkpt lat="45.68701" lon="6.36167">
        <ele>531.394485</ele>
        <time>2021-06-23T17:04:28.122Z</time>
      </trkpt>
      <trkpt lat="45.68692" lon="6.36153">
        <ele>530.726681</ele>
        <time>2021-06-23T17:04:30.129Z</time>
      </trkpt>
      <trkpt lat="45.68679" lon="6.36143">
        <ele>529.980467</ele>
        <time>2021-06-23T17:04:32.120Z</time>
      </trkpt>
      <trkpt lat="45.68663" lon="6.36136">
        <ele>529.142159</ele>
        <time>2021-06-23T17:04:34.125Z</time>
      </trkpt>
      <trkpt lat="45.68647" lon="6.36129">
        <ele>528.319847</ele>
        <time>2021-06-23T17:04:36.117Z</time>
      </trkpt>
      <trkpt lat="45.68638" lon="6.36126">
        <ele>527.84032</ele>
        <time>2021-06-23T17:04:37.119Z</time>
      </trkpt>
      <trkpt lat="45.68621" lon="6.36119">
        <ele>526.945264</ele>
        <time>2021-06-23T17:04:39.115Z</time>
      </trkpt>
      <trkpt lat="45.68603" lon="6.36113">
        <ele>525.244268</ele>
        <time>2021-06-23T17:04:41.121Z</time>
      </trkpt>
      <trkpt lat="45.68594" lon="6.3611">
        <ele>524.316035</ele>
        <time>2021-06-23T17:04:42.114Z</time>
      </trkpt>
      <trkpt lat="45.68584" lon="6.36107">
        <ele>523.36463</ele>
        <time>2021-06-23T17:04:43.122Z</time>
      </trkpt>
      <trkpt lat="45.68573" lon="6.36104">
        <ele>522.352498</ele>
        <time>2021-06-23T17:04:44.135Z</time>
      </trkpt>
      <trkpt lat="45.68562" lon="6.36101">
        <ele>521.268188</ele>
        <time>2021-06-23T17:04:45.123Z</time>
      </trkpt>
      <trkpt lat="45.68551" lon="6.36098">
        <ele>520.162812</ele>
        <time>2021-06-23T17:04:46.118Z</time>
      </trkpt>
      <trkpt lat="45.6854" lon="6.36094">
        <ele>519.109596</ele>
        <time>2021-06-23T17:04:47.119Z</time>
      </trkpt>
      <trkpt lat="45.68527" lon="6.36092">
        <ele>517.922955</ele>
        <time>2021-06-23T17:04:48.139Z</time>
      </trkpt>
      <trkpt lat="45.68515" lon="6.3609">
        <ele>516.759096</ele>
        <time>2021-06-23T17:04:49.124Z</time>
      </trkpt>
      <trkpt lat="45.68503" lon="6.36089">
        <ele>515.66831</ele>
        <time>2021-06-23T17:04:50.121Z</time>
      </trkpt>
      <trkpt lat="45.68491" lon="6.36087">
        <ele>514.483415</ele>
        <time>2021-06-23T17:04:51.123Z</time>
      </trkpt>
      <trkpt lat="45.68479" lon="6.36085">
        <ele>513.35355</ele>
        <time>2021-06-23T17:04:52.123Z</time>
      </trkpt>
      <trkpt lat="45.68467" lon="6.3608">
        <ele>512.182112</ele>
        <time>2021-06-23T17:04:53.141Z</time>
      </trkpt>
      <trkpt lat="45.68455" lon="6.36074">
        <ele>510.97955</ele>
        <time>2021-06-23T17:04:54.127Z</time>
      </trkpt>
      <trkpt lat="45.68441" lon="6.36068">
        <ele>509.706578</ele>
        <time>2021-06-23T17:04:55.117Z</time>
      </trkpt>
      <trkpt lat="45.68429" lon="6.36059">
        <ele>508.603499</ele>
        <time>2021-06-23T17:04:56.125Z</time>
      </trkpt>
      <trkpt lat="45.68418" lon="6.36049">
        <ele>507.495852</ele>
        <time>2021-06-23T17:04:57.122Z</time>
      </trkpt>
      <trkpt lat="45.68406" lon="6.36041">
        <ele>506.448431</ele>
        <time>2021-06-23T17:04:58.111Z</time>
      </trkpt>
      <trkpt lat="45.68392" lon="6.36034">
        <ele>505.263166</ele>
        <time>2021-06-23T17:04:59.110Z</time>
      </trkpt>
      <trkpt lat="45.68379" lon="6.36028">
        <ele>504.148849</ele>
        <time>2021-06-23T17:05:00.119Z</time>
      </trkpt>
      <trkpt lat="45.68365" lon="6.36019">
        <ele>502.897784</ele>
        <time>2021-06-23T17:05:01.121Z</time>
      </trkpt>
      <trkpt lat="45.68352" lon="6.3601">
        <ele>501.721102</ele>
        <time>2021-06-23T17:05:02.131Z</time>
      </trkpt>
      <trkpt lat="45.6834" lon="6.36004">
        <ele>500.700543</ele>
        <time>2021-06-23T17:05:03.117Z</time>
      </trkpt>
      <trkpt lat="45.68327" lon="6.35991">
        <ele>499.357575</ele>
        <time>2021-06-23T17:05:04.121Z</time>
      </trkpt>
      <trkpt lat="45.68314" lon="6.3598">
        <ele>498.146058</ele>
        <time>2021-06-23T17:05:05.121Z</time>
      </trkpt>
      <trkpt lat="45.68301" lon="6.35968">
        <ele>496.883993</ele>
        <time>2021-06-23T17:05:06.117Z</time>
      </trkpt>
      <trkpt lat="45.68288" lon="6.35957">
        <ele>495.636583</ele>
        <time>2021-06-23T17:05:07.122Z</time>
      </trkpt>
      <trkpt lat="45.68276" lon="6.35946">
        <ele>494.659906</ele>
        <time>2021-06-23T17:05:08.125Z</time>
      </trkpt>
      <trkpt lat="45.68266" lon="6.35935">
        <ele>493.748776</ele>
        <time>2021-06-23T17:05:09.143Z</time>
      </trkpt>
      <trkpt lat="45.68254" lon="6.35923">
        <ele>492.753531</ele>
        <time>2021-06-23T17:05:10.124Z</time>
      </trkpt>
      <trkpt lat="45.68241" lon="6.35913">
        <ele>491.739731</ele>
        <time>2021-06-23T17:05:11.127Z</time>
      </trkpt>
      <trkpt lat="45.68228" lon="6.35901">
        <ele>490.650568</ele>
        <time>2021-06-23T17:05:12.151Z</time>
      </trkpt>
      <trkpt lat="45.68216" lon="6.35892">
        <ele>489.752924</ele>
        <time>2021-06-23T17:05:13.127Z</time>
      </trkpt>
      <trkpt lat="45.68203" lon="6.35882">
        <ele>488.754865</ele>
        <time>2021-06-23T17:05:14.126Z</time>
      </trkpt>
      <trkpt lat="45.68191" lon="6.35876">
        <ele>487.815164</ele>
        <time>2021-06-23T17:05:15.125Z</time>
      </trkpt>
      <trkpt lat="45.68178" lon="6.35868">
        <ele>486.868644</ele>
        <time>2021-06-23T17:05:16.137Z</time>
      </trkpt>
      <trkpt lat="45.68166" lon="6.35859">
        <ele>485.914364</ele>
        <time>2021-06-23T17:05:17.133Z</time>
      </trkpt>
      <trkpt lat="45.68153" lon="6.35851">
        <ele>484.974168</ele>
        <time>2021-06-23T17:05:18.128Z</time>
      </trkpt>
      <trkpt lat="45.68141" lon="6.35844">
        <ele>484.091613</ele>
        <time>2021-06-23T17:05:19.128Z</time>
      </trkpt>
      <trkpt lat="45.6813" lon="6.35838">
        <ele>483.273528</ele>
        <time>2021-06-23T17:05:20.123Z</time>
      </trkpt>
      <trkpt lat="45.68118" lon="6.3583">
        <ele>481.946318</ele>
        <time>2021-06-23T17:05:21.131Z</time>
      </trkpt>
      <trkpt lat="45.68105" lon="6.35823">
        <ele>480.535378</ele>
        <time>2021-06-23T17:05:22.123Z</time>
      </trkpt>
      <trkpt lat="45.68093" lon="6.35816">
        <ele>479.135277</ele>
        <time>2021-06-23T17:05:23.119Z</time>
      </trkpt>
      <trkpt lat="45.68081" lon="6.35811">
        <ele>477.72997</ele>
        <time>2021-06-23T17:05:24.114Z</time>
      </trkpt>
      <trkpt lat="45.68067" lon="6.35807">
        <ele>476.259926</ele>
        <time>2021-06-23T17:05:25.133Z</time>
      </trkpt>
      <trkpt lat="45.68053" lon="6.35803">
        <ele>474.751967</ele>
        <time>2021-06-23T17:05:26.114Z</time>
      </trkpt>
      <trkpt lat="45.68039" lon="6.35802">
        <ele>473.275609</ele>
        <time>2021-06-23T17:05:27.130Z</time>
      </trkpt>
      <trkpt lat="45.68026" lon="6.35799">
        <ele>471.87801</ele>
        <time>2021-06-23T17:05:28.112Z</time>
      </trkpt>
      <trkpt lat="45.68014" lon="6.35796">
        <ele>470.535555</ele>
        <time>2021-06-23T17:05:29.114Z</time>
      </trkpt>
      <trkpt lat="45.68002" lon="6.35794">
        <ele>469.234967</ele>
        <time>2021-06-23T17:05:30.124Z</time>
      </trkpt>
      <trkpt lat="45.6799" lon="6.35794">
        <ele>467.919728</ele>
        <time>2021-06-23T17:05:31.137Z</time>
      </trkpt>
      <trkpt lat="45.67977" lon="6.35793">
        <ele>466.615165</ele>
        <time>2021-06-23T17:05:32.127Z</time>
      </trkpt>
      <trkpt lat="45.67966" lon="6.35793">
        <ele>465.343702</ele>
        <time>2021-06-23T17:05:33.139Z</time>
      </trkpt>
      <trkpt lat="45.67956" lon="6.35794">
        <ele>464.274308</ele>
        <time>2021-06-23T17:05:34.137Z</time>
      </trkpt>
      <trkpt lat="45.67946" lon="6.35796">
        <ele>463.774234</ele>
        <time>2021-06-23T17:05:35.126Z</time>
      </trkpt>
      <trkpt lat="45.67929" lon="6.35807">
        <ele>463.774234</ele>
        <time>2021-06-23T17:05:37.114Z</time>
      </trkpt>
      <trkpt lat="45.67916" lon="6.35821">
        <ele>463.774234</ele>
        <time>2021-06-23T17:05:39.114Z</time>
      </trkpt>
      <trkpt lat="45.6791" lon="6.35831">
        <ele>463.774234</ele>
        <time>2021-06-23T17:05:41.109Z</time>
      </trkpt>
      <trkpt lat="45.67904" lon="6.35845">
        <ele>463.774234</ele>
        <time>2021-06-23T17:05:44.120Z</time>
      </trkpt>
      <trkpt lat="45.67898" lon="6.3586">
        <ele>463.774234</ele>
        <time>2021-06-23T17:05:47.140Z</time>
      </trkpt>
      <trkpt lat="45.67893" lon="6.35875">
        <ele>463.774234</ele>
        <time>2021-06-23T17:05:50.110Z</time>
      </trkpt>
      <trkpt lat="45.67888" lon="6.35889">
        <ele>463.774234</ele>
        <time>2021-06-23T17:05:55.124Z</time>
      </trkpt>
      <trkpt lat="45.67884" lon="6.35902">
        <ele>463.774234</ele>
        <time>2021-06-23T17:05:59.116Z</time>
      </trkpt>
      <trkpt lat="45.67877" lon="6.35916">
        <ele>463.774234</ele>
        <time>2021-06-23T17:06:03.122Z</time>
      </trkpt>
      <trkpt lat="45.67867" lon="6.35926">
        <ele>463.774234</ele>
        <time>2021-06-23T17:06:10.132Z</time>
      </trkpt>
      <trkpt lat="45.67858" lon="6.35931">
        <ele>463.774234</ele>
        <time>2021-06-23T17:06:15.134Z</time>
      </trkpt>
      <trkpt lat="45.67848" lon="6.35928">
        <ele>463.774234</ele>
        <time>2021-06-23T17:06:20.137Z</time>
      </trkpt>
      <trkpt lat="45.67838" lon="6.35928">
        <ele>463.774234</ele>
        <time>2021-06-23T17:06:26.129Z</time>
      </trkpt>
    </trkseg>
  </trk>
</gpx>